GFSSGP_sfc_thetae_000.txt.gz
Theta_e
326 325 326 321 306 304 299 299 303 301 302 304 306 307 307 307 306 303 310 310 312 320 322 329 333 334 336 337 339 340 342 343 344 343 343 343 343 344 345 344 345 346 346 347 347 348 348 350 349
323 320 322 314 304 299 299 302 300 304 304 305 304 304 305 305 306 308 309 306 311 316 320 325 329 329 329 331 333 335 336 336 337 338 340 340 340 340 340 340 340 341 343 345 346 346 347 349 349
318 318 317 309 304 298 299 301 303 303 305 304 303 303 305 305 306 310 307 304 309 314 318 321 324 325 325 325 327 329 329 330 332 333 334 334 335 334 334 335 336 337 339 341 343 344 344 345 345
318 314 309 303 299 301 301 303 304 302 302 303 304 302 302 306 307 308 305 302 304 309 315 317 319 322 322 321 322 323 322 323 324 325 326 329 325 323 325 328 329 329 331 333 336 338 338 340 342
316 313 304 301 299 301 302 304 304 303 304 303 303 303 302 303 305 304 303 302 302 304 310 313 315 316 317 318 317 317 317 317 317 317 320 320 316 317 318 320 321 323 324 326 330 332 332 333 337
311 309 302 299 299 301 302 304 304 305 304 301 301 301 303 304 302 302 302 301 301 302 304 307 309 311 312 313 313 313 313 313 313 312 313 313 312 312 313 315 316 317 318 319 323 326 325 326 330
309 307 301 300 299 299 301 304 302 304 303 302 303 301 302 301 303 301 301 301 301 301 301 303 303 304 307 307 308 308 309 309 310 309 308 308 308 308 309 309 312 313 313 314 318 317 318 319 319
310 308 299 299 299 299 302 302 301 303 303 302 304 303 303 303 301 301 301 301 300 299 299 300 302 302 303 304 304 305 306 306 306 306 305 304 304 304 304 305 307 310 310 311 313 313 313 312 312
308 303 300 299 298 301 301 301 301 300 301 300 302 301 300 304 300 300 299 298 299 298 298 300 300 301 301 301 299 302 302 302 302 302 302 304 304 303 303 302 303 306 306 307 309 309 309 309 310
305 302 300 303 302 301 301 302 302 300 300 300 300 301 298 301 298 298 298 297 297 297 297 298 299 299 300 298 300 301 300 301 301 302 302 302 302 301 301 302 301 302 302 304 306 306 305 306 306
303 302 301 302 303 302 301 300 302 301 300 304 303 304 299 299 298 298 299 299 297 297 296 297 298 299 300 299 301 301 301 301 301 301 301 301 301 301 300 300 300 301 301 301 302 303 303 304 305
301 301 302 302 302 301 300 301 299 301 305 303 305 304 300 298 298 298 298 298 296 295 296 296 297 298 299 299 299 300 300 300 300 299 300 299 299 298 298 298 299 299 300 299 300 300 302 303 304
301 301 302 303 301 301 299 300 301 300 304 305 300 299 299 299 299 299 299 298 296 295 295 296 297 297 297 298 298 299 299 299 298 298 298 297 297 296 296 297 297 297 298 297 297 298 299 301 302
301 301 302 301 301 301 299 301 297 303 300 301 299 299 300 299 299 298 297 296 295 295 295 296 296 297 297 297 297 298 298 297 297 297 296 295 295 294 294 295 295 295 295 295 296 296 297 298 300
299 299 302 300 300 299 299 298 298 305 297 299 298 299 299 299 299 297 297 296 295 295 295 295 295 296 296 296 296 297 296 296 295 295 295 293 292 292 292 293 293 293 294 294 295 295 296 296 297
298 297 297 299 299 298 299 295 303 303 299 300 301 299 297 297 298 298 298 296 295 294 294 295 294 295 295 295 295 295 295 295 295 294 295 293 291 291 291 291 292 292 292 293 293 293 293 294 294
298 295 295 296 299 297 298 296 301 301 297 298 301 301 297 296 297 298 297 295 294 294 294 293 294 294 294 294 293 293 293 294 294 294 293 291 290 290 290 290 291 291 290 291 291 291 292 292 293
295 294 295 294 297 295 296 295 300 302 299 299 302 303 299 295 296 297 295 295 293 293 294 293 293 294 293 293 292 292 293 293 293 292 292 290 290 289 289 289 289 290 289 290 290 290 291 291 292
296 295 295 298 295 294 295 295 297 300 300 300 300 301 299 296 298 297 295 293 292 292 292 292 292 292 292 292 291 291 291 291 291 291 289 289 288 288 288 288 288 289 288 288 288 289 289 290 290
295 295 295 297 293 292 293 292 296 297 298 300 300 302 301 297 296 295 293 291 291 291 291 291 291 292 291 291 290 290 289 290 289 290 289 289 287 287 286 286 287 287 287 287 288 288 288 288 290
294 294 295 293 292 291 289 291 292 295 295 297 298 299 300 297 295 293 291 290 290 290 291 291 291 291 290 290 288 287 287 287 287 288 288 288 287 286 286 286 286 286 287 286 286 287 286 284 287
292 296 293 291 290 289 290 285 293 294 294 296 299 298 296 295 295 293 291 289 289 290 292 291 290 289 289 289 287 287 286 286 287 286 286 286 286 285 285 285 285 285 286 285 286 285 285 285 283
294 291 291 289 289 286 290 285 291 288 290 295 299 300 298 298 295 293 291 290 290 291 291 290 290 289 288 288 287 287 285 286 286 284 284 285 285 285 284 284 284 284 285 285 285 284 284 285 283
290 290 288 286 286 283 289 287 289 291 293 295 299 298 297 296 296 295 293 291 289 290 290 290 289 287 287 287 287 286 285 284 283 283 282 283 283 283 283 283 283 283 283 283 284 284 283 283 283
290 291 287 287 284 284 286 284 289 294 296 296 299 301 297 296 295 293 290 289 288 289 289 289 288 286 286 286 286 285 284 283 282 281 281 281 281 281 282 282 281 282 282 282 282 282 282 282 282
289 292 288 283 284 286 282 282 291 295 297 298 295 295 293 294 294 292 291 289 289 288 288 288 288 286 285 285 284 283 282 281 281 280 280 279 279 280 280 280 280 280 280 280 281 281 281 281 281
287 286 292 289 279 282 288 292 295 294 293 293 293 294 294 294 292 291 291 290 288 288 288 288 287 286 284 283 283 281 280 279 279 278 278 278 279 278 278 278 278 278 279 279 279 279 279 280 280
287 290 285 287 282 281 286 288 288 292 293 293 292 293 296 295 293 291 290 289 289 288 289 288 288 286 284 282 281 280 279 278 277 277 276 277 277 277 276 276 276 276 277 277 277 277 278 278 279
285 286 285 286 286 283 282 286 291 292 295 294 295 297 298 296 294 292 290 290 289 289 288 288 287 284 282 281 279 278 277 276 276 275 276 276 275 275 275 275 274 274 274 275 275 275 275 275 275
290 289 289 284 283 284 285 286 294 295 296 295 296 296 297 296 297 294 291 289 288 287 287 286 285 282 281 279 278 276 276 275 274 275 275 274 274 274 273 273 272 272 272 273 272 272 272 272 272

GFSSGP_sfc_thetae_003.txt.gz
Theta_e
331 328 328 323 308 305 301 301 306 304 304 309 311 309 307 309 307 303 315 316 320 324 327 331 333 334 335 335 338 340 341 342 342 343 343 343 342 343 343 342 343 345 346 346 347 347 348 347 347
325 323 324 318 304 300 301 305 302 305 307 309 308 307 306 306 311 311 312 312 319 321 325 326 330 328 329 331 333 333 334 335 337 339 339 339 338 339 339 341 340 341 342 343 345 346 346 346 346
323 322 317 310 304 299 300 304 305 307 307 307 306 308 308 308 310 314 312 312 318 320 322 323 326 325 325 326 327 326 327 330 329 330 333 333 330 330 332 333 333 334 335 337 339 340 340 340 342
320 317 312 303 301 304 303 305 306 305 306 307 308 305 307 311 311 315 310 310 315 318 319 320 322 322 322 321 321 321 321 322 323 326 324 323 322 323 324 325 326 326 328 330 333 334 333 333 336
317 315 305 302 302 304 305 306 307 305 306 306 306 304 305 307 310 310 307 307 309 314 316 316 317 318 318 318 318 318 317 317 317 318 317 317 317 318 318 319 319 320 321 322 326 328 327 327 329
311 311 302 300 302 304 305 307 306 306 307 306 304 305 307 309 307 307 307 306 306 307 311 312 312 314 314 314 313 314 314 313 313 312 313 313 312 313 313 314 315 316 316 316 319 318 318 320 322
310 308 303 303 302 303 305 307 305 306 307 305 307 304 306 305 308 306 306 305 305 306 306 307 308 309 310 309 309 310 310 310 310 309 308 308 308 308 309 309 312 313 314 314 315 315 315 315 315
310 307 303 303 301 302 305 305 306 306 306 307 308 304 306 307 308 305 305 304 304 304 304 304 305 305 306 306 306 307 307 307 306 305 304 303 305 305 305 305 307 310 310 311 311 312 312 312 312
313 303 302 302 301 303 305 303 305 305 306 305 306 307 305 308 305 303 302 302 303 302 302 303 304 304 304 304 302 304 304 303 301 303 302 306 305 304 304 303 304 306 306 308 309 309 309 309 312
308 304 303 306 306 304 305 304 306 302 303 304 305 307 303 305 302 301 301 300 301 300 301 302 302 303 303 300 303 303 302 303 303 304 304 303 304 302 302 304 304 304 303 305 306 307 307 309 305
308 303 306 306 306 305 304 304 306 303 302 306 306 307 304 303 301 301 302 303 302 302 301 300 301 302 302 301 303 303 303 303 303 303 303 303 303 302 302 302 302 303 304 301 302 302 302 303 304
303 307 306 306 305 304 303 306 303 304 306 307 309 310 306 302 301 301 303 303 303 302 301 300 301 301 302 302 302 302 302 302 302 301 300 301 301 300 300 300 300 302 301 300 300 301 302 302 303
304 306 305 306 305 304 305 302 303 305 309 310 308 304 306 303 303 304 304 305 304 301 300 299 300 300 301 301 301 301 301 301 300 300 299 299 298 298 298 298 298 298 298 297 297 299 299 300 301
305 304 305 306 305 304 301 303 302 306 308 308 308 305 304 304 304 305 304 303 303 301 299 299 299 300 300 300 300 300 300 299 299 299 297 296 297 296 295 296 296 296 296 296 296 296 297 298 299
303 300 304 305 304 302 302 299 300 306 306 304 305 305 305 305 305 304 305 303 303 301 300 299 299 299 298 299 299 299 299 298 297 297 296 295 294 294 294 294 294 295 295 294 295 295 296 296 297
300 301 297 304 303 302 301 295 303 307 305 303 305 306 305 305 304 305 305 303 303 300 299 299 297 298 298 298 298 297 297 296 296 295 295 294 293 293 293 292 292 293 293 293 293 293 293 294 294
301 296 298 301 303 301 299 297 303 306 304 303 304 305 306 305 304 305 305 304 302 300 298 297 297 296 297 297 296 296 296 295 295 294 294 293 292 291 291 291 292 292 292 292 292 292 292 292 293
296 296 298 298 301 299 298 297 301 304 303 303 304 305 305 306 305 303 304 304 302 300 298 297 296 296 296 296 295 294 294 294 293 293 292 291 291 290 290 290 291 291 290 290 291 290 292 291 292
299 297 296 299 302 298 297 297 300 303 303 303 303 304 304 305 308 304 304 303 301 299 297 296 295 295 295 294 292 292 291 293 292 292 291 291 290 290 289 289 289 290 289 290 290 290 289 291 292
298 295 295 300 302 295 296 296 300 301 302 302 302 303 304 305 305 302 302 301 299 296 296 296 295 294 294 294 294 293 293 292 292 292 291 291 290 289 288 288 288 288 288 288 289 289 288 290 291
296 294 296 296 300 297 295 293 297 300 301 301 301 302 303 303 303 301 299 298 298 295 295 295 295 294 294 293 292 290 290 289 289 290 290 290 289 289 288 287 287 287 288 287 288 288 287 285 288
293 299 298 296 294 290 295 286 295 298 299 299 299 302 304 302 301 301 298 297 296 295 296 295 294 294 293 292 290 289 288 288 290 291 290 289 289 288 287 287 287 286 287 287 287 287 286 286 284
295 295 295 295 293 293 292 289 293 294 294 296 299 302 305 303 301 299 298 296 296 295 295 295 294 293 292 291 290 290 290 290 290 288 287 288 288 288 287 286 286 285 286 286 286 285 285 285 284
294 293 292 291 291 285 291 291 291 294 295 297 300 302 304 302 300 299 299 297 295 295 294 294 292 292 291 290 290 289 289 288 287 286 286 286 287 286 286 285 285 284 284 284 284 284 284 284 284
293 292 287 287 286 285 294 290 293 298 298 299 299 301 303 301 300 299 297 295 295 294 293 293 292 290 291 289 289 289 289 288 287 286 285 285 284 284 284 284 283 283 283 283 282 282 282 283 282
291 293 289 284 284 287 288 286 292 300 301 301 301 301 301 300 300 299 298 296 294 293 292 292 291 290 289 289 288 288 288 287 286 285 284 283 283 283 283 282 281 281 281 281 281 281 281 282 282
292 287 295 290 289 285 289 293 299 301 298 298 298 298 299 298 299 298 298 296 295 293 291 291 291 290 289 288 288 287 286 285 284 283 283 282 282 281 281 280 279 279 279 279 279 279 279 280 280
291 293 288 289 283 281 286 289 290 295 296 297 297 298 300 300 299 299 298 296 295 293 291 291 291 289 289 287 287 285 284 284 283 282 280 280 280 280 279 278 278 278 277 277 277 277 278 278 279
287 287 288 288 289 284 282 287 295 296 297 297 299 300 301 301 300 299 297 296 295 293 291 291 290 289 288 286 286 284 283 282 281 279 279 279 279 278 277 276 276 275 275 275 275 275 275 275 275
293 291 291 285 284 287 286 287 297 297 298 298 298 300 302 303 302 302 299 296 294 292 291 290 289 289 288 286 284 282 281 279 278 277 278 278 276 276 275 275 274 273 273 273 273 272 273 272 272

GFSSGP_sfc_thetae_006.txt.gz
Theta_e
330 328 325 320 304 300 296 298 301 301 300 303 306 304 301 304 304 299 313 316 322 322 329 329 333 335 336 337 339 339 340 341 342 344 343 342 343 343 343 342 342 342 344 346 346 347 347 346 347
323 323 320 314 300 296 296 300 298 301 303 304 304 304 301 301 309 307 307 314 320 321 324 325 331 330 332 334 334 335 336 337 338 338 339 337 335 335 336 337 336 337 338 340 341 342 340 340 342
322 321 313 307 301 295 294 298 300 302 303 302 300 302 302 303 308 308 309 314 318 318 321 323 328 327 328 329 328 329 331 331 332 334 331 330 331 331 331 331 330 330 332 334 336 336 335 334 336
317 313 309 297 296 298 297 299 302 301 300 302 301 297 302 305 307 309 309 313 314 316 318 322 325 324 324 324 324 324 324 325 327 325 324 322 323 323 322 322 322 322 323 325 330 330 329 329 330
314 311 301 298 298 297 300 302 302 301 301 301 300 298 300 304 308 306 305 310 312 312 314 315 321 321 321 321 321 320 319 319 320 319 318 317 317 317 317 317 318 318 318 319 321 320 320 320 322
307 306 297 295 298 300 300 301 301 301 302 300 299 298 300 305 304 303 303 303 308 310 312 312 316 318 317 317 317 317 316 316 315 314 314 314 314 314 314 315 316 316 316 316 317 316 316 317 317
305 304 299 299 298 299 301 303 299 300 301 300 301 297 298 301 304 304 301 300 302 304 307 307 307 310 313 312 312 314 313 313 311 310 310 310 309 309 310 310 313 313 313 314 315 315 315 315 314
305 302 297 298 297 298 301 301 300 300 300 303 304 297 298 301 304 302 301 299 299 300 301 302 303 305 304 303 309 310 310 309 307 307 305 304 308 307 307 305 308 310 310 311 312 312 312 312 312
311 297 296 299 298 298 301 298 301 299 297 299 303 299 299 304 302 299 297 298 298 299 299 300 300 300 302 302 304 306 306 305 305 305 305 307 301 300 301 305 306 307 308 309 309 310 310 309 309
303 300 300 301 300 298 300 300 300 297 297 298 299 301 301 302 298 297 296 296 296 296 297 298 299 299 300 300 299 299 300 300 300 300 300 300 299 298 301 304 306 305 305 306 306 307 306 304 300
304 299 302 301 302 302 300 300 301 298 297 300 299 301 299 299 297 297 297 297 297 296 297 297 298 298 297 296 299 298 299 298 298 298 298 299 299 297 297 296 296 297 301 297 298 298 298 297 298
299 304 304 305 303 301 298 301 299 299 300 302 300 301 299 299 297 298 298 299 298 298 297 296 297 297 297 298 298 298 297 297 297 296 296 296 295 294 294 294 294 294 294 293 293 294 295 295 297
301 302 304 304 302 300 302 299 299 299 302 304 304 302 300 299 299 299 300 300 299 298 297 295 295 296 298 296 296 297 295 296 296 296 294 294 294 292 293 292 292 292 292 291 291 292 293 293 295
302 302 301 302 302 302 299 298 299 300 303 303 303 300 299 300 300 299 299 300 300 299 297 296 295 296 297 296 295 296 295 295 295 294 293 293 292 290 291 291 291 291 291 290 291 291 291 292 293
301 296 299 300 301 299 299 295 296 301 301 300 301 301 301 300 301 301 301 300 301 300 297 295 295 296 295 295 295 295 294 295 293 293 293 291 291 290 289 289 289 290 290 289 289 290 290 290 292
295 296 291 298 300 298 297 290 299 302 300 300 298 298 300 301 301 301 301 301 300 298 296 295 297 295 294 294 294 294 292 292 292 292 291 291 291 290 288 288 288 289 289 288 288 288 288 288 289
295 290 292 296 300 297 295 292 298 298 297 297 297 298 299 300 301 301 300 299 299 297 295 294 293 293 293 293 293 292 292 291 291 290 290 290 290 290 288 287 287 288 287 287 288 287 287 286 287
289 290 293 292 296 296 293 293 297 298 298 297 299 300 300 300 300 301 300 299 299 296 294 294 293 292 293 292 290 290 290 290 289 288 289 289 289 289 287 287 287 287 286 286 287 286 286 286 287
295 293 292 296 298 294 293 294 296 298 298 298 299 300 300 299 300 301 301 298 297 295 293 293 292 291 292 290 288 287 288 288 287 289 289 289 288 288 286 285 285 285 285 285 286 286 285 285 286
293 291 291 295 297 293 292 293 296 297 298 299 299 299 300 297 298 297 297 297 296 294 293 292 292 292 292 291 289 288 288 288 287 288 288 288 288 287 286 285 284 284 283 284 284 285 284 284 285
292 290 290 291 293 292 289 288 291 295 298 298 299 300 298 297 297 295 295 295 294 293 292 292 292 292 292 290 289 287 286 286 285 285 286 287 287 286 286 284 284 283 283 283 283 283 283 281 283
289 294 293 292 288 284 290 284 289 291 293 295 296 298 296 296 297 296 294 294 293 293 292 292 292 291 291 290 288 286 284 282 284 285 286 286 286 285 285 285 284 283 283 282 283 284 282 281 280
291 292 290 290 287 286 286 283 287 292 290 292 295 298 298 297 296 295 294 295 294 292 292 292 291 291 290 289 288 286 283 284 285 284 284 283 284 284 283 284 283 282 282 282 282 282 281 281 280
292 289 288 286 285 280 285 285 284 288 291 292 294 296 296 296 294 294 294 293 293 292 291 291 290 290 290 288 287 286 285 284 283 282 282 282 282 282 282 283 281 281 281 280 281 281 281 280 280
289 286 280 278 277 281 287 284 289 291 293 294 294 295 294 296 293 293 292 291 291 290 290 290 290 289 289 287 286 286 285 284 283 283 282 281 280 280 280 280 280 279 279 280 280 279 279 279 279
287 288 281 274 278 282 282 280 287 294 296 295 296 295 295 294 294 293 292 291 291 290 290 290 289 288 288 287 286 286 285 286 284 283 282 280 279 279 280 279 278 278 279 278 278 278 278 278 279
287 284 289 282 276 277 284 287 291 293 293 293 292 292 292 293 293 294 293 291 290 290 290 289 289 289 288 287 286 285 285 283 283 281 280 279 278 279 278 278 277 277 277 277 277 277 277 277 278
286 288 282 282 272 271 282 283 286 291 293 291 291 291 292 293 293 293 293 292 291 291 290 289 289 288 287 286 285 285 284 282 280 279 278 278 277 277 276 276 276 276 276 276 275 276 276 276 276
283 283 285 285 284 275 277 283 288 290 291 292 291 292 293 294 293 292 292 292 291 290 289 288 288 287 286 285 284 283 281 280 279 278 277 277 277 276 276 275 275 275 275 275 274 274 274 274 274
288 287 288 282 280 280 283 284 293 292 291 292 292 294 294 295 295 294 293 291 290 290 288 288 287 287 286 284 283 281 280 279 278 277 276 276 275 275 275 274 274 274 273 273 273 272 273 272 272

GFSSGP_sfc_thetae_009.txt.gz
Theta_e
324 325 318 313 299 294 290 295 295 297 296 298 302 301 300 301 301 296 312 319 322 326 329 332 338 338 339 340 341 343 343 344 345 344 342 341 341 340 341 339 338 339 341 342 344 343 341 341 343
319 320 314 306 294 289 291 294 295 297 299 300 302 301 300 298 305 307 307 317 320 323 324 327 335 336 337 336 337 338 338 338 338 339 338 335 334 335 335 335 334 335 336 338 339 338 336 336 338
317 317 306 300 293 290 290 294 296 298 299 298 298 299 299 301 304 306 308 316 317 319 321 326 332 333 334 333 333 335 334 334 335 333 332 332 330 329 328 327 326 326 328 333 334 332 331 331 332
311 307 302 292 291 293 292 294 298 298 297 298 299 295 299 304 307 306 310 315 314 316 319 327 329 329 329 328 329 330 329 332 327 325 325 325 323 323 321 321 320 321 321 324 324 322 322 321 323
307 303 295 291 292 294 294 299 298 297 297 297 298 295 297 302 304 307 310 313 311 312 315 320 327 326 326 325 325 324 324 325 322 321 320 319 318 318 318 318 318 318 318 319 319 319 318 318 318
300 299 291 289 293 295 295 299 299 297 297 297 296 294 297 302 302 302 305 309 310 310 312 315 322 324 323 322 322 321 320 319 318 318 316 316 315 315 315 316 316 316 316 316 317 316 316 316 316
301 297 293 292 294 295 296 297 296 297 297 297 299 296 295 298 300 300 300 303 307 309 308 308 310 315 319 320 319 318 317 316 315 314 313 312 311 311 310 312 313 314 314 314 315 314 314 314 315
300 296 291 290 293 294 297 297 298 297 298 299 301 296 295 298 301 299 297 297 301 303 305 304 304 305 304 307 316 316 314 312 310 310 309 309 309 309 307 307 310 311 312 312 312 312 312 310 310
303 292 290 293 294 294 296 295 297 298 296 297 301 298 299 301 300 297 294 294 296 299 300 301 301 301 301 302 308 312 311 309 308 307 308 306 298 299 301 306 308 308 308 308 309 308 307 306 305
299 293 295 298 295 294 297 296 297 295 295 295 297 296 300 299 298 296 293 294 293 295 296 299 298 299 299 302 301 299 301 299 300 299 298 299 297 299 301 304 304 304 303 304 305 305 303 300 297
298 294 298 298 299 298 297 295 298 296 294 296 297 297 298 296 296 296 296 295 295 295 295 297 297 297 297 297 297 296 296 296 297 296 297 297 296 295 295 294 294 294 297 293 294 294 294 294 294
296 300 301 302 300 298 296 298 297 296 299 301 300 299 298 296 296 296 295 295 294 294 295 295 296 296 295 296 297 296 296 295 295 295 296 295 293 292 292 292 291 291 291 290 290 291 292 292 293
297 298 301 301 300 299 299 297 296 296 299 300 301 300 297 297 297 297 297 297 296 295 295 295 295 295 295 296 296 295 295 295 294 293 294 294 292 290 291 290 290 289 289 289 289 290 290 291 292
297 299 298 299 299 299 297 295 297 297 299 299 300 299 297 298 297 296 295 296 297 297 296 295 295 295 296 294 294 294 294 294 294 291 291 292 291 289 290 289 289 288 288 288 288 288 288 289 290
298 295 295 297 297 297 298 294 294 301 297 298 298 298 298 297 297 297 298 297 298 298 297 294 295 295 296 294 294 294 293 293 292 291 291 291 290 289 288 288 288 287 288 288 288 288 288 288 289
292 291 288 294 296 297 296 290 296 299 296 296 298 296 296 297 299 300 300 299 299 297 295 295 296 295 294 293 293 293 292 291 291 290 290 290 290 289 287 287 287 287 287 286 286 286 286 286 286
289 285 287 292 297 295 293 291 296 297 295 296 294 295 297 299 297 300 299 299 298 298 295 294 294 293 294 292 292 291 290 290 290 289 289 289 289 288 287 286 286 287 286 286 286 286 285 284 285
285 286 289 289 292 292 290 292 296 296 294 294 294 294 294 297 300 299 299 300 299 298 295 294 294 293 293 292 290 289 289 288 288 287 288 288 288 288 286 285 286 286 285 285 285 284 285 284 285
289 287 286 292 295 293 293 293 295 297 295 294 295 297 299 299 299 297 299 299 298 294 293 292 292 292 293 291 289 288 288 286 286 286 288 287 287 287 286 285 285 285 284 284 285 284 284 284 284
291 289 288 292 293 291 291 291 295 294 296 297 297 297 299 299 296 296 295 295 295 293 293 292 292 292 292 292 291 288 288 285 286 287 287 287 287 286 286 285 284 284 283 283 283 283 282 283 283
291 288 289 288 291 290 288 287 290 294 295 297 299 299 299 299 295 293 293 294 294 292 291 292 292 292 292 291 289 286 286 285 284 285 285 286 286 286 285 284 283 283 283 282 282 282 282 281 281
288 292 291 289 285 284 286 282 287 291 292 293 296 297 297 293 294 293 293 291 293 292 292 292 291 291 291 289 289 286 287 286 286 287 286 285 286 285 284 284 283 282 282 282 281 283 281 281 279
290 290 289 287 285 283 285 282 285 289 289 292 295 296 296 294 293 293 293 295 293 292 291 291 290 290 290 290 289 287 286 286 283 283 284 284 283 284 283 283 282 281 281 281 281 281 280 280 280
291 287 286 284 282 279 283 283 284 285 289 291 294 295 297 296 294 294 294 293 291 290 290 290 289 290 290 289 289 287 286 283 282 283 284 283 283 282 282 282 281 280 280 280 280 280 280 279 279
287 284 278 276 275 279 285 282 288 289 291 293 294 295 296 293 293 291 291 291 290 288 289 289 289 288 289 289 287 287 286 284 283 283 284 282 282 280 280 280 280 279 279 280 279 279 278 278 278
285 286 278 272 277 281 281 278 285 292 294 293 294 296 292 292 292 291 291 291 290 290 288 289 288 288 288 288 287 287 285 285 285 284 284 283 283 281 280 279 279 278 278 278 278 277 277 278 278
285 283 288 280 270 274 283 285 288 291 291 292 292 289 291 292 291 291 290 290 289 289 289 289 289 289 288 287 287 286 285 285 284 283 283 282 281 280 279 279 277 277 277 277 277 276 276 277 278
286 287 281 280 272 270 281 279 285 289 292 294 290 290 290 291 291 291 290 290 289 290 290 289 289 289 288 287 287 286 285 285 284 282 281 280 279 279 278 277 276 276 276 276 276 276 276 276 276
283 283 284 284 280 279 278 282 287 287 289 290 289 290 290 291 291 292 292 292 291 290 289 288 288 287 287 286 286 285 284 283 282 282 280 279 278 277 277 276 276 276 275 275 274 274 274 274 274
287 286 286 282 279 279 282 283 295 290 290 290 290 291 289 292 293 292 291 291 289 289 288 288 288 287 287 286 284 284 282 281 281 280 278 277 277 276 276 276 275 275 274 274 274 273 273 273 272

GFSSGP_sfc_thetae_012.txt.gz
Theta_e
323 318 317 311 297 293 289 294 294 295 295 297 300 299 299 300 300 295 311 321 326 328 332 336 342 342 343 345 345 345 345 345 345 342 341 341 340 340 339 337 338 339 341 342 342 340 337 338 340
317 317 312 303 294 288 290 294 295 296 298 299 299 299 297 298 304 307 311 321 325 326 327 331 339 340 340 339 339 340 339 339 338 340 337 337 335 335 335 333 333 334 336 338 338 335 334 333 334
315 314 306 298 291 289 289 293 294 296 297 297 296 298 299 300 303 307 309 318 322 321 323 328 337 338 338 337 338 338 336 336 336 334 334 333 332 330 328 326 325 325 329 331 328 326 325 325 327
309 305 299 293 291 294 293 294 296 296 296 297 297 297 298 303 305 308 311 317 317 318 321 329 335 336 335 335 336 335 336 334 331 330 329 327 325 323 322 322 321 321 323 322 322 321 320 320 320
305 301 294 290 290 292 294 296 297 296 295 296 297 294 296 301 305 307 313 315 315 315 318 323 333 331 331 332 332 331 333 327 326 324 323 321 320 320 320 319 319 319 319 319 319 318 317 317 317
299 297 290 288 290 295 294 297 296 296 295 295 295 293 297 300 303 307 310 310 313 313 315 319 326 329 328 328 327 327 327 324 322 320 320 319 318 318 318 317 317 317 317 317 317 316 316 316 316
298 295 291 290 293 294 295 297 295 296 295 296 296 295 296 297 301 303 307 308 309 310 311 312 315 321 325 326 324 323 322 321 320 318 317 316 315 313 315 314 315 316 316 316 315 314 312 313 313
299 294 290 289 290 293 295 296 296 296 297 297 300 295 295 298 300 299 302 304 306 306 307 307 308 310 310 314 322 321 320 318 317 315 315 314 312 310 311 311 312 314 314 313 312 310 309 308 309
300 290 288 290 292 293 295 294 296 296 295 296 300 297 297 299 298 295 294 297 301 304 304 304 304 303 304 306 312 317 317 316 315 313 312 306 299 300 302 309 310 310 309 309 309 307 305 303 304
297 289 291 295 295 293 295 295 295 293 294 294 296 296 298 299 297 295 293 294 299 300 300 302 301 300 300 305 305 303 304 302 300 300 300 297 296 297 301 305 306 304 304 304 305 303 301 297 294
297 292 296 298 298 297 296 294 297 294 293 295 296 297 297 295 296 296 295 295 297 299 299 301 300 299 298 300 299 297 297 296 297 296 296 296 296 296 294 293 292 292 295 291 293 292 292 291 292
294 298 298 300 300 297 295 296 295 295 300 299 298 297 296 295 296 296 295 295 293 294 296 298 298 298 296 295 297 295 295 294 294 294 296 293 292 291 291 291 290 289 289 288 289 289 290 290 291
296 297 299 300 299 297 298 296 295 295 298 298 299 297 296 297 297 297 298 297 294 293 295 296 296 297 297 294 295 294 294 295 294 293 295 293 291 290 290 289 289 288 288 288 287 288 289 289 290
295 297 297 297 298 297 297 295 296 300 297 298 298 297 295 297 297 296 294 295 294 295 295 295 296 296 296 294 294 295 294 294 293 291 292 292 290 289 289 288 288 287 287 287 287 287 287 287 289
296 294 294 296 296 295 296 293 293 301 296 297 297 296 297 296 297 297 298 297 297 296 296 294 296 295 295 295 295 294 294 294 292 290 291 291 290 289 288 288 287 287 287 287 286 287 287 286 287
291 290 287 292 294 295 295 290 295 298 296 297 296 295 295 297 297 299 299 298 297 297 295 295 296 295 295 295 294 294 293 293 292 290 289 290 289 288 287 286 286 286 286 286 285 285 285 285 285
286 284 285 290 295 293 292 290 295 296 294 295 296 294 295 296 296 298 299 298 297 298 296 295 295 294 295 294 294 293 292 292 291 289 288 288 288 288 286 286 286 286 285 285 286 284 284 283 284
284 283 286 287 291 291 289 291 296 296 293 293 294 292 292 295 298 301 298 299 298 298 297 296 294 294 294 293 291 290 290 289 290 289 288 287 287 287 286 285 285 285 284 284 284 283 284 284 283
286 285 285 288 292 290 290 291 294 298 294 292 294 297 298 296 300 299 297 297 297 296 295 294 293 293 293 292 290 290 290 289 287 287 288 287 287 286 285 284 284 284 283 283 283 283 283 282 282
289 288 287 291 293 289 290 290 294 294 296 298 297 296 297 298 300 295 294 294 295 295 294 293 293 292 293 293 293 291 290 286 289 288 288 287 287 286 285 284 283 283 282 283 283 283 281 282 282
288 287 288 288 289 288 286 287 288 292 295 297 296 297 298 299 300 297 293 292 293 293 292 292 293 292 293 293 290 285 285 284 284 285 285 286 286 285 285 284 283 282 282 281 281 281 281 280 280
287 291 290 287 284 283 285 282 285 289 291 293 294 297 297 298 299 297 292 291 291 293 292 292 292 292 292 291 289 288 289 287 288 287 285 284 285 285 284 283 283 282 282 281 281 282 281 280 279
290 289 288 286 283 282 281 281 285 288 287 291 294 295 296 298 294 293 292 294 293 291 291 291 291 292 291 290 290 289 288 289 284 283 284 284 284 284 283 283 282 281 281 281 281 280 280 280 279
289 287 285 283 282 279 283 283 283 284 288 290 294 295 296 298 296 293 292 291 289 288 290 290 289 290 289 289 289 288 288 284 283 284 284 283 283 283 282 282 281 280 280 280 280 280 280 280 279
287 285 278 275 274 278 284 280 288 289 290 291 293 294 295 296 291 291 291 290 288 287 288 289 289 289 288 288 288 288 288 285 285 284 285 283 283 282 282 281 280 280 280 280 280 279 279 279 278
286 286 281 273 278 282 281 279 285 291 293 293 293 294 292 291 292 292 290 291 290 289 288 289 288 288 288 288 288 288 287 286 286 284 285 284 284 283 282 281 280 279 279 279 279 278 278 278 278
283 282 288 281 273 273 282 285 289 288 290 291 291 290 290 290 291 291 289 289 288 287 288 288 288 289 288 288 288 287 287 286 286 284 284 284 283 282 280 280 279 279 278 278 277 277 277 277 278
286 287 281 280 275 274 280 279 285 287 290 289 289 289 289 290 289 290 290 289 288 288 288 288 289 289 288 287 287 287 286 285 285 281 282 282 281 281 279 279 279 278 277 277 276 276 276 276 276
283 283 283 283 282 280 278 282 288 287 287 288 288 290 290 289 291 291 291 291 289 288 287 288 288 288 287 286 287 286 285 284 284 282 282 280 280 280 279 279 278 277 276 276 275 275 275 275 275
286 286 287 282 281 280 282 283 294 294 294 293 294 291 291 291 292 292 291 292 290 289 288 288 288 287 288 287 286 285 284 283 283 282 281 280 280 279 279 278 277 276 276 275 275 274 274 273 273

GFSSGP_sfc_thetae_015.txt.gz
Theta_e
320 316 314 309 296 293 289 292 293 294 293 296 299 298 298 298 299 294 310 322 326 330 334 339 345 346 347 347 347 347 347 345 344 343 343 343 341 339 338 337 339 340 341 342 340 338 337 337 337
314 315 310 302 293 286 288 293 293 295 296 298 298 297 297 298 304 306 313 320 326 329 331 334 342 345 345 346 346 346 346 344 343 341 339 338 336 336 335 334 334 336 337 338 335 332 331 330 331
313 311 305 297 290 288 289 292 293 295 295 295 297 297 297 298 302 306 313 322 324 324 327 331 340 342 342 341 341 341 340 338 339 336 337 335 334 332 329 328 327 331 331 328 326 325 323 323 323
308 304 298 294 291 294 293 294 294 294 295 297 295 297 297 303 305 308 311 320 319 320 323 331 338 340 339 339 340 338 338 336 335 334 333 332 329 326 324 324 324 325 324 323 322 320 320 320 319
303 299 291 289 289 292 293 294 296 295 294 295 296 295 296 300 303 307 315 319 317 317 320 326 337 338 337 337 338 337 336 335 333 331 329 327 324 323 322 321 321 321 321 320 319 319 319 319 319
298 296 289 287 289 293 295 295 296 294 294 294 294 296 296 298 303 306 313 313 315 315 318 322 330 333 334 335 335 335 333 331 328 326 324 323 321 321 320 319 319 319 319 319 318 318 317 317 315
297 294 289 287 291 293 295 295 294 294 293 296 295 293 296 296 302 308 309 310 312 314 315 316 320 324 329 331 331 332 329 327 324 322 321 320 319 318 318 317 318 318 318 318 316 314 313 313 313
298 294 289 288 289 292 295 294 294 295 296 296 299 295 295 296 301 304 306 307 308 309 311 311 313 316 316 318 325 326 326 324 321 321 319 318 315 315 315 317 317 316 316 315 312 311 309 310 309
297 289 286 288 290 293 294 293 295 295 295 295 298 295 296 298 298 300 300 302 304 307 307 307 308 309 309 310 315 320 322 322 320 318 317 312 301 303 304 312 314 313 312 312 309 307 305 303 304
296 287 289 292 293 292 294 294 294 296 293 293 296 296 297 297 298 299 297 301 302 303 304 305 304 304 304 308 308 307 308 307 305 304 302 297 296 298 302 307 309 308 307 308 306 303 301 296 292
296 292 294 297 298 296 295 293 295 293 293 294 296 297 296 295 295 298 299 303 303 305 304 304 303 301 301 302 302 301 300 299 298 298 296 294 296 297 295 294 292 291 295 290 292 291 290 290 290
293 297 296 298 298 296 294 295 293 294 300 298 298 296 295 295 295 296 296 297 297 299 302 302 302 300 298 298 300 298 297 295 295 294 295 293 293 291 290 290 289 288 288 288 288 288 289 289 290
295 296 298 298 298 297 297 295 295 295 299 297 298 296 295 296 297 297 298 297 295 297 299 300 300 300 298 296 297 296 295 296 294 293 294 293 291 290 289 289 288 287 287 287 287 287 287 288 289
294 296 296 296 297 297 296 296 294 299 296 297 296 296 295 295 297 295 295 296 294 295 296 298 299 299 298 296 297 296 295 294 293 292 293 292 291 289 289 288 287 286 286 286 286 286 286 286 287
295 293 293 293 294 295 295 293 292 300 295 296 295 296 295 295 296 296 298 297 297 296 295 295 297 298 297 295 295 295 294 295 293 292 292 292 290 289 288 287 286 286 286 286 286 286 285 285 286
290 289 286 291 292 293 294 288 296 297 295 296 296 294 294 296 296 298 299 298 298 296 294 295 297 296 296 296 295 294 294 294 293 291 290 291 290 289 287 286 286 286 285 285 285 284 284 284 284
284 282 284 288 293 292 291 289 295 295 293 294 294 295 295 295 295 296 298 299 298 297 296 294 295 295 295 295 294 294 293 293 293 290 289 289 289 288 287 286 285 285 285 284 285 283 283 282 283
283 282 284 284 289 289 288 289 294 296 293 293 294 295 297 297 298 300 297 298 298 297 297 295 295 295 295 295 293 291 291 292 291 290 289 288 288 287 286 285 285 285 284 284 283 283 283 283 282
285 284 284 288 291 288 289 290 293 296 296 295 293 296 297 298 301 300 296 296 295 294 295 295 293 294 294 292 290 291 291 290 290 290 289 288 287 287 285 284 284 284 283 283 283 283 282 282 281
288 287 286 290 292 287 288 288 291 292 294 297 297 297 297 297 298 299 293 293 294 295 295 294 294 293 294 294 294 292 293 289 291 289 288 287 287 286 285 284 283 283 282 282 282 282 281 281 281
286 285 287 286 288 287 285 286 288 290 293 295 296 297 298 298 298 299 293 292 292 292 293 294 294 293 294 294 292 286 285 284 284 285 287 287 286 286 285 284 283 283 282 281 281 281 281 280 280
286 289 289 287 283 281 285 280 284 288 290 291 294 295 295 296 297 297 294 291 291 293 292 293 293 292 293 293 291 290 290 288 288 289 288 287 286 285 284 284 283 282 282 281 281 281 280 280 279
288 288 286 283 281 281 281 278 283 286 287 289 293 294 296 295 295 296 293 293 293 291 290 291 291 291 292 292 291 291 290 291 287 285 284 285 284 284 284 283 282 281 281 281 281 280 280 280 279
288 286 284 281 281 277 283 282 284 284 288 288 291 293 294 296 295 293 291 291 290 288 288 289 290 290 291 291 290 290 290 286 285 284 285 285 284 283 283 283 281 281 281 280 280 280 280 280 279
287 283 277 275 274 277 282 280 287 290 289 290 294 293 292 292 291 292 290 290 288 286 287 288 289 289 289 289 289 289 289 287 286 285 286 284 283 283 282 282 281 281 281 280 280 280 279 279 279
284 284 279 271 277 282 281 278 288 290 291 290 289 291 290 291 290 290 291 289 288 287 286 288 287 288 288 288 289 289 289 288 287 285 286 285 285 285 283 282 281 280 280 280 280 279 279 278 279
282 281 286 281 276 275 283 285 291 288 288 287 289 289 290 288 289 290 289 289 288 286 285 286 287 288 288 288 288 288 288 287 286 284 285 285 285 284 282 282 281 280 280 279 279 278 278 277 278
286 286 280 278 274 273 279 281 284 288 291 290 288 289 291 289 290 291 290 289 288 287 286 286 286 288 288 287 288 288 287 287 286 283 284 284 284 283 281 281 281 280 279 279 278 277 277 277 277
282 282 282 282 281 279 278 282 293 291 289 288 288 289 290 291 292 291 292 291 289 288 287 286 286 287 287 287 287 287 286 286 285 283 284 284 283 282 281 281 280 280 278 278 277 277 276 276 276
286 285 285 281 280 282 282 283 295 295 292 288 292 296 295 291 291 291 292 293 292 290 288 287 287 287 288 288 287 286 286 285 284 284 283 283 282 282 281 281 280 280 279 277 277 276 276 275 275

GFSSGP_sfc_thetae_018.txt.gz
Theta_e
319 315 312 307 296 292 288 291 292 292 294 298 297 296 297 297 298 293 309 321 324 328 333 341 347 348 348 348 348 347 348 347 345 345 344 344 342 340 339 340 340 342 343 342 339 337 336 336 336
312 313 308 300 292 285 286 292 293 294 295 296 296 296 298 298 302 306 310 321 326 329 333 336 344 346 347 348 349 348 347 346 346 344 342 341 341 339 336 336 336 337 339 337 334 332 330 329 329
311 309 304 295 288 285 288 292 292 294 294 294 298 300 299 298 302 306 313 321 325 327 330 333 343 346 346 347 346 346 346 344 342 340 339 337 336 335 333 332 334 335 333 330 328 326 324 324 324
307 303 298 293 289 293 292 294 292 293 297 295 297 294 298 301 304 306 312 321 322 323 327 335 342 344 342 343 343 342 341 339 337 335 337 336 334 331 328 327 329 328 327 325 323 322 321 321 321
302 297 290 287 288 291 293 294 294 294 293 293 296 295 295 298 302 307 315 320 320 319 322 329 339 342 341 340 340 340 339 337 336 334 334 332 329 326 325 324 324 323 323 322 321 321 321 320 318
297 295 289 285 287 292 294 294 294 293 293 292 295 294 296 298 302 305 315 315 317 317 319 324 332 336 336 338 338 338 338 336 335 333 331 327 325 324 322 322 322 321 321 320 320 318 318 317 316
296 293 288 286 288 291 294 293 292 292 293 295 296 295 296 297 301 307 310 311 313 315 317 319 324 328 332 335 336 337 336 334 332 329 326 324 322 322 320 320 320 320 320 319 317 315 315 315 313
297 294 287 287 287 290 293 292 293 294 295 294 297 294 295 298 302 306 308 309 309 311 313 314 317 319 320 323 329 331 331 330 328 326 324 323 321 321 320 321 320 319 319 316 314 312 312 311 310
296 289 285 288 288 291 293 292 294 294 295 294 297 296 295 297 302 303 302 303 305 308 310 310 312 313 314 314 318 324 326 325 324 322 319 312 304 306 306 312 318 317 316 313 311 309 307 306 306
295 287 288 291 290 292 293 293 297 296 293 292 295 296 296 297 300 302 301 304 303 305 307 308 308 309 309 312 311 311 313 312 309 307 305 300 299 300 304 310 316 314 313 310 308 306 302 296 290
294 291 292 294 295 295 294 292 294 292 293 294 295 297 295 295 297 301 302 304 307 308 307 307 306 306 306 307 306 305 304 303 302 301 298 296 296 299 298 297 295 294 297 293 293 290 289 289 289
293 296 295 296 296 295 294 294 292 294 300 297 298 297 295 295 295 298 300 302 303 303 306 305 304 304 303 303 305 303 302 299 298 297 295 293 293 293 293 290 289 288 288 287 288 288 288 288 289
293 295 297 297 297 297 296 296 294 294 299 297 296 296 295 295 295 297 299 300 300 301 303 303 304 304 303 301 301 300 300 299 297 295 294 293 293 291 290 288 287 286 287 287 286 287 287 287 287
293 294 295 295 296 296 295 297 293 297 296 297 295 295 294 294 296 295 294 296 295 299 302 303 302 304 302 301 300 301 299 296 295 293 294 292 292 289 289 288 287 286 286 286 286 286 285 286 286
293 292 291 292 293 293 294 292 290 299 294 295 295 294 295 294 294 296 299 298 298 297 298 300 302 303 301 301 299 299 298 295 294 293 292 291 291 289 288 287 286 285 285 286 285 285 285 284 285
287 288 285 289 291 291 293 286 296 294 291 294 294 294 294 295 295 297 298 298 298 298 295 297 301 301 300 300 297 298 296 295 294 292 292 292 290 289 287 287 286 285 285 285 284 284 283 283 283
283 282 283 287 292 291 290 287 293 293 292 293 294 294 296 298 297 295 297 298 298 298 297 295 297 299 299 299 296 295 294 294 294 291 291 291 290 289 288 287 285 285 284 284 284 283 282 282 282
282 280 283 283 288 288 287 288 292 295 291 294 296 297 297 297 299 302 297 296 297 297 298 296 295 297 297 297 294 291 290 292 291 291 291 290 290 288 287 286 285 284 283 283 283 282 282 282 281
284 283 282 286 290 286 288 289 291 294 294 295 296 296 297 297 300 301 296 294 294 294 294 294 293 295 295 294 292 291 292 291 291 291 291 290 289 288 287 286 284 284 283 283 282 282 282 281 281
286 285 285 288 291 286 287 287 290 292 293 295 296 297 297 297 298 298 294 292 292 293 294 294 294 293 294 295 294 292 294 291 292 291 289 289 288 287 287 285 284 284 282 282 282 282 281 281 280
284 283 285 285 286 286 284 285 286 290 291 295 296 296 295 295 296 298 294 292 291 291 292 294 294 293 294 294 293 285 286 285 285 286 287 287 287 286 286 285 284 283 283 282 281 281 281 280 280
285 288 287 286 282 279 284 279 284 289 289 289 291 293 293 294 295 294 294 291 291 292 292 293 293 292 293 293 292 291 291 290 290 291 290 288 287 286 285 285 284 284 283 281 281 281 281 281 279
286 287 285 282 280 279 279 278 282 285 286 289 291 291 292 292 292 293 292 292 293 291 290 290 291 291 292 293 293 292 292 292 288 289 288 287 286 286 285 284 283 283 282 281 281 280 280 280 280
287 285 283 281 280 276 281 281 281 284 286 287 291 292 292 292 292 292 290 291 290 288 288 288 289 289 291 291 291 291 292 287 287 286 287 286 285 284 284 284 283 283 282 281 281 281 280 280 279
287 282 277 274 273 276 280 279 285 288 289 290 292 291 292 290 290 289 290 289 289 286 286 286 287 287 288 289 290 290 290 286 288 286 287 285 284 284 284 283 282 282 282 281 281 281 280 280 279
284 285 279 273 273 281 280 279 288 290 291 290 288 289 289 288 288 289 290 289 288 287 285 286 286 286 287 287 288 288 288 288 288 286 287 286 286 286 285 283 283 282 281 281 281 280 280 279 279
282 282 286 281 281 276 283 285 291 291 286 287 287 288 289 289 289 290 291 290 289 287 285 286 286 286 287 287 287 287 287 287 287 284 285 286 286 286 283 283 282 281 281 281 280 280 279 279 279
285 287 282 281 275 274 279 280 284 288 291 292 289 287 289 290 292 293 291 291 289 288 287 285 286 286 287 286 287 288 288 288 287 283 284 284 285 284 282 283 282 281 281 280 280 279 279 278 278
281 281 282 282 282 278 277 281 292 291 288 287 287 289 289 291 293 290 290 291 290 289 287 286 285 285 285 285 286 286 287 286 285 284 284 285 284 283 282 283 282 281 280 280 280 279 278 278 277
285 287 286 282 280 280 282 282 294 294 294 292 291 290 288 288 288 289 289 289 289 289 290 290 288 286 285 286 285 284 285 283 283 284 284 284 284 283 283 283 282 281 281 280 279 278 278 277 276

GFSSGP_sfc_thetae_021.txt.gz
Theta_e
320 317 315 311 300 297 293 295 298 298 299 301 301 301 302 303 302 299 314 325 327 331 337 346 348 350 350 350 349 349 348 348 348 347 346 343 342 342 342 342 343 344 344 341 339 336 336 336 335
315 315 311 304 296 290 290 296 297 299 301 302 301 302 302 302 306 310 317 322 328 332 338 344 345 349 350 349 349 348 349 349 346 346 346 343 340 337 338 339 339 339 339 336 334 333 331 330 329
314 311 307 299 292 289 291 296 298 299 300 302 301 303 303 304 307 311 317 325 329 333 338 341 344 347 348 349 349 349 349 348 346 344 342 339 338 336 335 336 337 336 335 333 330 327 326 325 324
309 306 301 297 293 295 295 299 297 299 300 300 301 300 302 306 309 311 318 324 329 332 336 339 344 346 348 348 348 348 348 346 344 340 339 339 336 334 332 332 335 333 330 328 325 323 323 322 322
304 300 294 292 291 295 296 298 298 298 299 300 301 300 300 306 307 311 319 324 328 330 333 338 342 345 346 345 344 344 342 342 339 336 338 337 334 331 328 329 329 327 325 323 322 322 321 319 319
300 298 292 289 290 294 296 298 298 298 299 299 299 300 301 304 306 310 319 323 326 328 328 333 335 339 339 341 343 343 342 341 337 335 335 334 330 328 326 326 325 324 322 322 322 320 319 318 317
298 295 291 291 291 293 297 297 297 298 298 299 301 300 303 302 305 311 318 320 322 324 325 328 333 335 333 336 337 336 339 339 336 334 334 331 327 325 324 323 323 323 322 321 319 318 318 316 314
299 297 292 291 291 292 297 297 298 298 299 300 301 299 300 305 306 311 315 317 318 320 322 324 327 330 332 334 331 333 335 335 334 333 329 326 325 325 324 323 323 322 321 318 317 316 315 313 311
300 292 288 291 290 293 296 296 298 298 298 298 300 300 302 301 306 309 311 312 313 314 317 320 323 325 326 328 328 329 330 330 329 326 323 320 317 318 317 318 323 321 318 316 314 313 311 309 307
297 290 291 293 292 294 296 296 298 298 297 296 298 300 300 301 305 307 308 311 311 313 314 316 319 320 320 320 324 326 324 325 322 319 316 312 311 311 311 316 319 319 316 313 311 308 303 297 296
296 293 294 295 294 296 296 295 297 296 296 297 298 300 299 298 301 305 307 310 312 314 314 313 315 317 317 318 317 318 318 317 315 313 309 307 306 309 309 309 307 307 305 304 302 297 296 296 296
294 297 296 298 298 297 296 296 295 296 302 302 300 301 299 298 298 302 305 307 308 309 312 312 312 313 314 314 315 314 314 312 310 309 306 304 303 305 304 303 302 301 299 297 295 295 295 295 294
295 296 297 298 297 297 297 297 296 296 300 300 299 297 298 298 299 300 304 306 307 306 310 311 311 312 312 310 312 311 311 310 309 306 303 301 301 302 300 299 296 295 294 294 294 294 294 294 293
295 295 295 295 296 296 296 297 295 297 298 298 297 298 297 296 298 298 298 301 302 306 307 309 309 311 310 310 310 310 309 308 305 304 302 299 300 300 299 295 293 293 293 293 293 293 293 293 293
294 292 292 292 293 294 294 293 291 299 296 297 297 296 295 297 297 298 301 300 301 303 305 306 308 310 309 309 308 309 308 304 304 303 300 298 298 297 297 294 292 292 292 292 292 291 291 291 291
289 289 286 290 292 292 294 288 295 295 293 295 295 296 296 297 297 299 300 300 301 301 300 304 306 307 308 309 307 307 306 304 304 301 300 298 297 296 294 293 292 292 291 291 291 290 290 291 291
286 283 284 287 292 292 291 289 293 294 293 294 296 298 297 299 301 299 299 300 300 300 300 299 304 305 306 307 307 306 304 303 302 300 298 297 296 295 294 293 292 291 290 290 290 289 290 289 289
283 282 283 284 289 288 288 288 292 295 294 295 296 297 298 299 300 302 300 299 299 300 300 299 299 303 304 305 304 302 299 302 300 299 297 297 296 294 293 292 291 290 289 289 289 289 288 289 289
284 283 282 286 289 287 289 289 290 293 293 294 296 297 297 297 300 301 299 299 298 297 297 298 296 299 301 301 298 297 297 298 297 298 297 296 296 294 293 292 290 290 289 289 289 288 288 287 287
286 285 284 288 290 286 287 288 292 293 294 295 296 296 296 296 298 299 297 297 296 297 296 297 296 297 299 300 300 300 300 298 298 297 296 295 295 293 292 291 290 289 288 288 288 288 287 287 286
284 283 285 284 286 286 284 285 286 291 291 293 295 296 296 295 296 298 296 296 296 295 295 295 296 296 297 299 298 291 293 291 293 293 293 293 294 293 292 291 290 289 289 288 288 288 288 286 285
284 287 287 285 283 280 285 279 284 289 290 290 292 292 293 293 294 294 294 293 295 296 295 295 295 295 295 297 296 295 295 293 294 295 294 293 292 292 292 291 290 289 288 288 287 287 288 287 286
286 286 285 284 282 280 281 279 283 285 288 290 293 293 294 294 292 292 292 293 293 293 293 293 294 294 295 295 296 294 295 295 293 295 293 292 291 291 290 290 289 288 288 288 287 286 286 287 287
287 285 283 281 281 276 281 281 281 284 288 288 292 294 292 292 292 293 293 292 293 291 291 291 291 291 292 294 294 293 294 292 291 290 291 290 289 289 289 289 288 288 288 287 286 287 287 286 286
286 282 277 276 275 277 280 279 284 288 290 291 292 292 292 290 291 292 294 293 292 290 288 289 289 290 291 292 292 292 293 292 291 290 291 289 288 288 287 288 287 287 287 286 286 286 286 285 285
284 285 281 275 273 279 281 280 286 290 291 290 289 290 291 291 291 291 290 290 290 290 289 288 288 288 289 289 290 291 292 292 291 290 291 290 290 289 289 287 287 287 286 285 285 285 285 285 285
284 282 287 282 281 277 282 285 292 291 290 288 289 289 288 288 288 288 289 289 290 290 289 288 287 288 288 288 289 289 290 290 289 288 289 289 290 289 288 287 286 286 285 285 285 284 284 284 285
286 288 281 281 275 275 280 281 284 287 288 288 286 286 287 288 288 288 288 288 289 290 291 291 291 289 288 288 288 288 289 289 289 287 287 287 288 288 287 286 286 285 285 284 284 284 283 283 283
282 282 283 283 283 279 278 280 290 288 284 285 285 286 285 285 286 287 288 289 289 289 289 290 290 289 288 289 288 287 287 288 288 286 286 287 287 287 286 286 285 285 284 284 283 283 283 282 282
287 287 286 281 280 281 283 283 292 285 285 285 283 283 284 284 285 286 287 288 288 288 288 288 288 288 287 287 288 287 287 286 285 286 286 286 286 286 286 285 285 284 283 283 283 282 282 282 281

GFSSGP_sfc_thetae_024.txt.gz
Theta_e
326 325 327 323 306 305 299 301 304 304 304 307 307 307 307 308 305 302 321 330 331 332 343 348 350 352 352 351 349 347 348 349 349 347 346 343 343 341 343 345 346 345 344 341 339 337 336 336 335
322 321 324 317 302 297 299 303 303 305 306 307 307 307 307 306 312 315 321 329 332 333 342 346 346 351 351 350 349 348 348 348 348 347 345 344 341 338 339 341 342 341 340 338 336 334 332 330 328
319 318 314 308 303 297 299 303 304 305 306 307 307 309 309 308 312 317 323 330 332 334 340 344 345 349 351 350 349 349 348 350 349 347 344 342 339 336 336 337 337 337 336 334 330 328 327 325 325
319 317 312 302 298 302 302 305 306 307 305 307 307 305 309 313 314 317 325 331 332 334 339 341 345 349 350 350 349 349 350 349 348 343 341 340 338 335 334 335 336 335 333 330 327 325 324 323 321
318 313 303 300 299 302 305 305 305 304 305 306 306 305 307 311 314 317 327 331 333 334 339 342 343 346 347 349 349 349 349 347 344 341 339 340 337 335 332 333 333 331 328 325 324 324 321 320 319
310 310 299 297 298 302 305 306 305 305 305 305 305 306 308 311 312 316 325 330 334 334 338 341 338 341 345 346 346 346 345 344 341 338 336 338 336 332 329 330 329 327 324 323 323 321 319 318 317
306 304 298 298 299 301 303 304 304 305 305 306 307 304 310 310 312 316 323 330 333 335 337 339 341 340 334 338 340 341 342 342 340 338 337 336 333 330 327 327 325 324 323 323 321 319 318 316 314
311 307 299 300 299 298 304 303 305 305 305 306 308 305 306 311 312 318 323 327 330 333 335 337 339 339 339 337 332 333 335 337 337 334 332 331 329 328 327 325 325 323 323 321 319 318 316 313 311
308 302 298 298 298 300 304 303 304 306 305 305 308 309 311 309 313 317 320 324 326 328 332 334 336 337 337 336 333 329 331 332 332 331 327 324 326 324 322 322 325 323 320 318 317 315 313 310 307
306 301 300 303 303 301 304 303 305 304 305 305 306 310 309 308 312 314 316 318 322 324 326 330 332 333 334 333 335 336 334 334 333 333 329 326 323 322 320 318 322 323 319 316 314 311 306 301 303
305 300 304 303 303 302 303 303 305 304 303 307 307 309 311 308 309 311 314 317 320 323 325 326 328 330 331 332 333 333 335 330 332 331 327 324 320 319 318 319 319 319 314 313 310 304 302 301 302
301 304 304 304 303 303 302 304 303 304 306 309 310 311 310 309 308 309 311 314 317 319 322 324 325 327 329 331 330 331 331 331 329 327 323 320 317 317 316 317 317 315 313 310 305 302 302 301 300
301 304 305 305 304 303 304 303 303 304 308 310 309 307 307 308 309 311 311 313 315 316 319 322 324 324 326 327 327 328 328 327 326 323 320 318 316 314 313 314 313 312 309 305 301 301 300 300 299
303 302 303 303 303 303 301 302 301 304 307 306 306 306 307 307 308 309 309 309 311 314 316 319 321 322 324 324 325 325 325 325 324 321 318 316 314 312 311 311 309 307 304 302 301 300 300 299 299
301 298 301 301 301 300 301 298 299 305 306 304 305 306 306 306 307 307 309 309 310 312 314 316 318 320 321 322 323 323 323 322 321 319 317 314 311 309 308 308 306 303 301 300 300 299 299 298 297
297 296 294 299 298 299 300 295 302 305 302 302 304 306 306 307 308 309 309 310 310 311 311 313 314 316 319 320 321 321 321 319 318 317 315 312 310 308 306 305 303 300 299 299 298 297 297 297 297
296 292 294 295 298 298 298 296 301 303 301 301 303 304 304 305 307 309 310 309 310 310 310 310 312 313 316 318 319 319 319 318 317 316 314 311 308 306 304 304 302 299 298 298 297 297 297 296 296
293 292 292 292 297 295 294 294 299 301 300 300 301 303 304 305 305 308 308 309 309 309 309 309 309 311 313 315 317 317 316 315 315 314 312 310 307 304 303 302 301 298 297 297 297 296 296 297 296
295 292 292 295 298 294 294 295 297 299 299 299 301 302 304 304 307 307 307 307 308 308 307 307 307 307 310 311 311 313 312 311 312 312 311 309 307 304 303 302 300 298 297 297 296 296 294 294 295
293 292 292 295 297 293 294 293 296 298 299 301 301 302 303 304 305 305 305 305 305 305 306 305 305 305 307 309 310 311 310 310 310 310 309 308 306 304 302 301 299 298 297 296 296 295 294 295 294
293 291 291 292 294 294 292 292 294 299 300 300 301 302 302 302 301 302 302 303 303 302 303 302 303 304 304 306 307 307 305 306 305 306 305 305 304 303 301 300 299 298 297 296 296 295 295 293 293
290 296 293 291 289 286 291 285 294 297 297 298 301 300 301 301 301 301 299 299 299 299 300 301 301 301 302 303 304 304 302 301 302 303 303 303 302 302 301 300 300 298 297 297 297 296 296 297 292
291 292 291 290 289 287 289 285 294 293 295 298 299 298 298 298 298 297 297 297 297 297 297 299 300 300 299 301 302 302 301 303 303 302 302 301 300 300 300 299 299 298 297 297 297 295 295 296 296
292 292 291 289 288 284 290 288 290 293 294 296 299 295 296 296 296 295 296 296 296 297 297 296 297 297 298 299 300 300 300 300 300 299 299 299 299 298 298 298 298 297 296 296 296 295 295 295 295
291 289 285 285 284 285 287 287 290 296 295 295 293 293 294 295 294 294 294 294 294 295 296 295 295 294 295 296 297 298 298 299 299 299 298 298 297 296 296 296 295 295 295 296 295 294 294 294 293
288 290 285 280 282 286 291 287 293 297 297 294 294 294 294 293 294 293 293 294 293 294 294 295 293 293 293 294 294 295 296 297 298 298 298 298 297 297 297 296 295 295 295 294 294 293 293 293 293
291 286 292 286 286 282 288 292 297 295 295 293 293 293 291 292 292 292 293 293 293 293 293 293 293 292 292 292 293 293 294 294 295 296 297 297 297 297 296 296 294 295 294 293 292 291 291 291 292
291 292 284 286 278 278 284 286 288 292 292 292 291 290 289 290 290 291 291 292 292 292 292 292 292 291 291 291 292 292 292 292 293 294 294 294 295 295 294 294 293 294 294 292 292 291 291 290 290
286 286 287 286 285 279 278 283 293 292 290 290 289 288 287 288 288 289 291 292 292 291 291 291 290 290 289 289 290 291 291 291 291 291 292 292 293 294 293 294 293 292 292 292 291 290 290 289 289
293 290 291 284 282 284 283 283 292 290 289 287 285 285 286 286 286 287 288 290 290 288 288 288 289 288 288 289 289 289 289 290 290 290 291 291 290 291 292 292 291 291 290 290 289 289 288 288 287

GFSSGP_sfc_thetae_030.txt.gz
Theta_e
327 324 321 317 304 302 297 299 301 303 303 303 305 302 301 303 301 298 318 325 327 334 343 348 350 353 352 351 351 351 351 351 348 349 349 348 347 347 348 350 348 346 345 342 341 339 338 336 333
320 320 318 311 299 294 294 299 301 303 304 304 304 303 302 300 308 314 317 327 328 334 343 345 348 351 352 351 350 350 351 351 349 348 346 345 344 342 342 347 345 343 341 339 338 336 333 330 330
320 318 309 304 298 294 294 300 301 303 305 302 302 304 302 304 309 313 322 328 327 329 343 345 347 351 351 351 350 350 350 351 350 347 346 344 341 339 338 339 339 340 340 335 334 332 329 328 326
316 312 308 297 296 298 298 300 303 303 303 303 303 301 304 310 310 317 324 328 325 328 341 343 348 351 351 351 350 350 350 351 350 349 346 344 340 336 336 337 337 336 335 332 330 328 326 324 321
314 309 299 296 297 297 298 302 301 301 302 302 302 300 302 308 315 317 323 327 324 327 335 344 346 349 351 351 350 349 349 350 350 349 348 340 338 336 333 334 335 335 333 329 328 325 323 321 318
306 304 296 294 296 299 300 304 302 302 301 302 299 300 302 310 311 313 322 325 327 327 333 342 340 343 347 349 349 348 348 349 350 348 345 342 338 336 333 333 334 333 330 327 327 322 321 319 317
304 301 296 295 297 298 301 302 299 300 301 300 302 297 302 305 311 314 317 323 326 327 330 334 340 340 338 342 344 345 346 347 347 344 342 340 339 335 333 333 332 331 327 326 324 321 319 317 315
306 302 295 294 295 297 301 301 301 300 300 303 303 297 301 305 311 311 315 318 323 326 329 330 335 338 338 339 336 338 341 342 341 338 335 333 333 332 331 329 331 328 325 325 322 320 318 316 312
309 297 294 297 297 297 302 298 302 302 299 302 304 302 305 311 312 311 315 316 320 324 327 330 331 334 335 337 335 332 334 335 333 331 329 326 326 326 324 324 327 327 326 323 321 319 316 313 308
302 297 298 301 300 299 301 300 300 299 300 300 302 306 307 309 308 309 310 312 316 319 324 328 330 331 332 335 334 334 333 332 331 331 328 327 325 323 322 319 324 326 325 323 320 318 314 309 299
304 298 302 302 304 303 301 300 302 299 298 301 300 303 304 303 305 306 307 309 312 318 322 326 328 330 330 331 329 332 332 329 332 332 329 327 325 319 315 314 316 314 315 311 312 308 303 299 297
299 303 303 304 304 302 300 303 300 301 301 305 304 305 304 304 304 305 306 307 307 311 319 324 326 328 328 329 327 327 328 326 329 326 328 327 321 316 313 313 313 312 309 307 305 300 299 298 298
299 302 304 304 303 302 303 301 300 301 303 305 305 305 304 303 304 305 306 307 308 309 311 319 324 325 327 327 326 326 326 328 327 325 327 327 319 314 312 311 312 312 308 307 303 298 298 297 296
301 301 301 301 301 302 300 299 298 301 303 303 303 302 302 302 304 303 304 305 306 308 310 314 322 324 324 325 325 326 324 325 327 326 327 325 318 313 311 310 310 310 307 304 300 298 296 296 296
301 296 298 299 300 299 300 295 296 301 302 301 302 300 301 302 303 302 304 305 306 307 309 311 316 321 321 323 324 324 324 323 324 325 323 321 316 312 310 308 308 308 305 302 298 297 296 295 296
296 295 290 298 300 298 297 290 298 301 299 299 300 299 300 302 303 303 304 304 304 305 308 310 313 316 319 319 320 323 321 321 321 321 320 319 316 312 308 307 306 306 302 298 296 294 294 293 293
293 287 290 294 300 297 294 291 298 300 299 298 300 300 300 301 302 302 303 303 304 304 304 307 311 312 315 318 318 319 320 319 318 319 317 316 315 311 307 305 305 303 298 295 295 293 293 292 291
289 290 292 292 296 296 293 292 297 299 299 299 300 299 299 299 299 301 300 301 301 301 302 303 305 309 312 313 315 315 316 316 316 315 315 314 313 310 305 303 303 300 296 294 294 292 293 292 292
293 290 290 293 297 294 294 294 295 298 299 299 299 298 297 298 299 299 299 299 299 300 300 301 301 303 306 307 308 310 310 312 313 313 313 313 311 309 305 301 300 298 296 295 294 293 292 291 291
293 290 289 293 296 294 292 292 296 297 298 298 297 296 296 296 296 297 297 297 297 297 298 299 300 301 302 304 306 307 308 309 311 312 311 311 309 307 305 301 299 296 294 293 294 292 291 291 291
292 290 290 289 292 293 290 287 291 296 297 297 297 296 295 294 294 295 295 295 295 295 295 297 298 299 300 301 303 303 303 301 301 305 306 308 308 306 304 301 298 296 294 294 293 293 292 288 289
288 294 292 290 286 282 289 279 288 294 294 294 294 293 293 293 294 294 294 294 294 294 295 295 296 296 299 299 300 299 299 297 298 300 303 305 306 305 303 301 299 296 294 293 292 293 293 290 289
291 292 290 289 285 284 285 282 287 293 289 290 292 292 292 293 293 292 292 293 294 294 293 293 294 295 295 296 296 296 296 297 297 298 297 298 300 301 302 301 298 297 295 292 292 291 290 291 289
293 289 289 288 285 279 286 285 286 288 289 289 292 292 293 292 292 293 293 293 292 292 291 292 292 292 293 294 293 293 292 292 293 294 294 295 296 297 298 299 298 297 295 292 291 291 290 290 290
289 285 280 279 277 279 288 285 287 294 292 292 291 291 291 291 291 291 291 291 291 290 290 291 290 289 290 291 291 291 291 291 291 291 292 292 293 294 295 295 295 295 295 293 292 290 289 290 290
288 289 281 274 277 279 286 280 288 293 293 293 292 291 291 290 290 290 290 290 289 290 290 290 289 288 288 289 289 290 290 291 291 291 291 291 292 292 293 294 294 294 294 293 291 289 289 289 291
290 286 292 285 281 280 282 287 292 292 291 291 290 289 288 288 289 289 290 289 288 288 289 289 288 287 287 288 289 288 288 288 288 289 289 289 290 292 291 291 291 292 292 292 291 288 288 288 288
290 292 284 285 273 268 279 280 284 289 290 290 288 286 287 287 287 287 288 288 287 286 286 287 287 285 285 286 287 287 287 287 287 287 286 287 288 289 288 288 288 289 290 290 289 288 287 287 287
286 285 285 286 282 275 275 279 290 289 291 288 287 287 286 286 285 285 286 288 287 285 285 285 286 285 284 285 286 285 285 285 285 284 285 285 286 286 287 287 286 287 287 287 287 287 287 286 286
290 288 288 283 279 281 282 282 291 288 288 288 287 287 286 286 284 284 285 286 287 285 283 284 284 284 284 285 285 285 284 284 282 282 283 283 284 284 285 286 285 285 286 285 286 286 287 285 285

GFSSGP_sfc_thetae_033.txt.gz
Theta_e
324 317 315 309 298 295 291 294 296 298 298 300 302 300 298 299 299 295 316 322 332 338 344 348 351 353 353 352 352 352 352 349 349 348 349 348 347 348 347 348 349 346 345 342 341 340 338 335 334
315 317 310 303 293 288 290 294 297 299 301 301 301 300 299 298 307 312 315 324 334 339 343 346 348 352 352 352 351 351 352 352 349 350 350 348 346 345 347 348 345 344 342 340 339 337 333 332 331
316 315 303 297 291 288 290 294 295 299 300 300 299 301 300 302 306 313 320 325 329 339 342 346 347 351 352 351 350 350 350 350 351 349 347 345 343 341 341 344 343 342 339 336 334 333 330 327 326
310 307 301 292 290 292 292 293 297 298 299 300 299 296 302 306 309 316 323 325 323 337 341 344 348 351 351 350 350 350 350 351 350 349 346 344 342 339 340 339 340 338 336 334 331 329 327 324 322
307 301 292 291 291 294 294 299 298 298 298 298 299 297 299 307 314 319 323 324 321 329 338 343 347 349 350 350 350 350 350 351 350 349 348 346 340 335 335 336 336 335 334 331 330 326 323 320 318
300 296 290 288 291 294 296 299 298 297 298 298 297 297 299 306 308 314 322 322 322 326 339 343 341 344 347 349 349 348 349 350 350 349 348 344 339 336 333 333 334 334 333 329 328 323 321 319 316
300 294 289 290 292 295 297 298 295 295 296 297 299 295 299 302 307 313 319 321 322 325 337 340 342 342 340 343 344 345 346 347 348 348 347 342 339 338 334 333 333 334 331 328 325 322 320 317 314
300 295 292 291 290 293 297 297 299 297 297 300 300 294 300 304 310 311 313 317 320 322 328 335 338 339 340 341 337 339 341 342 343 342 337 334 334 334 331 330 332 332 328 327 323 321 319 316 312
302 291 288 291 292 294 298 296 300 300 297 298 301 300 302 306 309 309 311 313 315 321 324 327 333 335 337 336 335 333 335 337 336 333 330 327 326 326 326 325 330 330 328 326 323 320 318 313 308
297 291 293 296 294 295 297 295 295 296 297 296 298 301 303 307 304 306 308 310 312 316 320 325 327 331 333 338 335 332 333 334 331 328 326 325 323 322 322 320 325 327 327 326 322 320 316 307 296
299 293 297 300 301 299 298 298 298 296 294 297 298 300 300 304 304 304 305 308 311 315 319 324 326 328 330 333 331 333 332 328 328 327 327 327 325 320 318 315 317 316 317 314 314 311 304 301 298
295 300 300 301 301 299 298 299 299 298 300 302 301 302 300 301 300 303 303 304 305 311 317 322 326 327 327 329 328 331 331 329 328 331 328 326 324 316 312 312 312 310 308 307 304 302 299 296 296
295 296 300 301 300 299 299 297 298 298 302 303 303 302 301 300 300 301 302 303 304 305 311 319 323 326 328 326 325 327 329 329 328 324 326 327 324 318 310 310 311 308 307 305 302 299 296 295 295
296 297 297 298 299 299 297 296 298 299 300 300 300 299 299 299 299 299 300 302 302 305 306 314 322 325 326 327 324 323 324 324 323 322 323 323 322 317 311 310 310 309 306 304 301 296 295 294 294
297 293 295 296 297 296 297 293 295 299 298 298 298 297 298 299 299 298 300 300 300 302 304 307 319 322 324 323 323 322 322 322 324 323 321 320 319 317 311 308 308 309 306 302 297 295 294 293 294
293 290 287 295 296 296 294 288 296 298 295 297 298 297 297 297 298 298 299 299 299 299 301 305 314 318 318 319 320 322 321 320 320 321 322 319 317 316 312 307 307 306 303 300 295 294 293 292 292
288 284 287 291 296 295 292 289 296 298 297 295 296 296 296 295 296 297 297 298 298 299 299 301 304 314 316 316 318 319 319 318 318 318 317 318 315 313 309 306 305 304 300 296 295 292 292 290 290
285 285 288 288 293 293 290 290 294 296 296 296 293 294 293 293 294 296 296 297 297 297 299 300 301 304 311 313 313 313 314 314 315 315 317 315 315 310 306 304 304 301 297 294 293 291 290 290 290
289 287 286 289 294 291 290 290 293 296 295 296 292 292 292 293 296 296 296 295 296 295 296 297 298 299 302 305 307 308 309 310 311 314 315 314 314 311 304 302 302 298 296 294 292 291 290 289 288
289 287 287 290 293 290 289 289 293 295 292 292 292 291 292 293 293 294 294 293 293 293 294 295 295 297 298 301 302 304 305 305 309 310 311 312 311 310 305 301 299 296 293 292 292 291 289 289 289
289 287 287 288 289 290 287 285 288 290 292 293 292 292 292 291 291 291 292 292 291 291 292 293 294 295 295 298 300 300 301 300 299 301 305 306 308 308 307 303 298 295 294 293 292 291 290 288 288
286 291 290 289 284 280 286 278 286 289 288 290 290 289 289 290 291 291 291 291 291 290 291 292 293 293 294 294 294 294 295 294 295 296 299 302 303 303 303 303 299 296 293 292 291 292 290 289 287
289 290 288 287 283 282 282 279 284 288 286 287 288 289 289 290 290 290 290 291 290 290 289 290 290 291 292 292 292 292 291 292 293 294 294 295 298 300 300 300 298 297 295 292 291 290 289 289 289
291 287 287 284 283 277 283 282 283 285 287 287 288 289 290 289 289 289 290 290 288 288 288 288 288 289 290 291 290 290 289 289 289 290 290 291 293 295 296 297 297 296 294 292 291 290 289 290 289
288 283 279 277 275 277 285 283 286 290 289 289 288 287 288 288 288 287 287 287 287 286 286 287 286 287 288 288 289 288 289 288 288 288 289 288 289 290 291 291 292 293 294 293 291 289 288 288 289
286 286 279 272 275 277 284 281 286 289 290 289 289 288 288 287 288 287 287 286 287 287 286 285 285 285 286 287 287 287 287 288 288 287 287 287 288 289 289 289 289 290 292 293 291 289 288 287 288
287 284 289 282 281 275 280 284 287 289 288 287 287 286 285 287 288 288 286 285 285 286 285 285 284 284 285 286 286 286 286 286 286 285 285 285 287 288 288 288 287 288 288 289 289 288 287 286 287
289 291 282 283 271 270 277 279 281 285 286 286 285 285 285 285 286 287 287 285 285 284 284 285 285 283 283 284 285 285 285 285 285 284 284 284 285 285 285 285 286 286 287 286 286 285 286 285 286
284 283 286 285 282 275 271 277 287 288 287 285 285 285 286 286 285 285 286 286 284 284 283 282 283 283 283 283 284 285 285 285 284 282 282 282 283 283 283 284 284 284 284 285 285 285 285 285 285
289 286 286 282 278 279 280 280 289 288 287 286 286 286 285 284 282 282 283 284 284 282 282 282 283 283 283 284 283 283 284 283 283 282 281 282 282 283 282 283 282 282 283 283 282 283 283 284 284

GFSSGP_sfc_thetae_036.txt.gz
Theta_e
319 312 312 307 297 293 289 292 294 296 296 298 300 298 296 298 297 293 313 321 332 337 344 348 351 354 354 353 352 352 351 349 349 348 347 347 346 345 347 348 349 347 344 341 341 340 337 335 335
313 315 308 300 292 287 289 293 295 297 299 299 299 298 297 296 305 310 315 321 336 338 343 346 348 352 353 352 352 351 351 350 348 348 348 347 347 348 348 348 348 345 343 339 338 335 334 332 332
313 312 301 295 289 287 289 292 293 297 298 298 297 299 301 300 306 311 316 324 336 338 343 346 347 352 352 352 351 351 351 351 350 349 349 347 345 344 347 345 347 343 338 338 335 332 330 328 327
308 305 299 291 289 292 291 293 295 296 297 298 297 298 299 304 306 314 321 326 334 337 342 344 348 352 352 351 351 351 350 350 350 350 347 345 343 341 339 342 342 339 335 334 332 329 326 323 322
304 298 291 289 289 292 295 296 296 296 296 297 298 296 296 306 313 317 321 322 332 334 338 342 347 350 351 350 350 350 350 349 349 349 348 346 342 339 338 337 337 335 335 332 330 326 323 319 318
299 294 288 287 289 293 295 297 296 295 295 296 297 296 297 306 309 315 320 319 324 333 336 342 340 343 347 348 348 348 349 349 349 348 347 346 341 335 334 334 335 336 334 331 328 323 320 317 315
296 292 288 288 289 292 295 297 294 294 293 295 297 294 298 301 307 313 319 320 319 329 335 339 342 341 339 342 343 345 347 348 348 347 347 344 339 338 335 333 333 334 333 330 326 322 319 316 313
298 294 290 289 289 291 296 297 296 295 295 299 300 293 296 303 307 310 315 318 318 322 333 335 338 340 342 342 337 338 341 342 344 343 341 335 334 335 333 330 332 334 331 329 325 321 319 316 311
299 290 287 289 290 291 297 295 298 297 295 296 299 297 299 304 307 308 309 311 314 319 325 331 336 337 338 339 337 334 336 337 337 336 332 328 328 328 326 326 329 331 330 328 324 321 319 314 308
294 288 290 294 293 294 296 295 296 295 295 295 295 299 301 304 306 306 306 308 310 314 318 326 331 334 335 340 336 335 338 338 334 332 328 326 324 323 323 322 326 329 327 328 324 321 317 306 294
296 291 295 297 298 297 297 296 296 294 294 296 298 297 299 302 303 304 304 306 308 311 316 322 328 331 332 335 334 333 332 329 328 327 324 324 325 322 318 317 318 317 319 317 318 313 304 298 296
293 299 298 300 300 298 295 298 297 297 299 300 300 300 298 299 299 299 301 302 304 308 313 319 324 328 329 332 331 333 333 330 328 328 326 326 324 321 318 313 312 312 311 309 306 304 301 296 295
293 295 298 299 298 297 297 296 295 297 300 300 300 299 298 296 296 296 297 299 299 301 304 313 321 326 328 328 328 330 331 331 328 325 325 326 324 320 316 311 310 309 307 305 303 302 297 294 294
295 295 296 297 298 297 295 293 295 298 296 299 298 296 295 296 296 296 297 298 298 299 299 304 317 324 326 327 324 327 328 328 326 325 325 323 324 321 316 310 309 307 306 304 302 300 294 293 293
296 293 294 295 295 294 295 292 293 298 296 296 296 293 295 295 295 294 296 296 297 298 299 300 312 321 323 325 323 322 324 324 324 324 321 320 320 318 316 312 309 308 305 303 300 297 293 292 292
291 289 287 293 294 294 293 288 295 297 294 295 294 291 293 294 294 294 295 295 296 296 297 300 306 315 318 319 320 320 320 319 320 320 319 319 318 315 313 312 311 307 305 302 298 294 292 291 290
287 283 285 290 294 293 291 288 294 297 294 293 292 291 292 293 294 294 294 294 294 295 296 298 300 307 314 316 317 318 317 317 317 318 318 319 319 315 314 311 311 309 304 299 297 292 292 290 289
284 284 286 287 292 291 290 289 293 295 294 292 289 289 291 292 292 294 293 294 294 294 295 296 298 299 305 311 312 312 313 313 314 318 319 319 318 315 313 311 309 306 303 296 294 292 290 290 289
287 285 285 288 292 289 289 289 293 293 293 290 289 290 291 291 293 293 292 292 292 292 293 294 294 295 299 301 304 307 307 309 310 315 317 317 316 312 310 308 306 303 302 299 296 291 290 289 288
288 286 286 289 291 289 288 289 289 290 289 289 289 289 290 289 290 291 290 290 290 290 291 292 293 293 295 297 298 300 300 300 305 306 310 311 313 312 309 306 304 301 297 294 292 291 289 289 288
288 287 286 288 288 288 285 284 286 289 290 290 290 290 289 288 288 289 289 288 288 288 289 291 291 292 292 294 295 296 296 296 296 297 299 303 306 307 308 305 302 300 298 296 294 291 290 289 287
286 290 289 287 284 280 284 277 284 286 286 287 287 286 287 287 288 288 288 287 287 287 287 289 290 291 292 292 292 291 290 290 291 292 293 295 297 298 300 302 301 299 297 295 294 293 292 289 287
288 289 287 285 283 280 281 278 282 286 284 285 285 287 287 287 287 287 287 288 287 287 286 286 288 289 289 290 290 289 288 289 289 290 290 291 292 292 292 293 295 298 297 295 294 292 291 291 290
290 287 286 283 281 276 281 281 281 284 285 285 286 287 287 287 286 287 287 287 285 285 285 285 286 287 288 287 287 287 287 287 287 287 287 288 289 290 289 290 290 291 292 293 294 292 291 291 291
287 284 279 276 275 276 283 280 283 286 287 287 286 286 286 286 285 285 285 285 284 284 283 285 284 284 286 286 286 285 285 285 285 285 285 285 286 286 287 288 287 288 289 290 290 289 290 289 287
285 284 277 269 273 276 283 280 284 286 288 288 287 286 286 286 286 285 284 284 284 284 283 283 283 283 284 284 284 284 284 284 284 284 284 284 284 285 286 286 286 286 287 288 288 288 287 287 287
286 283 287 281 280 278 280 281 286 286 285 285 285 285 284 285 286 285 284 283 284 284 284 284 282 283 283 284 284 284 284 282 282 282 283 283 284 285 285 284 284 285 285 285 285 285 285 285 285
288 290 281 281 268 272 276 278 279 283 283 284 283 283 284 285 286 286 285 285 285 284 285 284 284 283 282 282 283 284 283 284 283 283 282 282 283 284 284 283 284 283 283 283 283 283 284 284 285
284 284 284 284 281 271 269 276 285 286 286 284 283 284 283 284 284 285 284 283 282 283 283 284 283 283 283 283 283 283 283 282 282 282 282 282 282 282 282 283 282 282 282 282 282 281 281 282 283
286 285 285 281 277 278 278 279 288 288 287 286 285 285 284 284 282 281 282 281 280 280 280 280 281 281 282 281 281 281 281 280 280 280 280 280 281 281 280 280 281 281 281 281 281 281 281 281 281

GFSSGP_sfc_thetae_039.txt.gz
Theta_e
316 310 310 306 297 292 288 291 293 294 294 301 299 296 295 296 296 292 309 323 331 333 340 347 352 355 355 355 354 353 352 350 349 348 347 347 347 347 347 346 347 346 342 342 339 339 337 336 335
312 312 306 298 290 286 288 291 293 295 297 297 298 297 297 295 302 308 313 321 333 336 342 346 348 353 354 353 352 352 351 350 349 348 346 346 345 345 347 347 348 345 341 339 338 335 334 332 332
311 308 299 293 287 286 288 291 292 296 297 296 300 303 301 298 304 307 314 320 334 337 342 345 347 352 353 352 351 351 351 350 349 347 348 346 346 347 347 345 346 342 335 338 335 332 330 328 328
307 303 297 290 289 290 292 291 293 294 296 297 300 299 298 303 304 310 318 328 331 335 340 343 348 352 352 351 351 351 351 351 350 350 349 346 343 344 343 341 342 339 333 333 332 329 326 324 322
301 296 290 288 289 291 293 294 294 295 294 296 299 294 295 302 312 317 319 330 330 332 337 340 346 349 351 351 351 350 351 350 349 351 348 345 343 340 337 335 339 338 333 332 330 326 323 320 318
298 293 288 286 288 291 293 295 295 293 293 295 300 298 297 304 310 315 319 320 329 332 335 339 339 343 347 349 349 349 349 348 347 348 348 346 343 337 334 334 335 334 335 332 329 324 320 317 314
295 290 287 286 287 291 293 295 298 294 292 298 302 298 298 301 306 310 317 317 323 330 333 336 340 340 339 342 343 345 346 346 346 347 346 344 340 337 335 335 334 335 334 331 329 322 319 315 313
296 292 288 287 287 289 294 295 294 293 293 298 298 294 297 304 304 310 312 313 314 324 331 333 337 340 340 341 336 338 341 343 344 343 340 337 334 334 334 331 333 334 332 331 328 322 319 315 310
296 288 285 287 288 291 295 295 296 295 295 295 297 298 297 302 305 307 307 310 313 317 326 330 334 338 342 342 337 333 335 336 337 336 334 330 329 329 327 326 330 334 332 329 327 322 319 314 308
293 286 288 291 293 294 295 293 294 295 295 293 294 298 299 303 304 305 304 306 308 313 316 326 331 336 339 339 340 338 340 339 336 333 332 328 326 324 324 322 326 330 329 330 326 322 318 305 294
294 290 293 295 296 296 295 294 295 292 293 295 296 297 298 299 301 301 302 301 304 307 312 318 326 330 336 336 338 337 334 336 335 333 328 325 326 323 322 320 320 319 319 317 319 314 305 295 292
294 297 296 298 298 296 294 296 295 295 298 298 298 297 297 295 295 295 294 295 296 299 305 311 320 326 329 335 336 336 334 332 331 326 325 326 324 322 320 319 318 315 312 311 308 305 303 298 295
293 294 296 298 297 295 296 295 294 296 299 298 297 295 295 294 295 295 296 296 296 296 297 298 307 322 326 325 327 333 333 333 332 329 327 326 324 321 319 317 316 314 309 307 305 303 301 295 293
293 294 295 296 296 295 294 292 293 296 295 297 295 294 293 293 293 293 294 295 295 296 297 298 300 317 323 326 323 328 330 332 330 328 324 325 324 321 319 316 313 308 307 305 304 302 299 293 292
295 292 293 293 293 293 294 290 292 296 296 294 293 292 292 293 293 292 293 293 293 295 296 298 302 310 320 322 320 322 322 324 327 325 321 321 322 320 317 316 313 312 307 304 302 299 295 292 291
289 288 286 291 292 293 292 289 295 296 293 292 290 289 291 292 292 292 293 292 293 293 294 297 300 309 316 318 318 319 319 319 319 320 322 322 322 321 316 314 313 312 309 306 300 297 294 292 290
286 282 284 289 293 292 289 288 295 295 294 292 288 289 291 290 291 291 291 291 292 292 294 295 297 299 310 315 317 317 317 318 321 322 321 321 321 319 316 313 312 311 309 306 302 296 294 291 290
283 283 285 285 289 291 288 289 293 293 292 289 288 289 289 289 289 290 290 291 291 291 293 294 296 297 301 308 311 312 312 313 314 316 319 320 320 318 316 313 312 309 307 303 300 298 291 290 290
286 284 284 287 291 288 288 288 290 289 288 287 288 288 288 288 290 290 290 289 290 290 291 292 292 294 296 298 300 303 300 300 303 307 307 310 314 314 314 312 311 307 306 304 301 295 294 289 288
287 285 285 288 290 288 287 287 287 288 287 287 287 287 287 287 287 288 288 287 287 288 289 290 291 291 293 295 295 297 296 296 298 299 299 301 303 306 308 306 305 304 302 300 297 295 293 292 290
286 285 285 287 288 286 284 284 285 287 288 288 288 287 287 286 286 286 286 285 286 285 286 288 289 290 291 292 293 293 293 292 292 293 295 295 295 295 298 301 302 301 299 299 297 295 293 293 291
285 290 288 286 283 280 283 278 282 284 284 285 285 285 285 286 286 286 285 284 284 284 285 287 288 288 289 290 290 289 288 287 288 289 290 291 291 290 291 292 295 298 298 296 295 295 293 292 292
288 288 286 285 282 280 280 278 281 284 282 283 284 285 285 285 285 284 284 285 284 284 283 285 286 286 286 287 287 286 285 286 286 286 286 287 288 288 288 289 289 290 292 293 294 293 292 292 291
289 286 285 282 280 276 280 280 280 282 284 283 285 285 286 285 285 284 285 284 282 282 282 283 284 284 285 284 284 284 283 283 282 283 283 283 285 285 285 286 287 287 288 288 289 289 289 291 291
287 284 279 276 274 276 281 279 282 285 285 286 285 285 285 284 283 283 283 282 282 281 282 283 283 283 283 283 283 282 282 282 281 282 282 282 282 282 283 283 283 284 285 287 287 287 287 287 287
284 285 278 269 273 276 282 279 284 285 286 287 286 285 285 284 284 283 283 282 282 281 281 281 282 282 283 283 283 282 282 281 282 282 282 282 282 282 283 283 283 283 283 284 284 285 285 286 286
285 282 285 279 275 274 278 282 285 285 284 284 284 284 284 284 284 283 282 282 282 281 281 281 281 281 282 283 282 282 283 282 281 281 282 281 282 283 283 283 282 283 283 283 283 283 283 284 285
287 289 281 279 269 267 275 278 280 281 282 283 283 283 283 284 285 283 282 283 283 282 281 282 282 281 282 282 282 282 281 282 282 281 280 280 281 282 282 282 282 282 282 281 281 281 281 282 282
284 283 284 283 277 270 268 275 283 284 285 284 284 284 284 284 284 283 282 282 281 281 280 280 280 280 280 280 280 280 280 281 281 280 280 280 279 279 279 279 279 280 279 279 279 279 280 280 280
285 285 285 280 276 277 277 278 286 286 286 285 284 285 284 283 283 283 281 280 280 279 279 279 280 280 280 280 280 279 279 279 279 279 280 279 279 280 279 279 278 278 279 278 278 277 278 278 279

GFSSGP_sfc_thetae_042.txt.gz
Theta_e
315 310 307 304 295 291 287 290 294 293 295 300 297 296 296 295 295 291 307 320 327 332 339 347 352 355 355 354 354 352 351 350 349 349 349 349 350 349 347 345 347 343 342 342 339 338 337 336 337
311 310 304 296 289 285 287 290 291 294 295 297 298 297 297 299 300 306 311 320 328 333 341 345 348 354 355 354 353 352 351 351 349 347 347 347 345 346 346 346 345 343 341 340 337 336 334 333 333
309 306 298 292 286 285 287 291 295 294 296 300 299 302 299 296 304 309 313 321 331 334 339 343 347 354 354 353 352 352 351 351 349 347 346 346 346 346 347 346 345 340 338 338 335 333 330 329 329
305 301 296 289 287 290 291 294 292 295 299 299 300 297 299 302 302 310 316 325 330 333 338 342 348 352 353 351 351 351 351 351 350 348 348 346 345 346 343 340 342 340 335 332 332 330 327 324 323
299 295 289 287 288 291 289 293 292 293 298 299 300 297 295 300 312 315 318 326 326 330 336 339 346 350 351 351 350 350 350 351 350 350 349 346 343 341 337 336 338 337 334 331 331 328 324 321 318
297 292 287 285 287 290 292 292 293 293 292 296 298 296 298 302 309 313 316 318 324 330 334 337 338 343 347 349 349 349 349 349 348 348 348 346 343 340 335 334 334 334 332 331 330 326 322 318 316
294 288 285 285 287 289 291 293 296 296 292 296 300 296 297 302 304 310 313 312 319 326 331 334 338 340 338 342 343 345 346 346 346 346 346 345 342 339 337 336 334 332 332 331 329 324 321 317 314
294 291 286 285 287 287 292 294 293 297 293 296 296 294 295 300 304 311 312 314 311 323 328 330 333 341 340 339 336 338 341 342 342 341 339 336 334 334 334 331 333 332 333 330 328 323 320 317 312
294 287 284 287 288 290 293 294 294 295 293 295 295 300 297 302 306 307 308 310 312 316 319 326 330 337 340 342 335 331 334 336 337 336 333 330 329 328 327 327 330 333 334 330 328 323 320 316 310
291 285 286 289 293 294 294 293 294 296 293 295 293 297 299 299 302 302 301 300 301 305 313 319 327 335 337 339 340 337 334 335 337 335 333 330 329 328 326 322 326 330 329 330 327 323 318 304 292
292 288 290 293 294 294 294 293 294 295 292 293 293 297 296 294 294 294 294 294 294 296 301 305 319 332 335 336 336 337 338 337 336 335 333 329 325 325 324 323 323 322 319 317 318 311 305 296 292
292 295 294 297 297 295 293 295 295 294 295 296 295 294 293 293 293 293 294 294 294 295 296 297 299 316 332 335 336 335 335 332 329 332 330 327 325 323 322 321 321 320 317 315 309 306 303 299 295
293 293 295 296 296 295 294 294 293 295 294 294 295 294 292 292 292 293 293 294 294 294 295 296 298 299 320 331 333 333 333 333 332 328 328 328 325 322 321 320 319 317 315 313 309 304 302 299 294
292 293 294 295 294 294 293 291 291 293 293 294 293 291 291 291 291 291 292 292 292 294 294 296 299 304 311 325 329 331 330 331 330 329 328 326 325 323 320 318 317 315 313 309 306 303 301 298 293
293 291 292 292 292 292 293 290 291 293 292 291 290 290 291 291 291 289 291 291 291 292 294 295 299 306 313 319 321 325 326 327 327 327 325 324 322 321 317 318 316 315 312 309 306 302 298 295 292
289 288 285 289 291 291 292 288 293 293 292 289 289 288 289 289 289 289 290 290 291 292 293 295 298 303 315 316 318 320 322 323 322 323 323 323 323 322 318 317 316 316 311 309 306 304 301 296 292
285 282 283 288 291 290 289 288 292 292 291 288 287 287 288 288 288 289 289 289 290 290 292 294 296 299 311 316 316 314 312 314 313 314 316 319 320 321 319 317 316 313 310 308 306 301 301 299 295
283 282 284 284 288 290 287 289 290 288 288 286 286 286 286 287 287 288 288 288 289 289 291 292 294 295 301 308 306 304 303 304 305 304 306 308 311 313 314 313 312 310 309 306 303 302 296 295 294
286 284 283 285 289 287 287 287 287 287 287 286 285 285 285 286 288 288 287 287 288 288 289 290 291 292 295 296 297 297 295 297 298 298 298 299 301 305 306 307 306 306 304 303 301 298 297 296 292
285 283 284 287 289 288 286 286 285 286 286 286 285 285 285 285 285 286 286 286 285 286 287 288 289 290 292 293 293 293 293 292 293 294 294 294 294 295 299 301 301 301 301 300 299 297 296 294 292
285 284 284 286 286 285 283 283 284 285 286 286 286 286 285 284 284 284 283 283 283 284 284 286 287 288 289 291 292 291 291 290 289 289 289 289 289 290 291 292 295 297 298 297 297 296 295 294 293
284 289 288 286 283 280 283 278 282 283 283 284 284 283 283 283 284 283 282 282 282 282 283 285 285 286 287 288 288 286 285 284 284 285 285 286 286 285 287 288 289 289 291 290 293 294 294 293 292
288 288 286 284 281 280 279 278 281 282 281 282 283 284 283 283 283 282 282 282 282 282 281 282 284 284 284 284 284 284 282 283 282 282 283 283 284 284 284 284 285 285 286 286 287 288 289 290 289
289 286 284 281 280 276 280 280 279 281 283 282 283 284 284 283 283 282 283 282 281 281 281 281 282 282 282 283 282 282 281 281 281 281 281 281 282 282 283 283 283 283 283 283 284 285 286 287 288
286 285 279 276 274 276 279 277 281 285 285 285 284 284 284 283 282 282 281 280 280 280 281 282 281 281 281 281 281 281 280 280 280 280 280 280 281 281 281 282 282 282 282 283 282 282 282 284 285
284 285 279 271 272 275 280 278 283 284 285 286 286 285 284 283 283 282 281 280 279 280 280 280 281 280 281 281 280 280 280 280 280 280 280 280 280 281 282 282 281 282 282 282 282 282 282 282 282
283 282 284 279 273 274 278 281 283 283 282 283 284 283 282 283 282 282 282 281 279 279 279 279 280 280 281 280 280 280 280 279 279 279 279 279 280 282 281 280 280 281 281 281 281 280 280 280 281
286 288 282 279 269 267 275 277 278 281 282 282 282 282 283 283 283 282 281 281 281 280 280 280 280 279 280 280 280 280 279 279 279 279 278 278 279 279 279 279 279 279 279 279 279 279 280 279 279
284 283 283 282 277 270 267 274 282 284 283 283 283 284 283 284 283 282 281 281 281 280 279 279 279 279 279 279 279 279 279 279 279 278 278 278 278 278 278 278 278 278 278 278 277 277 277 276 277
285 285 285 279 276 276 276 278 285 285 285 285 285 285 284 283 283 282 281 280 279 279 279 279 278 278 279 279 279 279 278 278 278 278 278 278 277 278 277 277 277 277 277 277 276 276 276 276 276

GFSSGP_sfc_thetae_045.txt.gz
Theta_e
316 312 311 307 300 296 293 297 299 300 301 304 302 302 302 302 299 298 313 322 331 335 341 351 353 354 355 354 353 353 352 351 351 351 351 352 351 348 346 346 346 343 341 339 339 339 337 337 337
312 312 307 300 293 290 293 296 298 300 302 303 302 303 302 302 306 310 316 324 333 336 343 350 349 353 354 354 353 352 352 352 350 349 349 348 348 347 346 344 345 341 340 338 337 335 334 333 333
311 306 303 295 290 289 292 296 298 300 301 302 302 304 304 305 308 312 317 325 334 337 344 348 347 354 354 354 352 352 352 352 349 348 347 346 345 346 347 345 343 340 339 337 335 333 330 328 328
308 304 298 292 292 294 295 295 298 299 301 302 302 302 304 309 310 315 320 329 334 337 343 345 348 353 352 353 352 351 351 352 351 348 347 347 348 347 342 343 341 337 335 334 332 331 328 325 323
301 299 293 291 293 295 295 298 298 299 300 301 301 301 303 308 315 321 323 331 332 336 341 344 346 351 352 351 351 350 350 351 351 350 349 346 345 342 339 339 339 337 335 333 331 329 325 322 320
299 296 291 289 292 295 296 297 298 298 298 300 300 301 304 306 312 319 323 329 331 335 338 342 338 343 347 348 348 348 348 349 349 348 348 347 344 341 337 336 336 335 333 331 330 327 323 319 318
296 291 289 289 290 293 296 297 297 297 297 300 302 299 305 305 307 316 321 321 330 334 336 339 341 341 337 342 343 344 346 346 346 345 347 344 342 340 338 336 335 332 332 331 328 325 322 318 316
296 293 290 289 290 293 297 298 298 298 299 301 303 298 302 302 309 317 319 319 320 325 332 335 338 341 344 346 336 338 341 341 342 340 339 336 336 335 334 331 334 332 332 331 329 324 321 319 313
297 289 286 289 290 293 298 297 299 299 298 299 301 301 300 302 307 306 307 305 307 305 311 323 334 337 340 343 340 332 334 336 337 337 332 332 337 334 332 328 331 333 333 331 329 324 321 314 307
293 288 289 292 293 295 297 296 298 298 297 298 299 300 298 298 298 298 298 298 299 300 302 305 313 332 337 339 341 340 340 343 343 343 343 339 334 331 329 325 326 329 329 330 328 324 316 306 300
295 290 292 294 296 297 297 296 298 296 296 298 298 296 296 296 296 296 296 296 296 298 300 301 302 306 331 337 339 340 339 338 341 338 337 336 332 330 327 326 326 326 321 322 321 318 314 307 302
293 296 295 298 298 297 296 297 296 297 298 297 295 295 294 294 294 294 294 295 295 297 298 300 301 303 309 334 337 338 338 336 337 336 335 331 329 326 325 325 325 324 322 320 317 314 313 309 303
295 295 296 297 297 295 295 295 295 295 293 295 295 294 293 292 293 294 294 295 295 296 297 299 301 304 307 322 334 335 335 334 334 332 331 332 329 325 324 323 322 321 319 319 316 316 313 310 305
294 294 295 295 295 295 295 293 294 294 294 293 293 292 291 291 291 292 292 293 293 295 296 298 302 308 311 318 331 331 332 332 332 332 330 328 328 327 324 323 323 319 319 315 314 312 313 310 304
294 292 293 293 293 293 294 292 292 293 292 291 290 290 290 290 291 290 291 291 292 293 295 297 303 311 320 322 326 327 327 327 326 325 325 324 324 324 323 323 323 322 315 313 310 307 306 307 303
290 290 288 291 293 293 293 290 291 292 292 289 289 289 289 289 289 290 290 291 292 292 293 298 302 315 318 317 317 316 314 313 313 314 316 316 319 322 321 319 318 317 315 312 310 307 306 306 302
287 285 285 289 292 292 292 290 290 290 291 288 288 288 288 288 288 289 289 289 290 291 293 296 299 306 310 309 308 307 307 306 306 306 307 309 311 314 314 313 312 313 311 309 307 304 302 302 301
285 284 285 286 290 291 289 290 288 289 289 287 286 286 287 287 287 288 288 289 290 290 292 294 296 297 304 305 304 303 301 299 298 297 297 299 303 307 308 308 307 309 307 306 305 302 300 297 296
287 285 286 287 290 289 289 289 287 288 287 286 286 286 286 286 287 288 287 288 288 289 290 291 293 294 298 299 299 298 295 296 294 294 293 294 295 298 301 303 302 304 303 302 301 300 299 298 296
286 284 284 287 289 289 287 288 286 287 286 287 285 285 285 286 286 286 286 286 286 286 288 289 290 292 294 295 295 295 293 292 291 290 289 289 291 293 294 295 297 298 299 298 298 298 298 297 295
284 284 284 286 287 286 285 285 284 285 286 286 286 286 286 285 284 284 284 284 285 284 284 286 288 289 290 292 293 292 291 289 287 287 286 287 288 288 289 290 292 292 293 293 295 295 296 295 297
283 288 287 286 285 282 284 280 284 284 284 285 285 285 285 284 284 284 283 283 283 283 284 285 286 286 286 288 287 286 285 283 284 285 286 286 287 286 287 287 287 288 288 288 291 292 293 295 292
287 289 287 286 283 282 282 281 283 283 282 283 284 284 284 284 284 283 283 283 283 283 283 283 284 284 285 285 286 285 283 284 284 284 285 285 285 286 285 285 286 285 286 286 286 287 288 290 291
288 286 284 282 281 277 282 282 281 281 283 284 284 284 285 284 283 283 282 282 282 283 283 283 283 282 283 284 283 283 283 283 283 283 283 283 284 284 284 284 284 285 285 284 285 285 285 285 286
287 286 280 277 276 278 280 279 283 285 286 286 285 285 285 284 283 282 281 281 282 282 282 283 282 281 282 283 282 283 282 282 282 282 282 282 282 282 282 283 283 283 283 284 284 284 284 284 284
285 286 281 275 273 276 281 278 284 286 286 286 287 286 285 284 283 282 281 281 281 281 282 282 282 281 282 282 282 282 283 283 282 282 282 282 282 282 282 282 282 282 282 282 282 282 282 283 283
285 283 286 279 274 276 279 282 285 285 284 284 284 284 284 283 283 283 282 281 280 280 281 282 281 281 281 282 282 282 282 282 281 281 281 281 281 282 281 281 281 281 281 281 281 280 280 281 281
286 288 282 280 272 271 276 278 280 283 283 282 282 284 284 284 283 283 282 281 281 281 281 281 282 281 282 282 282 282 281 281 281 281 280 280 280 280 280 280 280 280 280 280 279 279 279 279 279
284 284 283 283 279 273 270 276 283 284 284 283 284 285 285 284 284 283 283 282 281 281 280 280 281 281 281 281 281 281 281 281 281 280 280 280 280 279 279 279 278 278 278 278 278 278 278 278 278
285 285 284 280 276 276 277 277 285 285 285 285 285 286 285 285 285 284 282 282 281 280 280 280 280 280 281 281 281 281 281 280 280 279 279 279 278 278 277 277 276 276 276 276 276 276 277 277 276

GFSSGP_sfc_thetae_048.txt.gz
Theta_e
323 320 323 321 308 307 299 300 304 303 304 308 307 307 306 307 304 301 322 329 335 339 347 352 353 355 355 354 353 353 353 352 352 352 351 350 349 346 346 344 343 341 340 340 339 338 337 337 337
320 318 321 314 303 297 298 303 302 304 306 308 308 308 307 305 311 315 322 330 336 340 348 352 349 353 353 353 353 353 352 351 351 350 350 350 348 346 345 343 342 341 339 338 337 334 333 332 333
317 313 314 309 304 297 298 302 304 305 307 307 307 309 308 308 314 317 325 331 338 341 348 351 349 352 353 353 352 352 352 352 350 349 348 347 347 347 345 342 341 339 338 337 336 333 329 327 328
317 316 310 304 298 300 300 302 304 305 307 307 307 305 309 314 317 324 327 333 337 340 347 347 349 353 352 352 352 351 352 351 349 348 347 347 347 344 344 340 338 337 336 335 334 331 327 324 324
315 313 305 300 299 300 302 303 304 304 305 307 307 305 307 313 321 327 330 335 336 340 346 349 347 348 349 350 350 349 350 350 349 350 348 348 346 342 340 339 338 336 335 333 332 329 325 321 322
311 309 301 298 299 301 303 304 304 304 304 306 305 306 307 313 316 325 330 333 336 339 343 346 341 344 345 347 348 348 348 349 348 347 346 346 344 341 338 337 336 335 333 332 331 328 323 319 320
307 305 300 299 299 299 302 304 303 303 304 305 307 303 308 310 316 324 327 329 337 339 342 345 346 346 337 343 344 344 345 346 346 345 346 344 342 341 337 337 335 334 333 331 329 326 322 318 317
309 306 298 299 298 299 303 303 304 304 303 307 308 303 304 308 314 322 322 320 319 321 332 340 344 343 345 349 338 339 341 342 342 342 340 337 336 335 333 332 335 334 332 331 328 325 322 318 315
305 301 297 298 298 300 304 303 305 306 305 306 306 304 303 306 311 313 313 312 312 311 312 316 328 337 340 344 342 334 335 337 337 338 332 332 343 339 335 328 332 333 333 331 328 325 320 313 305
304 300 297 300 302 302 303 303 304 304 304 304 303 304 304 306 307 307 306 306 307 308 309 310 312 319 334 339 342 344 346 347 346 345 345 344 343 339 332 326 327 330 330 330 327 323 316 316 309
302 299 299 300 303 304 303 303 304 303 301 303 302 301 302 303 303 303 304 304 304 306 309 310 311 312 319 336 340 343 343 344 345 344 343 342 341 335 331 330 329 330 323 326 325 322 324 319 313
300 301 301 303 304 303 302 303 302 302 302 301 301 301 301 301 301 301 302 303 304 306 308 311 312 314 314 330 338 340 340 341 341 343 339 339 335 332 331 330 329 328 326 324 322 322 323 320 314
301 302 302 304 303 302 301 301 301 299 299 300 300 299 299 299 299 300 301 303 304 305 308 310 314 317 318 320 336 338 338 338 337 334 334 335 336 332 330 328 328 327 327 325 323 320 323 321 317
301 300 301 302 301 301 300 299 301 297 300 299 299 298 297 297 297 300 300 301 302 304 307 311 312 319 318 321 334 335 333 329 327 326 327 327 329 329 329 328 326 331 328 323 320 318 318 322 318
300 298 301 300 299 299 300 297 297 298 299 297 296 296 296 296 297 297 298 299 300 304 304 304 309 321 322 326 320 319 318 318 317 317 317 321 323 323 321 322 322 320 319 316 312 311 311 311 314
298 298 296 298 298 298 299 297 296 297 298 296 295 295 295 295 295 296 297 299 301 302 300 303 311 315 315 314 313 312 312 311 311 313 314 314 317 320 320 315 314 315 314 312 311 311 310 308 306
296 295 293 295 298 298 298 296 296 296 297 295 295 294 294 294 295 296 297 298 300 299 300 303 307 309 309 308 306 304 304 303 303 305 304 307 312 313 314 313 312 313 312 308 309 305 307 308 306
295 293 293 294 297 297 296 297 295 295 295 294 294 293 293 293 292 294 295 297 299 299 299 301 302 306 306 305 304 303 301 302 302 303 304 305 307 310 309 306 307 310 306 305 309 305 306 302 302
296 294 294 294 295 296 297 297 298 294 294 294 293 293 292 292 292 294 294 296 298 299 299 300 302 304 309 309 307 303 300 298 297 296 298 299 301 302 305 305 306 307 304 304 303 304 302 303 302
294 293 294 294 294 294 296 295 298 293 293 294 293 292 292 292 292 292 294 295 295 296 298 300 301 302 303 304 302 300 297 294 294 294 293 294 295 296 297 299 299 300 301 301 301 302 304 305 303
293 292 293 293 293 294 293 293 293 290 291 291 292 293 293 293 292 292 292 292 293 293 294 295 296 298 300 300 298 296 295 294 292 291 291 291 292 292 292 292 293 293 295 295 296 298 299 299 301
291 294 293 291 291 289 291 289 292 290 289 289 290 291 292 291 291 290 290 290 291 291 292 293 293 294 295 296 296 296 293 289 289 289 290 290 291 290 291 291 291 291 291 291 291 292 293 296 294
294 294 293 292 291 290 289 288 293 289 288 289 290 291 292 292 291 289 289 288 289 290 291 291 291 291 292 292 292 291 289 289 289 290 289 289 290 290 289 290 290 289 289 290 290 290 290 290 289
293 292 290 290 290 284 290 289 291 288 290 290 291 291 291 290 289 288 288 288 288 289 289 289 289 288 289 290 290 289 289 289 289 289 288 288 288 288 288 288 288 288 288 288 288 289 288 288 288
292 291 286 284 283 283 285 285 292 292 291 291 290 290 291 290 288 287 286 286 286 286 287 288 288 287 288 289 289 289 289 289 288 288 288 287 287 286 286 287 286 286 286 286 287 287 286 286 286
290 293 288 281 281 284 284 283 290 291 291 291 293 292 291 289 288 287 287 286 286 286 287 287 286 286 287 287 287 288 288 288 288 287 287 286 286 285 285 285 285 285 285 285 285 286 285 285 285
289 287 292 283 280 284 287 288 292 289 288 289 290 290 289 289 288 287 287 286 286 286 286 286 286 286 286 287 287 287 288 287 286 286 286 286 285 284 284 284 284 284 284 283 283 284 283 284 284
291 294 286 287 281 280 282 283 288 286 288 287 287 288 289 289 288 288 287 286 286 286 286 287 287 286 286 287 287 287 287 287 286 286 285 285 284 283 283 283 283 282 282 282 282 282 283 282 283
288 288 288 290 287 283 281 284 291 291 291 288 289 290 290 289 289 288 288 287 286 286 286 286 286 286 286 287 287 286 286 286 286 285 284 284 283 282 281 281 281 281 280 280 280 280 281 280 281
293 291 290 287 281 283 282 286 290 291 292 292 291 291 292 291 290 290 289 288 286 285 285 285 286 286 287 287 287 286 286 285 285 284 283 282 281 281 280 279 279 279 279 279 278 278 279 278 278

GFSSGP_sfc_thetae_051.txt.gz
Theta_e
326 323 324 322 309 307 300 301 306 304 305 309 310 308 306 308 305 303 325 333 334 340 349 352 353 353 353 353 352 352 352 353 352 351 349 349 347 346 344 343 342 341 340 339 338 337 336 336 337
322 320 322 316 304 298 299 304 303 306 308 310 310 309 308 305 314 318 323 332 335 340 348 351 350 353 353 353 353 352 353 352 351 350 349 349 346 345 344 342 341 341 340 339 336 334 332 332 334
321 317 315 309 304 299 299 304 305 307 309 308 308 311 309 308 316 318 327 333 337 341 348 350 349 352 352 352 352 351 351 350 349 348 348 348 347 345 343 342 340 339 338 337 336 332 329 327 331
319 318 313 304 300 302 302 304 306 307 308 309 309 306 311 318 320 326 330 334 336 341 347 348 350 351 352 352 351 351 351 349 348 348 346 346 346 344 343 340 338 337 336 336 333 330 326 324 326
317 314 305 302 300 302 304 306 307 306 307 308 308 305 308 315 326 329 333 334 335 339 346 350 348 349 350 349 349 350 350 349 348 349 347 347 344 342 340 339 337 336 335 334 332 328 324 322 325
311 311 301 299 300 303 305 307 307 306 307 307 306 307 308 316 319 326 330 333 336 339 344 347 342 343 345 346 347 348 348 348 348 347 345 346 344 342 340 338 336 334 333 332 330 327 323 320 322
308 305 301 302 301 301 304 308 305 305 305 306 309 305 309 311 319 326 328 333 337 340 342 343 346 345 337 342 343 344 345 346 346 345 345 344 342 341 339 338 336 335 333 332 329 326 323 319 319
310 306 300 301 300 300 306 306 307 306 305 309 310 305 306 308 314 324 321 322 322 325 333 339 341 344 345 348 337 339 341 343 343 342 340 337 336 335 334 333 336 334 333 331 328 325 322 316 311
310 301 299 299 300 302 307 304 307 309 307 308 308 307 306 309 313 316 317 316 316 315 316 319 325 336 339 342 340 335 335 338 338 338 333 331 341 337 334 330 334 335 333 331 328 324 320 312 308
306 301 300 303 304 304 306 305 306 305 305 305 305 307 308 309 310 310 310 310 310 311 312 313 316 320 332 338 342 344 345 345 345 344 344 343 341 339 334 326 328 330 330 331 328 323 319 320 314
305 301 301 302 305 306 305 304 307 304 303 305 305 305 305 306 307 307 307 308 308 310 312 314 315 315 320 335 340 344 344 345 343 342 342 342 341 337 335 331 329 329 324 328 327 325 326 322 317
302 303 303 304 305 304 304 306 304 304 303 304 304 304 305 304 304 304 305 306 308 310 312 315 317 318 317 330 338 340 341 342 341 341 341 340 341 338 333 331 331 330 331 327 326 326 326 322 318
303 304 304 306 305 305 304 303 304 303 303 303 303 303 302 303 303 304 305 307 308 309 312 315 318 320 320 322 337 339 336 331 329 330 332 335 335 335 334 331 330 330 328 329 327 323 323 323 320
304 303 304 304 304 304 301 303 302 301 303 302 301 301 301 301 301 303 303 305 306 310 312 313 316 322 320 327 332 326 326 325 323 325 328 328 329 328 328 326 326 326 326 326 323 319 317 319 320
303 300 304 304 304 302 303 299 299 302 302 301 300 301 300 299 300 300 302 304 307 309 307 309 317 325 324 321 318 319 319 318 317 316 319 322 325 324 323 321 318 318 319 316 315 312 312 315 314
301 301 298 303 301 301 301 298 300 301 300 301 301 300 299 298 299 300 302 304 307 303 305 309 314 314 312 310 310 310 312 310 311 311 313 316 318 320 319 316 314 316 314 314 311 309 311 312 311
300 296 298 299 302 300 300 300 300 300 300 301 300 299 298 298 298 299 301 304 302 302 304 306 309 308 306 304 304 304 305 307 309 311 312 313 314 314 312 312 313 313 310 308 308 306 306 307 308
297 297 298 297 300 299 299 299 299 299 300 300 300 299 298 297 297 298 300 303 301 303 304 305 307 306 305 305 304 303 302 303 304 305 305 307 308 310 311 310 310 309 308 308 309 308 308 306 305
300 298 297 300 300 297 299 299 302 299 299 299 299 298 297 297 297 298 300 303 301 302 302 304 306 305 307 307 305 304 301 300 298 299 300 300 302 303 304 304 304 305 304 304 305 306 307 306 305
298 296 296 300 298 296 298 298 302 300 299 300 299 297 297 295 296 297 299 301 301 302 303 304 306 308 309 307 304 301 298 297 296 295 295 295 296 296 297 298 298 299 299 298 299 301 302 303 303
296 295 296 296 296 297 296 295 298 302 299 298 298 298 297 296 295 295 297 298 300 300 301 302 303 304 303 302 299 298 298 296 294 293 292 293 294 294 294 294 294 294 294 293 293 294 294 297 298
293 299 297 295 293 291 297 289 298 300 294 294 294 295 295 296 296 295 295 296 296 296 298 299 299 300 301 303 301 300 295 291 291 291 292 292 293 292 292 293 293 293 292 292 292 292 292 292 290
295 298 296 295 293 293 294 289 295 296 291 291 293 294 295 295 294 293 293 293 293 295 295 296 296 296 297 297 296 294 292 292 291 291 291 291 291 292 290 291 291 290 290 291 291 291 291 290 289
298 295 293 293 293 287 292 291 293 291 292 293 293 294 294 294 293 292 292 291 291 292 293 293 292 292 293 293 294 293 291 291 291 291 290 290 290 289 289 289 289 288 289 289 289 289 289 288 289
296 293 288 286 284 284 292 292 294 297 295 295 293 293 294 293 292 290 289 289 290 290 290 290 290 289 291 292 292 292 292 292 290 290 290 289 288 287 287 287 287 287 286 287 288 288 287 287 286
292 294 289 283 285 288 286 285 292 295 296 295 295 294 294 292 291 290 290 290 289 289 289 289 289 288 289 289 290 290 291 290 290 289 289 287 287 286 286 286 286 286 286 285 286 286 286 286 286
293 290 297 288 283 283 288 291 295 292 291 293 293 293 292 291 291 290 290 289 289 288 288 288 288 288 288 289 289 289 289 289 288 288 288 287 286 285 285 285 285 285 285 284 284 284 284 285 285
295 297 287 288 282 281 287 289 290 288 289 290 292 291 292 291 290 290 289 289 289 288 288 288 288 288 288 289 289 288 288 288 288 287 286 286 285 285 284 284 284 283 283 283 283 283 283 282 283
290 289 291 292 290 286 284 287 295 295 293 290 291 292 292 291 291 290 290 289 289 288 288 287 288 287 287 288 288 288 288 287 287 287 286 285 284 284 283 282 282 282 281 281 281 281 281 281 281
296 292 292 287 285 288 287 289 292 296 296 294 292 292 293 293 292 291 290 289 288 287 287 287 287 287 288 288 288 288 287 287 286 286 285 285 283 283 282 281 281 280 280 280 279 279 279 279 279

GFSSGP_sfc_thetae_054.txt.gz
Theta_e
325 320 320 318 306 303 296 297 300 301 301 304 304 303 302 304 302 300 319 329 330 344 350 352 353 354 353 353 353 353 353 352 352 350 349 348 347 345 344 343 342 341 340 339 337 336 336 337 339
318 319 318 313 299 294 294 299 300 302 304 304 303 303 303 302 312 316 319 330 332 344 348 350 349 353 352 352 352 352 351 350 349 350 348 347 346 345 344 342 341 340 339 338 336 333 331 333 337
320 318 310 305 299 294 294 299 300 303 302 302 301 305 305 306 315 317 322 330 333 340 347 349 349 350 352 352 350 351 350 350 349 349 348 347 346 345 342 341 339 338 337 336 334 330 329 329 333
315 314 309 299 296 297 299 300 302 302 303 303 302 300 308 318 317 321 328 331 334 340 348 346 349 350 350 350 349 348 349 348 348 348 348 347 347 344 341 339 338 337 334 334 332 328 326 327 331
313 310 301 296 296 297 300 302 301 302 301 301 300 301 304 315 323 326 327 330 332 337 346 347 348 349 349 349 349 348 347 348 347 347 348 345 343 342 340 339 337 335 334 333 330 326 323 325 327
308 306 297 294 296 298 300 301 300 300 302 299 300 302 303 312 319 321 327 328 333 337 343 347 341 342 345 347 348 346 348 348 347 347 346 345 343 342 339 337 336 335 334 332 329 326 321 321 321
305 301 296 297 297 298 300 302 298 299 299 300 303 300 302 305 316 321 324 330 332 336 338 341 345 343 337 340 342 343 344 345 345 345 344 343 342 340 339 338 337 335 334 332 329 326 321 317 317
306 300 294 292 295 296 301 301 302 301 299 304 304 298 297 300 308 316 316 315 316 317 319 324 334 339 342 343 336 338 339 341 342 341 339 336 335 335 334 333 336 335 333 331 329 326 320 313 312
307 296 293 294 296 298 302 299 301 302 300 302 303 300 302 304 308 313 310 310 310 311 310 313 317 334 337 339 337 335 336 337 337 336 332 329 332 332 332 330 334 336 334 332 329 325 320 313 313
301 297 296 299 299 298 302 300 301 298 300 299 300 303 305 305 305 305 304 303 304 305 307 309 310 313 328 335 338 341 340 338 337 338 334 336 335 334 329 325 328 331 331 331 327 324 322 319 308
301 296 298 299 303 303 302 299 301 298 297 298 299 300 302 303 302 303 302 303 302 304 308 310 311 312 312 330 336 339 337 336 336 336 336 335 332 330 328 325 326 325 324 325 325 322 319 314 310
297 301 300 303 303 302 300 302 298 299 297 302 300 301 301 301 300 300 301 302 303 305 308 312 314 314 312 320 335 336 333 333 332 333 334 333 332 330 328 327 326 326 325 323 319 319 319 315 312
299 301 302 303 302 301 303 299 299 298 299 301 301 301 299 299 300 300 301 303 303 305 309 310 313 315 315 314 335 331 328 328 329 328 329 330 328 329 329 328 327 326 325 324 320 316 316 316 315
301 302 301 302 302 302 299 299 298 298 300 299 300 298 297 298 297 298 299 301 304 307 306 310 315 317 316 324 326 324 321 319 319 321 323 326 326 325 323 321 321 319 319 318 315 311 312 313 314
301 297 300 300 301 299 300 296 295 298 299 298 298 296 297 297 297 296 298 301 304 303 306 311 317 316 315 315 316 316 316 315 314 315 317 319 320 318 316 315 315 315 315 313 312 312 312 312 311
297 296 292 299 300 298 297 292 298 298 297 296 297 295 297 296 296 297 299 302 301 302 306 311 311 309 308 309 310 310 310 310 311 312 313 313 313 314 313 311 311 310 310 309 307 306 309 308 308
296 290 293 294 299 297 295 293 296 298 297 296 296 296 296 295 295 296 298 301 300 303 306 308 307 305 304 304 304 305 306 307 307 307 307 308 310 309 308 306 307 306 305 305 304 302 302 301 300
291 291 294 293 295 296 293 293 295 296 296 295 296 295 294 294 294 296 298 299 302 303 304 306 306 304 304 303 302 302 301 300 300 299 300 302 303 304 303 303 302 302 301 300 300 302 303 299 297
296 294 292 295 296 294 294 294 296 296 295 295 295 294 294 294 294 296 299 300 301 302 303 305 304 305 305 303 301 298 295 294 293 294 294 295 296 298 297 296 297 296 295 294 296 296 298 296 298
295 293 292 296 296 293 293 293 297 296 295 296 295 294 293 292 292 295 297 300 300 301 303 304 306 306 305 302 299 296 292 291 291 291 291 292 292 292 292 291 291 291 290 289 289 289 293 292 294
294 292 292 292 293 293 290 289 293 297 296 297 297 296 294 292 292 293 295 298 299 300 301 302 302 300 298 296 295 293 292 290 289 288 288 289 290 290 290 290 289 289 289 287 287 287 286 286 287
290 296 295 293 289 284 291 283 292 295 293 293 294 292 291 292 293 293 293 295 296 296 298 299 298 297 296 295 293 292 289 286 286 287 288 288 289 288 289 288 288 287 287 286 286 287 286 285 284
292 295 292 291 288 287 287 285 289 294 290 292 293 292 291 292 292 291 291 292 291 292 291 292 293 293 293 292 291 289 287 287 288 287 287 287 287 287 287 286 285 286 286 285 285 284 284 284 283
296 292 290 289 288 281 288 288 288 292 292 293 293 292 292 291 290 289 289 290 289 289 289 289 289 289 290 290 289 288 287 287 287 287 285 285 285 285 285 285 284 284 284 284 284 283 283 282 282
294 289 283 280 279 280 287 286 291 292 291 293 292 291 291 291 289 287 287 287 287 287 287 288 287 288 289 289 288 288 288 287 286 286 285 284 283 282 282 283 282 282 282 283 283 282 281 281 280
289 290 283 276 279 281 282 281 288 290 291 293 294 293 292 290 289 287 286 286 286 286 286 286 286 286 286 286 287 287 287 286 285 285 284 283 282 282 282 282 282 282 282 282 282 281 280 280 280
289 286 294 285 277 277 284 287 291 290 289 290 291 291 290 289 288 286 286 286 286 285 284 285 285 285 286 286 286 286 285 285 284 283 283 282 282 283 282 281 281 281 281 280 281 279 279 279 279
291 294 284 285 277 276 282 284 286 285 287 289 290 290 291 289 288 287 287 286 285 285 285 285 285 285 285 286 285 285 284 284 283 283 282 281 281 281 281 280 280 280 279 279 279 278 278 277 277
287 286 288 289 285 280 277 284 292 293 291 288 291 291 291 289 289 288 288 286 286 285 284 284 284 284 284 285 285 284 284 284 283 282 281 281 281 280 280 280 279 279 278 277 277 276 277 276 276
292 290 290 286 282 285 284 286 290 291 293 291 291 291 292 290 289 288 287 286 285 284 284 284 284 284 284 285 284 284 284 283 282 281 281 280 279 279 278 279 278 278 277 276 276 275 276 275 276

GFSSGP_sfc_thetae_057.txt.gz
Theta_e
319 313 311 311 300 294 289 293 296 297 297 298 302 303 301 302 302 297 318 327 343 347 349 351 352 354 354 353 353 353 352 352 351 350 349 346 346 344 343 342 340 339 339 338 335 335 337 340 341
313 317 312 304 294 287 288 293 296 298 300 302 302 300 301 303 312 315 318 328 344 348 350 351 348 352 353 352 352 352 352 351 350 349 348 346 345 344 343 341 339 337 337 336 334 332 333 336 339
317 314 303 299 291 288 289 293 296 298 299 299 299 302 303 306 312 315 321 329 345 345 349 349 347 351 351 351 350 351 351 350 349 348 347 347 345 342 341 339 337 335 335 334 331 330 330 334 335
308 307 302 294 289 292 293 295 298 298 299 301 300 300 308 316 315 319 327 332 337 342 348 345 348 350 351 350 350 349 349 349 348 348 347 347 344 342 340 338 336 334 334 332 328 326 327 328 331
306 301 294 290 289 292 294 298 298 298 297 298 300 298 303 314 321 323 325 332 335 343 347 347 347 347 348 349 348 348 348 348 348 347 347 346 343 340 339 337 336 335 333 331 327 324 323 324 324
302 298 291 288 288 293 295 296 297 296 296 298 300 299 300 310 318 319 327 327 335 341 345 346 339 342 345 346 347 347 347 347 347 346 345 345 343 341 338 337 337 335 334 332 328 322 320 319 319
298 293 289 291 291 293 296 298 294 296 296 297 300 297 299 303 312 318 316 315 316 321 331 340 343 339 337 341 342 343 344 345 345 345 345 343 342 340 340 338 336 335 333 332 329 322 317 315 315
299 294 290 291 291 292 297 298 299 298 296 301 300 296 294 299 308 312 313 311 309 310 313 315 330 341 342 340 335 337 339 340 341 340 338 335 335 335 335 333 336 335 333 331 328 322 318 315 315
299 290 287 290 291 294 297 296 298 299 299 299 300 298 300 303 307 309 307 306 306 308 308 309 311 325 336 341 337 336 335 335 335 334 331 328 332 332 332 330 334 336 334 331 328 325 320 314 314
295 290 291 293 294 294 298 297 298 296 296 296 297 300 302 303 304 302 301 300 301 302 306 309 309 310 322 334 340 341 338 338 336 335 332 333 332 330 330 326 328 330 330 330 328 326 322 314 306
296 291 294 296 299 299 298 297 298 296 293 295 297 298 300 299 300 300 299 300 301 303 307 310 311 311 310 330 334 338 337 336 333 333 334 333 330 328 327 326 325 323 321 322 321 319 315 310 307
292 297 297 301 300 299 297 299 296 296 296 299 298 299 298 298 298 299 299 300 301 304 307 309 311 313 310 314 333 331 330 329 329 330 332 332 331 329 327 326 326 321 320 318 316 315 316 312 310
295 297 299 301 300 298 300 297 296 295 296 298 299 299 297 297 297 298 300 301 303 305 306 308 311 313 314 313 330 328 326 325 326 326 329 330 330 329 328 326 324 321 320 319 316 312 312 313 313
297 298 298 299 300 299 297 296 297 295 296 297 298 296 295 296 296 296 298 299 303 304 304 308 315 315 319 324 323 320 320 320 321 322 324 323 324 322 320 319 317 317 316 315 312 309 311 310 310
298 293 296 297 298 297 297 294 294 296 296 296 295 294 295 295 296 295 297 301 302 302 304 311 311 315 315 316 316 316 316 316 315 315 316 318 318 316 315 313 312 312 313 311 310 311 310 309 309
293 292 289 296 297 296 296 290 296 295 295 294 294 292 294 295 295 296 298 300 300 302 305 309 310 308 310 311 311 311 311 312 312 311 312 312 313 313 311 309 307 308 307 307 305 306 304 301 300
291 286 289 293 297 295 293 290 293 295 294 293 292 292 293 293 293 295 298 298 299 301 305 305 306 305 305 305 306 306 305 304 305 305 304 306 307 307 305 304 303 302 300 300 302 300 298 296 295
287 287 290 290 294 293 291 291 293 294 293 293 292 292 292 292 292 295 297 298 299 301 304 305 304 304 304 303 301 300 298 298 298 297 297 299 300 300 300 297 296 296 294 294 296 296 295 293 293
291 289 288 291 294 292 291 291 293 294 292 291 291 292 292 292 292 295 297 297 298 300 303 304 303 303 303 301 298 296 293 293 292 292 292 293 294 294 293 292 291 290 289 288 290 294 290 289 290
292 290 289 292 294 292 291 291 293 293 294 294 294 293 292 290 291 294 295 296 298 299 303 304 305 304 304 301 297 294 291 290 289 290 290 290 290 291 290 289 289 288 288 287 286 287 287 286 287
291 290 289 290 291 290 288 288 290 294 295 294 295 295 293 291 290 292 294 295 297 300 303 304 305 300 297 295 293 291 290 288 287 287 287 288 289 289 289 288 287 287 287 285 285 285 285 283 285
289 293 293 292 288 283 288 283 288 291 292 292 294 293 291 290 291 293 294 294 297 299 300 300 299 296 295 295 292 290 288 285 284 285 286 287 287 287 287 287 286 286 286 284 284 285 283 283 281
290 292 291 290 286 284 284 282 286 292 292 291 293 290 290 290 291 292 293 295 296 296 296 296 297 296 295 294 290 288 286 286 286 285 285 285 285 285 285 285 284 284 284 283 283 282 282 282 281
294 292 290 287 286 280 285 285 286 289 293 294 294 290 289 290 291 291 291 290 293 292 292 292 292 289 289 289 288 287 286 285 285 284 283 283 283 283 283 283 283 283 283 282 282 281 281 281 281
293 289 282 279 278 280 285 284 290 292 292 294 293 291 289 290 290 289 288 288 289 289 287 287 288 287 288 288 288 287 287 286 285 284 283 282 282 281 281 282 281 281 282 282 282 281 280 280 279
289 288 281 275 277 279 283 280 287 292 291 292 293 292 290 289 289 288 287 287 287 287 286 285 286 286 286 287 287 287 287 286 285 284 283 282 282 281 281 281 281 281 281 281 281 280 280 279 278
287 286 292 286 274 275 283 286 291 289 289 289 290 290 288 288 287 286 286 286 286 285 285 286 285 285 286 286 287 286 286 285 284 283 282 282 281 282 281 280 280 280 280 280 279 279 278 278 277
290 292 284 283 273 274 280 282 286 286 289 288 287 288 288 288 287 286 285 286 285 285 284 285 286 285 286 286 286 285 284 283 283 282 281 280 281 281 280 279 279 279 279 279 278 277 277 276 276
287 286 287 288 283 277 275 284 289 292 292 289 288 290 289 288 286 286 286 285 285 284 284 284 284 284 284 285 284 284 283 283 282 281 280 280 280 279 279 279 279 278 277 277 276 276 276 276 276
289 289 288 285 281 281 281 286 289 289 291 291 290 290 290 289 287 286 286 285 284 284 284 283 284 284 284 284 284 283 283 282 281 280 279 279 279 279 278 278 278 277 277 276 276 275 275 275 275

GFSSGP_sfc_thetae_060.txt.gz
Theta_e
320 311 309 309 298 292 288 291 293 295 295 297 302 303 301 301 301 293 316 334 342 346 348 350 352 354 353 353 353 353 352 351 350 348 346 345 343 341 341 339 337 338 337 336 335 337 340 340 341
316 314 310 301 291 286 287 291 294 296 298 301 301 299 302 303 311 314 317 339 345 347 349 349 348 352 353 353 352 351 351 350 349 348 346 345 343 341 340 337 336 336 335 334 333 334 337 337 338
314 311 303 295 288 287 288 292 294 297 299 297 298 303 304 306 311 313 319 339 345 346 347 346 347 351 351 351 351 351 351 350 349 348 346 345 342 341 339 336 335 335 333 331 330 330 331 333 335
307 306 300 291 287 289 293 294 296 296 297 300 301 300 309 314 314 318 326 343 342 345 347 345 347 350 350 350 350 350 350 349 348 348 347 344 342 340 338 336 334 333 330 328 326 326 326 327 329
304 299 292 288 287 291 292 295 297 296 295 297 298 298 304 313 318 323 328 339 339 341 345 345 345 347 349 349 349 348 348 348 349 347 346 343 341 339 338 337 336 334 331 327 323 322 322 322 324
300 295 289 287 287 291 292 297 297 294 295 298 299 298 300 309 317 321 323 323 332 344 344 345 340 342 344 346 347 347 347 348 347 347 346 343 341 339 338 337 335 334 333 329 321 319 318 319 320
296 291 288 287 289 291 295 297 295 294 295 295 300 297 300 304 317 316 314 313 316 325 330 339 342 340 338 340 341 343 344 344 345 344 344 342 340 340 338 337 334 333 332 329 322 319 317 317 318
296 292 289 289 289 291 295 295 296 296 295 299 298 295 296 301 312 312 309 308 307 310 312 317 335 339 339 339 336 337 339 340 341 340 338 335 335 336 336 333 335 334 332 328 324 320 317 316 316
296 289 286 287 290 292 295 294 297 297 297 296 298 297 298 303 309 306 304 304 305 307 308 309 314 328 338 341 337 334 334 335 335 334 330 329 333 333 332 330 334 334 332 329 327 323 318 314 315
294 288 289 292 292 293 295 295 297 295 294 294 295 298 301 302 305 303 300 300 300 303 307 309 309 311 324 335 341 341 338 339 338 336 332 332 332 330 330 326 328 329 328 330 327 323 318 311 304
293 290 292 294 296 297 297 295 297 294 292 295 296 298 299 299 300 299 298 299 300 302 307 310 311 311 310 328 335 338 336 335 335 333 332 332 329 328 326 325 322 321 319 318 318 315 311 308 306
290 295 295 298 298 297 296 297 295 295 295 298 298 298 297 297 297 298 299 300 301 304 304 308 310 311 311 316 332 333 331 330 330 332 334 330 328 326 326 325 320 319 317 314 313 314 313 311 308
292 295 297 298 298 297 298 296 295 295 295 296 298 298 297 296 297 297 299 300 303 304 303 306 309 311 313 313 329 328 327 326 326 329 331 331 328 327 326 323 321 319 316 314 311 310 310 310 311
296 296 296 298 298 298 296 295 295 294 295 295 296 295 295 296 296 295 298 300 303 303 303 307 312 313 317 326 323 322 322 322 321 323 323 325 325 322 319 317 316 313 313 311 310 308 308 307 309
296 292 294 296 297 296 296 293 294 294 294 294 294 293 294 295 296 295 297 300 302 302 304 308 314 315 317 318 317 317 317 317 316 316 317 318 318 317 315 313 311 312 310 308 307 308 306 304 303
291 291 288 293 295 295 295 289 295 294 294 293 293 291 293 294 294 294 297 300 300 301 304 307 311 311 312 313 313 312 313 313 312 313 313 313 313 312 310 308 307 308 307 305 303 302 300 297 297
289 285 287 291 295 293 292 290 293 293 293 292 291 291 292 292 292 294 298 298 299 301 303 303 307 307 309 308 306 305 305 305 306 306 308 308 307 306 304 301 300 299 299 299 298 294 293 292 294
285 285 287 288 292 291 289 290 292 293 292 292 291 290 291 292 292 294 297 298 299 301 302 302 304 305 305 303 301 299 298 297 299 299 299 300 300 299 296 294 292 293 294 294 293 290 289 289 292
289 287 287 290 294 291 290 291 293 292 290 290 290 291 291 292 292 294 296 297 298 299 300 301 303 303 303 301 299 297 294 294 294 294 292 293 293 293 291 290 289 289 289 288 289 289 286 286 287
290 287 288 290 293 291 290 289 291 292 292 293 293 292 293 290 290 293 294 295 297 299 300 301 303 303 303 301 296 294 292 291 291 291 290 290 290 289 289 288 287 286 286 285 284 285 284 284 284
289 288 287 289 290 289 287 287 289 292 293 293 295 296 295 293 290 292 293 294 295 297 300 302 303 303 297 293 292 290 290 290 289 288 287 287 288 288 287 286 286 285 285 283 282 283 283 281 283
287 292 291 290 287 283 287 282 287 290 291 291 295 294 294 291 292 293 294 294 296 298 304 305 303 297 295 294 292 291 290 288 287 284 285 286 286 286 286 285 285 284 284 283 283 283 282 282 280
290 292 290 288 285 282 282 281 285 289 289 292 295 293 292 291 291 292 294 296 297 299 299 300 297 296 294 294 293 291 288 286 285 284 284 283 284 284 284 284 284 283 283 282 282 281 281 281 280
293 290 289 286 284 279 285 284 285 287 291 292 296 293 291 290 291 293 294 295 294 295 295 297 295 294 294 292 290 289 286 284 284 283 282 282 282 283 283 284 283 283 282 281 281 281 281 281 280
291 288 280 279 277 279 284 282 289 290 293 293 295 292 289 290 290 291 291 293 292 292 294 295 294 292 291 290 288 288 286 285 284 283 282 282 281 280 280 281 281 281 281 281 281 281 280 280 279
288 287 281 274 276 279 282 280 286 291 293 294 292 291 289 288 290 290 292 292 291 291 292 292 291 289 289 288 287 286 285 284 284 283 282 282 281 281 281 281 281 281 281 281 280 280 279 279 278
287 285 290 285 272 275 282 285 291 290 291 290 292 288 286 288 289 289 290 290 290 289 290 290 290 288 288 287 286 285 285 284 283 282 282 281 281 281 280 280 280 280 280 279 279 279 278 277 277
289 291 283 282 273 273 280 281 286 288 289 291 289 287 286 287 286 287 288 288 288 287 287 288 289 287 286 286 286 285 285 284 283 282 281 281 281 281 280 279 279 279 279 278 278 276 277 276 276
286 285 286 286 281 276 274 283 289 291 291 290 291 288 287 287 286 286 286 287 286 285 285 285 285 285 285 286 286 284 284 283 283 281 281 281 280 279 279 279 278 278 277 277 276 276 276 276 276
288 288 287 283 279 282 280 286 289 291 292 292 292 289 288 288 286 286 285 285 284 283 284 284 284 284 285 285 284 284 283 282 281 280 280 280 279 279 279 278 278 277 277 276 276 275 276 275 275

GFSSGP_sfc_thetae_063.txt.gz
Theta_e
318 311 308 306 296 291 287 289 291 293 294 298 302 299 298 302 298 292 314 324 338 343 347 347 349 352 352 352 352 351 351 350 347 346 345 342 341 340 338 338 337 336 336 335 338 340 340 341 340
316 312 308 298 289 285 287 290 293 294 299 301 300 299 303 302 310 314 317 337 344 345 347 347 348 352 352 352 351 350 351 350 347 345 344 343 341 339 337 337 336 334 333 334 335 336 337 339 336
311 308 301 292 287 286 287 291 292 297 299 295 298 303 304 305 310 312 319 341 344 344 346 346 347 351 352 351 351 351 349 349 348 346 344 342 340 338 336 335 333 331 330 329 330 331 333 334 334
306 304 297 290 287 288 291 293 293 296 294 299 301 300 308 312 312 316 326 341 341 343 345 343 347 351 351 350 350 350 350 349 348 346 344 342 340 338 336 335 332 329 326 326 326 326 329 330 330
301 297 290 287 289 291 290 294 294 295 294 295 297 299 304 311 317 324 334 340 338 341 343 343 345 347 347 348 348 349 349 348 348 346 343 341 339 338 337 336 334 332 325 323 323 323 325 325 326
298 294 288 285 286 289 292 294 294 293 295 296 299 299 304 308 318 318 327 327 333 340 342 343 338 341 344 347 347 347 347 347 347 346 342 341 339 338 337 335 334 333 326 321 320 320 322 322 322
295 291 287 286 287 289 293 295 293 294 295 295 301 297 301 306 315 314 314 315 320 334 338 339 340 338 337 340 341 343 345 344 345 344 343 341 340 339 336 335 334 332 328 324 320 319 319 319 319
294 291 285 287 288 289 294 294 294 295 293 297 297 295 300 304 313 309 308 308 309 314 317 325 337 337 338 339 334 336 339 340 341 340 337 335 335 336 335 332 334 332 329 326 321 320 318 318 317
293 287 285 287 289 291 294 293 295 295 296 294 296 297 298 308 308 306 305 305 307 309 310 311 323 337 339 340 335 332 333 335 335 334 331 329 334 333 332 329 333 332 330 328 324 320 317 313 314
292 286 289 291 291 292 294 293 296 294 293 292 294 297 299 306 304 306 306 305 303 304 310 309 312 317 325 339 339 339 337 338 337 336 332 332 332 331 330 325 327 328 328 328 324 320 315 308 302
290 288 291 293 295 295 295 293 294 293 291 294 295 297 298 301 303 303 301 302 302 303 307 309 311 313 314 328 336 339 337 337 336 334 332 331 329 328 324 325 322 318 317 316 315 311 309 306 305
291 293 292 296 296 296 294 295 293 293 295 296 297 298 297 299 300 299 298 299 301 304 305 308 309 311 311 313 332 333 332 332 334 333 331 329 327 326 324 323 321 317 315 312 312 311 311 309 308
291 293 295 296 296 294 296 295 294 294 294 295 297 297 297 297 298 297 298 299 301 303 303 306 307 310 312 311 330 329 328 328 330 332 331 329 326 325 325 322 320 315 313 311 309 308 308 309 308
294 294 294 296 296 295 295 293 294 294 294 294 296 296 295 296 296 295 297 298 301 303 303 306 310 311 312 320 325 324 323 323 324 325 328 328 327 324 320 317 315 313 313 309 308 306 305 306 305
295 291 293 294 295 295 295 292 293 294 294 294 294 294 294 295 295 296 297 298 301 302 303 307 310 315 317 320 319 318 318 318 317 317 319 320 320 318 315 313 312 310 311 308 307 305 303 303 304
290 290 287 291 294 294 294 289 294 294 293 293 292 291 293 294 295 295 296 297 300 300 303 306 313 313 315 315 314 314 314 314 313 313 314 314 314 313 311 310 308 308 306 303 299 297 297 298 300
288 284 286 290 294 292 291 289 292 292 292 292 291 291 292 292 293 293 294 298 299 300 303 303 309 310 311 309 307 306 307 308 308 310 309 309 309 308 307 305 303 303 300 295 293 291 293 295 296
284 284 286 286 290 290 288 289 292 291 291 292 290 290 290 292 294 293 294 297 298 299 302 302 307 307 305 304 301 301 300 300 302 303 304 304 302 301 299 297 297 296 293 290 289 289 289 290 293
288 286 286 289 292 290 289 290 293 292 290 290 290 291 291 292 294 292 295 296 297 298 300 300 305 304 303 301 301 300 297 296 296 297 297 297 295 294 292 292 290 289 289 288 287 286 289 286 286
288 286 286 289 291 290 289 289 291 291 291 293 293 293 292 293 290 292 294 295 296 298 299 300 305 303 303 304 297 294 295 292 292 293 292 292 290 289 289 288 286 286 285 284 284 284 283 282 283
288 286 285 287 289 288 286 286 288 291 293 292 294 296 295 294 292 291 293 294 296 297 299 300 304 304 302 296 293 291 291 291 290 290 289 289 288 287 287 286 285 284 284 282 282 282 282 280 282
286 290 290 288 286 282 286 282 286 289 290 291 294 294 295 294 292 292 293 294 296 298 299 301 303 302 295 295 294 294 294 292 289 288 287 286 285 285 285 284 284 283 283 282 281 282 281 281 279
289 291 289 287 284 282 281 281 285 287 288 291 294 295 295 293 292 291 293 295 297 298 300 303 301 295 295 294 294 294 293 288 287 287 286 283 283 283 283 283 282 282 282 281 281 281 281 281 280
292 289 287 285 283 278 285 284 284 286 291 291 295 295 293 291 290 291 293 295 296 298 303 303 295 294 294 293 293 291 287 286 285 285 284 282 282 282 282 282 282 282 282 282 281 281 280 280 280
290 288 280 278 276 279 282 281 288 290 291 293 294 295 291 289 288 289 291 294 295 297 299 298 295 292 293 293 291 289 288 287 286 284 282 281 281 281 280 281 281 281 281 281 281 280 280 280 280
288 287 281 273 275 278 282 280 286 290 292 292 292 292 289 287 288 289 292 294 294 296 298 297 293 292 292 291 289 289 288 287 286 284 283 282 282 281 280 280 281 281 281 280 280 280 279 279 278
286 284 289 283 271 274 281 284 289 290 290 291 291 288 286 287 287 289 291 293 294 294 295 294 293 292 291 290 289 287 287 286 284 282 281 281 281 281 280 281 281 280 280 280 279 279 278 278 277
288 290 283 281 273 270 279 280 284 288 289 291 291 289 288 287 286 287 289 291 291 292 291 291 292 290 290 289 288 287 286 285 282 281 281 280 281 281 281 280 280 280 279 279 278 277 277 277 276
286 285 284 285 281 276 273 283 288 290 292 292 291 292 289 287 286 286 288 288 289 288 287 287 289 290 288 288 287 286 285 282 282 281 281 281 281 280 280 280 279 279 278 278 277 277 276 276 276
287 286 287 282 279 281 280 285 289 290 290 291 292 291 287 287 286 285 286 286 285 285 285 286 287 288 288 287 286 285 283 281 280 280 280 280 280 279 279 279 279 278 278 277 277 276 276 276 276

GFSSGP_sfc_thetae_066.txt.gz
Theta_e
318 309 308 304 295 290 286 288 290 292 292 297 299 296 296 300 296 290 312 325 339 341 344 346 348 352 352 352 350 350 350 347 345 343 342 341 339 338 338 337 336 336 337 339 340 341 341 342 342
313 310 305 296 289 285 286 288 291 293 300 301 299 299 302 300 309 314 317 334 340 343 345 345 347 351 351 351 350 350 350 348 345 342 342 341 338 338 337 335 334 334 334 335 338 340 338 341 340
309 306 301 291 285 285 286 290 291 295 299 294 299 304 303 304 309 312 318 338 342 343 345 345 346 351 350 350 349 350 349 349 346 344 341 340 338 336 334 332 330 329 330 331 334 336 336 337 338
305 303 295 289 288 289 291 292 293 296 294 298 301 300 306 313 312 316 328 340 340 342 344 343 347 351 350 350 350 349 348 348 347 344 341 340 338 337 335 332 328 327 327 327 329 332 332 333 334
300 296 289 286 287 290 289 293 294 294 292 295 298 298 303 311 315 322 331 338 337 339 342 342 345 347 349 348 349 349 348 347 346 343 341 340 339 338 336 335 331 325 324 324 326 328 328 329 329
297 293 287 284 286 290 292 293 294 291 293 295 299 302 304 306 316 317 332 330 334 339 341 341 338 341 344 346 347 347 348 345 345 343 341 340 339 337 335 335 332 326 322 322 324 324 324 324 323
294 290 286 286 286 289 292 294 292 293 294 295 301 299 300 304 313 315 319 320 328 337 338 339 339 338 337 340 341 343 345 345 344 343 342 340 339 337 336 335 332 329 325 323 322 321 321 321 320
292 291 284 285 287 288 293 293 293 295 293 296 297 295 298 305 312 310 311 312 315 324 328 333 336 337 337 338 334 336 339 340 341 340 337 334 334 334 333 331 332 330 327 324 322 320 320 318 316
291 287 284 286 287 290 292 292 292 293 295 293 295 297 299 310 308 308 308 308 310 313 317 318 330 336 338 339 335 332 334 335 335 334 330 329 333 331 328 329 332 331 328 325 321 318 315 314 313
290 285 287 290 289 291 292 292 294 294 292 292 293 296 301 307 305 310 311 312 309 308 310 313 317 327 332 339 338 337 336 337 337 336 332 333 332 331 329 323 326 327 326 324 321 318 314 308 302
289 287 290 292 293 294 293 292 294 293 290 294 295 296 301 304 305 309 310 310 309 305 308 312 311 314 319 329 335 336 332 335 336 333 332 332 329 328 326 323 321 317 315 313 312 309 308 306 305
291 291 291 294 295 294 292 294 292 292 294 294 296 297 298 303 304 306 306 304 302 304 306 308 311 310 313 317 332 335 335 335 334 332 330 329 327 325 324 322 320 317 315 310 309 309 308 307 307
291 291 293 294 294 293 295 293 293 293 295 294 295 297 297 299 301 300 300 300 300 302 304 306 307 310 311 311 325 330 331 331 333 331 330 329 327 325 323 321 318 315 313 309 308 307 307 307 306
292 293 293 294 294 294 293 292 295 295 293 293 295 295 296 297 299 296 297 298 299 302 302 304 307 310 312 313 327 326 326 326 328 330 329 327 327 324 321 317 315 313 312 308 307 307 306 306 304
293 291 292 292 293 293 295 291 292 295 292 294 294 294 294 295 296 297 298 297 299 301 302 304 308 311 310 315 321 321 320 320 319 320 325 325 324 320 318 315 313 312 311 308 306 304 305 304 301
289 289 286 290 293 292 293 288 293 292 293 293 292 292 293 294 295 295 296 297 299 300 301 305 311 311 315 313 316 316 316 316 315 316 317 319 318 317 315 312 310 309 306 303 301 298 299 299 297
287 283 284 289 293 290 290 288 291 290 291 292 291 291 292 292 293 293 294 296 298 299 301 303 307 309 312 311 309 309 310 311 311 312 313 314 314 314 311 307 305 303 299 298 298 293 297 295 292
283 283 284 285 289 288 288 289 292 291 291 291 291 291 291 292 294 295 293 294 297 298 300 302 307 309 307 304 303 303 303 303 305 307 307 309 308 306 305 303 300 296 294 293 292 293 290 292 290
286 284 284 286 291 288 288 289 292 292 289 290 290 291 292 292 296 293 293 295 296 297 299 300 306 305 304 303 304 303 300 299 298 299 301 300 299 300 300 297 294 292 291 290 292 292 291 287 288
286 285 284 287 289 289 288 288 291 292 291 292 294 293 293 293 291 291 292 294 296 297 301 300 306 303 305 305 300 299 297 294 294 294 294 294 295 295 296 293 289 287 287 288 287 287 283 282 282
286 285 284 286 287 287 285 285 287 290 291 292 293 295 295 295 295 291 291 293 295 296 301 302 306 304 304 298 294 293 294 293 292 291 291 290 291 291 290 287 286 284 285 286 284 284 283 280 280
285 289 288 286 285 281 284 280 285 288 290 290 293 293 294 295 293 291 292 292 295 297 300 301 306 304 301 296 296 297 299 296 293 290 289 288 289 287 285 285 284 283 282 282 281 281 281 281 279
287 290 288 286 283 281 281 280 284 285 287 291 294 295 294 294 292 291 292 294 295 297 300 301 305 303 297 297 297 298 297 290 289 288 287 286 286 285 283 283 282 282 281 281 281 280 280 280 279
291 288 286 284 282 278 283 283 282 285 289 290 295 294 293 291 291 290 290 292 294 297 300 301 303 298 296 296 297 298 290 289 287 286 285 285 284 282 282 282 281 281 281 281 281 280 280 280 280
288 287 280 277 276 278 281 280 287 289 291 292 294 295 290 290 288 288 289 291 293 295 299 302 299 296 295 295 295 292 291 290 289 286 285 283 283 281 280 280 280 280 280 281 281 280 280 280 280
287 286 279 272 274 277 282 279 285 290 291 291 291 291 289 289 288 288 289 291 293 295 300 302 297 295 293 294 292 291 290 291 290 287 286 285 284 281 280 280 280 280 280 280 281 280 280 279 279
285 284 288 282 271 274 280 283 288 290 290 291 291 288 288 290 288 287 289 291 292 295 299 299 296 294 292 291 290 288 289 289 287 286 285 284 283 281 280 280 280 280 280 280 280 280 279 279 279
287 289 282 280 273 269 278 280 283 288 290 291 291 290 290 288 287 287 288 290 291 294 296 296 296 294 291 290 289 289 289 288 287 284 282 282 282 281 280 280 280 280 280 279 279 278 278 278 277
285 284 283 284 280 275 272 282 287 289 290 291 290 291 290 289 287 286 287 289 290 291 289 291 293 291 290 289 289 288 287 286 284 283 282 282 281 280 280 280 280 279 279 279 278 278 277 277 277
285 286 286 281 278 280 280 285 289 289 290 290 290 291 289 288 287 286 287 287 287 288 288 289 290 290 289 288 288 287 286 284 283 283 282 281 280 280 280 280 279 279 278 278 278 277 278 277 276

GFSSGP_sfc_thetae_069.txt.gz
Theta_e
321 312 312 307 301 296 292 294 297 297 298 302 301 300 301 304 299 296 317 335 340 344 347 347 348 352 352 351 351 350 348 346 343 342 340 339 339 339 338 337 337 339 340 341 342 343 343 342 340
315 312 308 300 294 290 291 294 295 297 303 304 304 305 306 306 313 318 325 333 343 345 347 348 346 351 351 351 350 349 348 345 343 342 340 339 338 337 335 335 334 335 337 340 340 342 342 339 338
312 307 306 296 289 289 290 294 296 300 302 300 304 308 307 308 313 319 323 336 344 345 347 347 347 351 352 350 349 349 348 346 343 342 340 338 336 334 332 331 330 331 333 337 339 340 340 337 335
308 306 298 294 292 294 296 296 297 300 301 302 305 305 311 316 316 320 334 341 344 345 346 345 347 350 351 350 348 348 348 348 344 342 340 339 338 335 331 328 328 328 330 334 334 336 336 332 329
302 299 293 291 292 294 294 297 299 298 298 301 302 302 309 315 318 326 336 342 342 344 346 346 345 347 348 349 348 347 347 347 344 342 340 339 338 337 335 328 326 326 327 329 330 331 329 325 323
300 297 291 289 291 294 296 296 299 297 298 300 302 305 308 311 321 326 338 340 342 344 344 345 339 342 344 346 347 347 346 346 344 342 340 339 337 336 335 330 326 325 326 326 326 326 325 322 320
298 294 291 289 290 294 296 296 296 297 298 300 305 302 306 310 321 324 330 333 340 343 343 343 344 341 337 340 342 343 344 344 343 342 342 340 337 337 335 333 329 326 324 323 323 322 321 319 318
295 293 290 289 290 293 295 296 297 298 298 301 304 300 303 312 317 318 321 324 332 339 340 341 342 342 343 343 334 337 339 340 340 339 336 334 333 333 332 330 330 327 324 322 321 320 319 317 316
296 291 288 290 290 293 294 295 296 298 298 299 300 301 304 313 312 315 316 317 321 324 332 337 340 341 341 341 336 332 334 336 335 334 330 329 333 332 331 328 329 327 324 321 319 318 317 315 314
292 289 290 292 292 293 295 295 296 297 297 298 298 300 305 311 311 316 318 319 319 319 319 326 333 336 339 339 339 339 338 342 340 338 334 335 332 333 328 324 324 325 323 321 320 317 313 309 308
292 289 291 293 294 296 295 294 296 295 294 297 299 299 303 309 310 316 318 320 318 317 316 318 318 320 326 334 340 339 339 340 338 335 334 333 330 329 325 324 321 319 315 315 314 313 311 309 308
291 292 292 296 297 295 294 295 294 294 298 299 298 300 304 309 310 314 317 316 312 312 314 313 316 316 318 322 333 341 338 337 337 334 333 331 329 327 323 322 320 317 316 314 315 313 311 308 306
292 293 294 295 295 294 296 295 295 295 297 298 297 298 302 309 311 308 312 312 309 310 311 312 312 315 316 317 327 333 337 338 338 333 333 331 328 325 324 320 318 316 314 313 313 312 310 306 303
294 294 294 295 295 295 295 293 295 296 296 297 297 297 300 304 309 305 304 307 305 307 308 310 311 313 315 316 326 330 332 331 333 332 332 329 328 325 322 318 317 314 313 312 312 310 306 303 300
294 291 293 293 294 295 295 293 294 295 295 296 296 296 297 299 300 306 307 304 303 304 306 307 310 314 314 315 325 326 327 327 327 329 328 328 328 323 320 317 316 316 312 309 308 307 303 300 296
291 290 287 291 293 294 294 289 294 294 295 296 295 295 295 297 298 300 302 302 302 303 304 306 311 314 315 317 322 322 320 321 321 322 327 326 324 322 318 316 315 312 309 307 306 304 301 298 293
288 284 285 289 293 292 292 290 293 293 293 293 294 294 294 295 296 297 299 300 301 302 304 305 311 313 314 315 316 317 315 316 317 317 319 321 321 319 317 314 310 307 304 304 302 301 299 293 290
284 284 285 286 290 290 289 290 293 293 292 293 294 294 293 295 297 299 297 298 299 301 303 306 309 311 311 310 309 307 308 307 311 312 312 315 315 314 313 308 304 302 300 299 299 298 296 292 289
286 285 284 287 291 290 289 289 293 293 291 292 293 293 295 295 299 297 297 297 297 300 301 304 308 309 308 308 307 305 305 303 302 304 304 305 308 308 308 303 298 299 300 299 298 297 292 289 289
286 285 285 288 289 290 289 289 292 293 292 294 296 297 296 297 295 295 295 295 297 299 301 303 307 307 307 310 306 303 302 298 298 297 299 301 300 303 303 300 295 296 296 297 298 295 291 290 291
286 285 285 287 288 288 286 285 288 291 293 295 295 297 298 297 297 295 293 294 296 298 300 303 307 306 307 306 298 296 297 295 294 294 294 295 300 299 297 296 293 295 298 297 297 294 292 289 287
284 289 288 287 286 282 286 280 286 289 291 291 294 295 296 297 296 295 293 293 295 297 301 303 307 305 305 299 301 301 301 298 296 295 293 292 294 294 295 291 290 294 297 295 294 292 291 290 287
287 289 288 286 284 282 282 282 285 287 288 292 295 297 297 294 294 294 293 295 296 297 299 303 305 305 303 300 302 303 303 300 295 292 290 290 289 290 288 288 288 290 292 292 291 288 288 290 287
290 288 286 284 283 279 282 283 282 285 289 291 293 296 294 293 293 293 292 293 294 297 299 302 304 304 300 300 300 303 301 292 291 290 288 288 288 286 286 285 286 287 287 287 287 287 287 286 286
288 286 279 277 276 278 281 280 284 289 289 292 294 295 292 293 293 291 290 291 293 295 298 301 303 303 299 299 300 301 297 295 293 291 289 286 285 284 284 284 285 285 285 285 285 285 285 285 285
287 286 279 272 274 277 281 279 285 290 292 292 291 291 291 293 292 291 290 291 292 295 297 300 301 301 298 298 298 299 296 295 294 292 290 289 288 286 284 283 284 284 284 284 284 284 284 284 284
285 283 286 282 270 275 281 283 288 289 290 291 292 290 291 292 292 291 290 291 292 294 297 299 301 300 297 297 296 293 293 294 292 290 289 287 287 284 283 283 283 283 283 283 283 283 282 283 283
287 289 282 280 273 270 279 280 284 288 290 292 291 292 292 292 291 290 289 290 292 294 297 300 301 298 295 296 293 293 292 292 290 288 286 286 284 283 282 282 283 282 282 282 283 282 282 282 281
285 284 283 284 280 275 274 284 286 289 290 291 292 292 292 292 291 290 289 290 291 293 295 298 296 293 292 293 292 291 290 290 288 287 285 284 283 283 282 282 282 282 281 281 281 281 281 280 280
284 284 285 281 278 279 279 285 288 289 289 290 291 291 290 291 290 289 289 289 289 291 291 293 294 293 292 292 291 290 289 289 287 286 284 283 282 282 282 281 282 281 281 281 281 280 280 280 279

GFSSGP_sfc_thetae_072.txt.gz
Theta_e
325 321 325 321 308 306 300 300 303 302 303 307 308 307 308 308 304 303 328 341 343 344 345 347 349 352 350 349 349 348 347 344 342 341 340 340 339 338 338 339 340 341 342 342 345 345 342 339 337
321 318 321 315 304 298 300 302 301 304 307 309 309 310 308 308 319 326 332 341 344 345 345 346 347 351 350 349 349 348 347 343 342 340 339 338 337 336 335 336 337 339 341 344 344 342 339 337 335
317 314 316 311 304 298 299 302 304 306 309 307 308 313 311 311 320 330 335 343 344 345 346 346 347 351 351 350 349 348 346 344 342 340 338 336 334 333 332 332 334 337 338 341 343 339 336 333 332
318 315 310 304 300 301 301 304 305 307 305 306 309 308 315 321 325 327 337 344 344 345 347 346 348 350 350 348 348 348 347 344 342 340 339 338 335 331 330 329 331 334 335 337 338 334 330 328 329
316 313 304 301 300 301 303 304 307 305 305 307 310 306 312 320 324 330 341 342 343 344 347 347 346 348 348 348 348 347 347 345 342 341 340 339 337 331 328 328 329 331 332 333 331 327 325 325 326
311 310 302 299 299 301 303 305 307 306 304 306 306 308 312 322 325 331 342 341 344 344 346 344 339 342 345 347 346 346 345 345 342 341 339 338 337 332 328 327 328 328 329 329 327 324 322 323 324
309 307 301 300 299 300 303 305 306 306 304 306 310 306 312 319 329 335 342 343 345 345 346 345 344 342 337 341 342 342 343 343 343 342 340 338 337 335 331 330 327 326 326 325 323 321 320 322 324
310 308 299 300 299 300 303 304 305 306 305 308 313 306 307 319 329 337 340 342 343 344 345 344 345 345 345 346 335 337 340 340 340 339 335 332 332 331 330 328 327 325 324 322 321 319 319 321 322
304 302 299 300 298 301 302 302 302 304 305 307 310 307 311 324 327 333 334 336 340 342 343 344 344 344 345 345 339 334 334 335 335 333 329 328 333 332 330 326 326 323 322 321 320 319 319 319 318
305 302 301 302 303 302 302 303 304 303 304 305 306 308 309 321 326 330 331 331 334 338 342 343 344 343 344 344 343 344 343 344 341 339 334 335 335 333 328 323 323 323 321 320 318 316 314 317 318
301 300 299 300 301 302 302 301 304 303 302 306 307 309 308 320 324 328 329 331 333 337 338 337 342 344 344 344 342 344 342 345 343 339 337 334 331 329 326 322 322 322 318 318 317 316 315 316 316
299 299 300 301 303 302 301 302 302 303 307 306 309 309 309 315 321 325 327 330 332 334 334 335 331 329 332 336 343 345 342 341 339 337 337 332 330 328 325 322 319 319 319 318 319 316 314 313 313
300 300 300 302 301 302 301 302 302 302 307 306 305 304 308 312 319 323 327 331 331 329 330 329 332 330 329 330 333 342 342 341 341 337 337 332 332 328 325 322 319 317 317 317 316 314 312 310 309
301 301 301 302 302 302 300 301 301 305 306 304 304 306 307 310 315 321 323 326 327 328 328 328 325 328 328 330 336 338 343 341 342 339 338 334 331 327 323 321 318 317 318 317 316 313 309 306 304
301 299 301 301 301 301 302 300 299 306 303 304 304 306 306 307 312 317 320 323 327 326 326 324 324 324 325 326 328 337 339 336 340 341 340 337 331 326 323 320 318 317 316 317 311 306 301 298 296
299 299 296 299 299 300 301 297 303 302 303 304 306 307 306 306 308 313 319 322 324 324 321 322 318 320 323 324 326 330 333 333 336 335 335 333 329 327 323 319 318 319 314 314 306 302 298 295 295
298 294 294 296 300 299 299 298 303 302 301 303 305 306 306 306 307 308 312 317 319 319 318 318 317 318 320 321 323 330 329 328 326 330 332 331 328 325 324 321 320 314 311 310 306 301 297 295 294
293 293 293 294 297 297 298 297 302 303 301 303 305 306 306 305 306 308 308 311 314 315 314 314 314 316 318 320 321 324 323 320 321 321 322 327 325 324 322 319 315 309 306 303 302 299 298 297 293
294 294 293 296 296 296 297 297 300 303 303 302 304 305 306 306 309 309 309 308 309 311 311 311 312 315 317 317 316 316 315 315 310 314 315 318 319 318 317 312 309 307 304 302 300 296 295 294 293
294 294 293 296 295 295 296 296 300 301 302 303 304 305 306 307 308 308 307 307 306 307 309 310 311 314 316 315 316 316 316 312 309 306 309 310 313 313 312 309 305 308 303 300 298 295 294 293 294
294 293 293 293 294 295 294 293 297 300 300 302 303 304 305 306 307 308 306 305 306 306 307 308 310 313 314 315 315 308 307 303 301 301 303 304 304 306 309 308 304 303 305 301 298 298 298 293 295
291 295 294 293 292 289 293 287 294 298 298 300 302 304 305 306 307 307 306 304 305 306 308 308 310 312 313 314 310 310 309 306 306 306 302 297 301 302 300 300 300 300 304 300 300 301 301 297 294
293 295 294 293 292 290 292 288 293 294 295 298 302 305 306 307 306 305 305 305 305 306 306 308 309 311 312 313 311 311 311 314 314 309 301 298 294 297 300 296 295 298 301 301 303 302 301 299 299
295 294 292 292 291 286 291 289 291 294 296 299 301 303 302 303 303 303 303 303 303 304 305 307 307 309 311 310 311 311 312 311 306 304 300 295 292 290 290 292 295 297 300 299 301 301 299 300 299
294 292 285 284 284 284 289 288 292 297 297 300 302 304 301 302 303 302 301 300 300 301 303 305 306 307 309 308 309 310 311 309 307 302 299 296 290 289 288 289 289 292 294 296 300 299 298 298 296
292 293 288 283 282 286 286 284 292 298 300 301 301 302 300 300 303 303 302 300 300 301 302 304 304 305 308 306 307 309 310 307 306 301 299 299 295 293 291 288 288 290 292 293 296 297 295 294 294
291 288 294 288 281 284 288 293 297 297 298 299 299 300 301 302 302 303 300 299 300 300 302 303 304 305 306 305 306 307 307 305 304 300 297 297 296 290 287 286 287 287 289 291 292 292 289 291 290
293 295 287 287 283 281 286 287 290 295 296 299 299 299 301 302 302 301 299 299 299 300 302 303 304 304 305 304 305 304 303 303 303 299 295 292 292 287 285 285 285 285 286 288 290 289 289 288 288
290 289 289 290 288 285 283 288 298 298 298 298 300 300 300 301 302 301 299 298 299 300 301 302 304 304 303 303 303 302 300 299 297 295 293 290 287 285 284 284 284 284 285 285 288 288 287 286 285
293 292 292 286 284 286 285 288 295 298 297 297 298 299 299 299 301 300 298 298 298 299 300 301 304 303 302 301 301 300 299 295 292 291 289 287 285 284 283 283 283 283 283 284 286 286 286 285 284

GFSSGP_sfc_thetae_075.txt.gz
Theta_e
330 323 324 322 309 306 302 301 306 304 306 310 315 310 309 310 306 306 335 342 343 343 345 345 348 349 348 349 348 347 344 342 341 340 340 339 339 339 340 341 343 342 345 346 343 341 338 336 334
322 320 322 316 304 299 300 304 302 306 310 311 310 311 309 310 319 325 335 342 344 344 344 345 346 350 349 349 348 347 345 341 340 340 339 338 337 337 337 339 340 342 344 343 342 339 336 334 333
322 318 315 310 305 300 300 304 305 308 310 310 309 313 312 312 322 329 339 342 344 343 344 346 347 350 349 348 348 347 345 341 340 338 336 335 334 333 334 337 338 341 343 341 338 335 333 332 333
319 317 314 304 301 303 303 305 307 308 308 309 311 308 316 323 327 332 342 342 342 343 344 345 349 350 349 348 348 347 344 341 340 339 337 333 332 331 332 335 336 337 340 337 333 331 330 331 331
319 315 305 303 302 304 306 307 308 307 307 308 310 307 311 322 329 334 341 342 341 341 343 347 347 348 348 348 347 347 345 342 341 340 339 334 330 330 331 333 334 335 334 331 329 328 328 329 329
310 312 302 300 302 304 306 307 307 307 307 309 308 308 312 324 327 332 341 342 342 342 345 346 340 343 345 347 346 346 345 343 341 340 338 335 330 329 330 331 331 332 330 327 325 326 327 328 327
310 307 302 303 301 302 305 309 307 307 306 306 311 306 314 320 326 332 338 340 342 342 343 343 342 342 338 341 341 343 343 343 342 340 339 336 333 331 330 330 329 329 327 324 323 324 326 327 327
311 308 302 303 301 301 306 307 309 308 306 311 313 306 308 318 327 332 335 336 340 340 341 342 342 343 344 345 335 337 339 340 340 337 334 332 331 330 329 327 327 325 324 322 322 323 325 326 325
309 303 300 301 302 303 307 305 307 309 308 309 312 311 316 323 328 331 333 334 336 338 340 341 340 341 342 343 339 333 334 335 334 331 328 326 328 327 327 324 325 324 322 321 321 323 323 322 322
307 302 302 306 306 304 306 306 307 305 306 306 308 312 314 325 326 328 329 329 332 337 338 340 341 340 341 341 343 343 343 341 338 334 332 336 333 331 325 320 322 323 322 320 320 321 322 320 319
306 302 305 304 304 305 305 304 307 305 304 307 307 310 311 321 324 325 327 328 331 335 338 339 341 342 343 342 343 344 343 343 341 337 335 336 331 328 325 321 320 319 317 316 316 317 318 319 319
300 303 303 304 304 304 303 306 304 305 307 310 311 312 312 317 321 323 325 327 330 333 336 339 341 342 344 344 343 343 343 343 340 340 336 333 329 325 323 321 322 321 322 320 319 318 317 316 316
301 302 302 303 303 304 304 303 304 305 309 310 309 309 311 313 318 322 325 327 330 330 334 338 340 341 341 342 342 343 341 343 342 339 334 332 328 326 325 321 320 320 321 320 317 315 314 313 312
304 303 303 304 304 303 301 303 303 305 309 309 308 308 309 311 313 318 322 325 327 331 333 336 337 338 337 339 339 340 341 341 343 338 336 332 330 327 324 320 318 318 318 319 317 314 311 309 306
303 300 303 303 303 302 304 300 300 306 307 306 307 308 309 310 312 314 320 324 327 331 332 333 333 336 336 335 337 339 341 340 340 340 339 334 333 326 323 320 319 317 319 319 314 311 306 302 300
300 301 296 302 302 303 303 296 305 306 307 306 307 308 309 310 310 313 317 322 326 329 329 332 330 331 332 332 334 336 338 339 340 340 339 335 332 329 323 320 317 319 318 314 310 304 298 296 297
300 294 296 298 302 302 301 299 304 306 304 304 307 308 309 309 311 311 314 319 322 327 329 330 329 327 329 330 331 332 335 337 337 337 336 338 332 329 324 321 319 319 314 311 307 300 297 295 295
294 295 296 296 299 299 299 299 303 305 305 305 306 307 308 309 310 312 312 315 320 325 327 328 328 326 327 328 328 329 332 333 333 332 333 332 330 327 325 320 317 313 312 309 303 298 297 295 294
297 296 295 298 299 297 297 298 301 304 304 304 305 306 307 308 311 313 313 313 316 321 322 324 324 324 324 324 323 324 326 323 323 325 324 328 328 326 325 322 314 310 308 306 300 297 296 293 294
297 295 294 298 300 296 297 297 301 303 303 304 305 306 307 308 309 311 313 313 312 314 318 319 319 319 320 320 320 320 321 321 320 316 316 316 320 323 319 316 312 307 306 302 298 296 293 292 294
296 294 295 295 298 298 296 295 298 302 304 305 305 307 307 307 308 310 312 312 312 311 314 315 316 316 317 318 318 318 317 317 313 311 311 308 310 315 314 313 310 306 306 302 297 296 294 290 292
292 298 296 295 293 289 296 288 296 299 300 303 304 305 306 308 309 310 310 312 311 312 313 313 315 315 316 318 316 315 311 309 310 313 311 307 305 307 309 310 309 306 306 305 298 297 298 294 291
294 298 296 295 293 293 293 289 293 299 297 299 303 306 308 310 310 309 310 310 311 312 312 313 313 313 315 316 316 314 310 313 314 315 309 304 300 304 302 305 306 305 305 305 300 298 298 296 295
298 296 295 295 293 286 291 291 292 296 298 300 303 305 306 306 307 307 308 308 308 311 311 312 311 311 313 315 315 313 312 313 314 313 306 300 298 296 300 299 300 301 302 301 300 299 299 298 299
296 293 286 285 285 285 293 291 293 298 301 302 302 305 306 305 306 307 305 304 305 306 307 309 309 309 312 313 313 313 313 314 314 313 309 301 297 294 293 297 298 299 300 300 301 299 299 297 298
293 293 288 284 284 287 288 286 292 301 302 303 304 305 306 305 305 306 307 306 304 304 305 306 307 307 310 311 311 311 312 313 313 311 310 307 302 300 297 293 295 297 300 300 299 298 298 298 298
292 289 296 289 287 285 288 293 298 300 299 301 302 304 304 306 306 306 307 304 304 304 305 306 306 307 308 310 310 310 311 312 312 310 310 307 307 305 299 294 291 293 293 295 296 296 295 295 296
294 297 288 289 283 281 286 289 291 297 298 302 301 302 304 305 306 305 304 303 304 304 305 306 306 306 307 309 309 308 309 310 310 309 306 304 302 298 294 290 290 288 291 291 293 292 290 291 292
291 290 291 291 289 285 283 288 298 299 300 300 302 303 303 304 306 305 303 303 303 304 304 304 305 305 306 308 307 307 307 308 308 307 305 302 298 292 290 287 287 286 287 288 290 289 288 288 288
294 292 292 287 285 288 287 288 300 301 300 301 302 302 303 302 305 305 303 302 302 303 303 304 305 305 306 306 305 305 305 305 304 304 302 298 293 290 289 287 286 285 286 287 287 287 287 286 284

GFSSGP_sfc_thetae_078.txt.gz
Theta_e
327 323 320 317 305 302 297 298 302 302 303 303 311 305 302 308 307 305 332 335 338 340 340 345 349 349 348 349 347 346 343 341 341 340 340 340 341 341 342 342 346 345 343 342 339 337 336 335 335
319 319 318 313 299 296 294 300 299 303 306 306 308 305 304 307 319 322 330 339 340 341 340 343 346 349 348 348 347 346 343 341 340 339 339 338 338 339 340 342 344 345 343 341 337 336 335 334 334
320 318 311 305 300 295 295 298 301 305 305 304 303 306 306 311 321 328 336 339 340 340 341 343 346 349 348 348 347 346 343 340 339 337 336 336 336 338 339 340 343 342 339 337 335 334 334 333 334
315 312 309 298 298 299 299 300 304 304 302 304 304 303 311 318 324 331 337 339 339 339 342 343 347 349 348 347 347 346 342 340 338 336 334 334 334 336 337 338 341 338 336 335 333 332 332 332 333
314 311 301 298 298 299 301 303 303 303 302 303 302 302 309 318 327 335 336 338 337 338 342 346 347 348 348 347 347 346 343 341 339 337 333 332 332 334 335 336 336 334 333 331 330 330 330 330 331
306 306 297 295 298 300 300 302 301 302 302 304 301 300 309 321 324 332 337 335 338 342 344 345 341 343 345 345 345 345 344 342 340 338 333 331 331 332 333 334 333 331 329 328 328 329 329 329 329
306 302 297 297 298 298 301 303 298 300 301 301 303 299 309 316 324 332 335 336 338 341 343 342 343 341 338 341 341 342 342 342 341 339 335 333 333 333 332 333 331 328 326 326 327 328 328 329 329
306 304 298 297 296 297 302 302 302 300 300 305 306 299 303 314 322 327 332 332 334 340 340 340 337 341 341 339 335 337 339 339 338 336 332 330 329 330 329 328 328 326 324 325 326 327 327 327 326
307 298 294 297 298 298 302 300 301 302 302 301 306 304 310 317 324 323 325 327 330 336 338 338 337 339 340 340 335 332 334 334 332 330 327 324 322 321 323 324 326 324 323 325 326 326 324 323 324
301 297 298 300 300 299 301 300 301 298 299 300 303 306 312 320 320 321 322 323 326 331 335 337 338 339 340 341 337 338 337 335 332 329 325 325 324 322 320 320 323 324 323 323 324 323 323 319 315
302 298 301 300 302 302 301 298 302 298 297 301 301 304 310 317 318 320 323 323 325 331 335 336 336 337 338 339 339 339 337 336 332 327 327 331 323 319 317 316 315 314 315 314 315 317 314 314 313
296 301 300 303 302 301 299 302 299 300 300 303 303 306 309 315 317 318 321 322 324 327 331 334 337 336 336 339 338 338 337 336 333 330 331 326 323 321 317 316 315 313 311 310 312 312 312 311 311
297 298 299 301 301 299 302 298 299 299 302 304 304 305 306 312 315 317 319 322 323 325 328 331 334 337 337 337 338 337 337 336 335 331 331 328 323 320 318 317 318 317 317 316 311 310 309 308 307
301 300 299 300 300 300 298 297 298 299 303 303 303 302 303 306 311 314 317 319 321 325 327 332 333 335 336 337 337 337 337 337 336 335 332 328 326 322 320 317 317 316 317 315 312 307 306 302 301
301 296 298 299 300 298 299 296 296 300 301 302 301 301 303 304 306 308 314 316 320 323 326 329 333 334 333 334 335 334 335 336 335 334 332 329 326 325 321 318 316 316 316 314 311 306 302 297 296
296 294 289 297 299 299 297 289 298 299 299 299 300 300 301 303 304 305 309 316 319 322 325 328 331 333 333 332 331 333 333 333 335 335 333 330 329 324 321 317 316 316 316 312 305 300 295 295 295
294 287 290 294 299 298 296 292 298 300 297 298 298 300 301 302 303 305 306 309 317 320 324 325 328 327 328 328 328 328 329 331 332 334 335 332 330 325 321 317 316 316 314 308 303 297 295 294 294
288 288 291 290 295 294 293 293 298 300 299 298 299 299 300 301 304 305 305 307 313 318 322 324 327 325 325 324 324 324 324 326 329 332 332 334 331 327 322 319 316 315 311 305 300 296 295 295 293
293 291 290 291 296 293 293 293 295 297 297 296 297 298 299 300 303 305 306 306 308 314 318 323 324 324 323 322 321 319 321 322 322 327 328 329 330 327 323 319 315 314 310 304 299 295 293 293 293
293 290 289 293 295 292 292 292 295 296 297 298 298 298 299 300 301 303 305 304 306 310 316 319 322 323 322 323 323 321 321 319 319 318 318 320 325 324 322 318 314 312 308 302 297 296 293 292 292
291 290 289 290 292 292 289 288 292 297 299 299 299 301 301 301 300 301 302 304 304 306 310 315 319 321 321 321 318 313 313 312 312 310 314 314 316 323 322 318 314 311 307 302 297 297 294 291 292
289 293 293 291 288 283 291 280 289 293 293 296 298 298 298 300 301 302 302 303 303 305 307 312 314 315 317 316 314 313 312 310 308 308 307 308 310 313 317 315 312 309 307 303 299 298 296 294 291
291 294 292 290 287 286 286 283 287 291 290 293 296 297 299 300 303 304 302 303 304 305 304 305 308 310 310 311 310 310 308 307 305 305 305 305 305 307 309 311 310 308 306 305 300 298 296 295 293
296 292 291 289 287 280 286 285 284 288 291 292 296 297 299 298 300 300 300 301 302 304 304 305 305 306 308 309 310 308 306 304 305 305 304 303 302 302 303 305 308 307 306 305 300 299 298 296 296
292 288 280 279 278 279 285 283 286 291 293 293 295 297 297 298 300 299 298 298 299 300 302 304 304 303 306 307 308 308 307 305 305 306 303 298 298 296 300 301 302 304 305 304 302 300 298 297 296
290 288 281 274 277 279 283 280 287 293 294 297 297 297 298 298 300 300 300 299 298 299 300 301 302 302 304 306 307 307 307 306 307 307 305 302 299 298 296 299 300 301 302 302 301 299 298 298 297
289 286 291 284 277 277 282 287 292 294 294 295 295 296 295 297 299 299 300 299 298 299 300 301 301 302 303 304 305 305 305 305 305 305 304 302 300 300 298 297 298 299 300 301 301 300 298 298 297
290 293 284 283 274 272 279 281 285 290 293 295 294 295 297 299 301 299 298 298 298 299 300 301 301 301 302 303 304 304 304 304 305 304 302 301 300 298 295 294 294 294 295 297 299 297 297 297 297
287 286 288 287 284 277 276 281 291 293 294 295 296 297 296 297 298 298 297 298 298 298 299 299 300 301 301 302 303 302 302 303 303 302 301 299 296 292 291 289 288 289 291 292 293 292 291 292 290
291 289 289 282 280 282 281 284 296 295 295 296 296 297 295 295 298 297 297 297 297 297 298 299 300 300 301 301 302 301 301 301 300 300 299 296 293 288 287 286 285 286 288 290 291 290 290 289 288

GFSSGP_sfc_thetae_081.txt.gz
Theta_e
319 314 313 310 299 295 290 293 297 299 298 301 304 303 304 306 306 301 327 332 336 335 344 346 348 350 350 348 346 345 343 341 341 341 341 342 342 342 344 345 345 343 339 338 337 336 337 337 339
316 316 311 304 294 289 289 294 296 299 300 303 305 303 303 305 317 323 324 334 338 338 343 345 346 349 349 348 346 345 343 341 340 340 339 340 341 342 345 344 345 341 339 337 336 335 336 336 337
316 315 303 299 292 288 290 293 298 300 301 300 301 304 305 309 320 326 332 336 338 337 342 344 345 349 348 347 346 344 343 340 338 337 338 338 340 341 345 343 342 338 336 336 335 334 336 335 335
309 306 301 294 291 293 294 297 301 299 300 301 302 302 310 316 325 331 336 339 337 338 342 343 346 348 348 348 345 343 341 338 337 336 335 337 338 339 342 340 339 336 335 334 333 333 335 334 338
307 302 295 292 291 293 296 300 301 299 299 298 300 301 307 319 331 334 335 337 336 338 341 344 345 347 347 347 346 344 342 339 336 334 334 335 336 337 339 338 336 334 333 332 331 332 332 332 335
300 298 292 289 292 295 295 299 300 299 298 300 298 302 307 320 329 331 334 334 339 339 342 344 340 342 344 345 345 344 342 339 337 334 333 333 335 335 336 334 333 331 330 330 330 331 331 331 332
298 295 290 292 292 294 297 299 297 298 299 299 302 299 308 316 324 332 332 336 342 342 343 343 342 340 338 340 341 341 341 338 337 335 334 335 335 335 334 332 330 329 329 329 329 330 330 331 331
300 297 292 292 292 293 297 298 299 299 297 302 303 299 303 313 324 332 332 331 340 341 341 341 340 340 340 339 335 336 338 338 337 334 331 330 330 331 331 329 328 327 328 328 328 329 328 330 329
300 292 289 292 293 294 297 297 299 300 300 299 303 305 308 316 323 326 326 326 334 338 339 339 338 338 338 338 334 332 333 333 331 328 325 322 322 322 321 324 326 326 327 327 328 326 325 324 325
295 290 292 295 293 294 298 297 298 296 297 297 300 305 314 318 318 319 321 321 328 330 334 336 337 337 338 339 335 335 334 332 329 325 322 321 319 320 320 320 323 326 326 326 325 324 322 317 313
296 293 296 295 298 298 297 295 299 296 293 297 300 303 314 315 316 317 320 320 324 329 333 334 336 337 338 339 336 336 335 330 328 324 322 322 319 318 316 315 314 315 317 317 318 314 313 311 311
292 297 296 299 300 298 296 298 295 297 298 301 301 304 312 314 315 316 319 320 322 328 331 333 336 336 338 339 337 337 335 332 327 323 324 321 316 315 314 313 311 311 310 309 310 310 309 308 308
293 294 296 299 298 297 299 295 295 296 299 299 302 305 311 314 314 315 319 320 321 325 329 331 334 336 337 337 338 337 335 333 329 325 327 322 318 314 313 313 312 310 309 310 308 308 307 305 305
296 297 296 297 297 297 295 294 295 297 299 298 301 302 304 311 313 313 315 319 319 323 326 330 332 334 336 335 336 336 336 335 332 328 329 324 320 316 314 313 314 314 315 313 310 308 303 301 301
298 293 294 295 297 295 296 291 294 297 298 298 298 298 300 304 309 312 316 316 321 323 326 329 330 333 334 335 335 335 336 336 334 331 329 325 322 319 318 316 316 316 314 312 309 305 301 298 296
292 291 286 293 296 297 293 286 294 296 296 296 296 295 298 300 302 308 312 316 316 318 323 328 332 333 333 334 334 334 335 335 334 333 330 327 324 322 319 317 316 316 314 310 306 300 296 295 295
289 283 286 291 296 296 293 288 296 297 295 295 295 296 297 298 299 301 304 311 316 318 322 325 331 331 332 331 332 332 332 333 334 333 330 327 326 324 320 317 316 315 312 306 302 297 296 293 293
285 285 287 286 293 293 291 291 295 297 295 295 295 296 297 298 299 303 302 304 311 315 320 325 328 330 330 329 328 326 326 329 332 333 332 329 328 324 320 317 315 315 309 304 300 296 295 294 292
288 287 285 288 294 292 290 290 293 295 293 292 293 294 295 297 301 301 303 303 304 312 317 322 324 324 327 324 325 325 324 323 326 331 332 330 329 325 322 318 315 315 309 304 299 295 294 292 291
289 287 286 289 293 290 289 290 292 293 295 297 295 293 294 294 297 300 300 301 303 310 316 320 323 323 326 327 326 325 321 317 322 323 328 330 329 326 323 319 315 314 310 301 297 296 293 292 291
289 287 286 287 289 289 287 285 289 293 294 295 295 296 296 297 297 297 298 299 301 304 312 317 321 322 325 324 319 315 315 314 313 313 319 316 325 326 323 319 315 314 310 302 298 296 294 291 290
287 291 290 288 285 281 287 278 285 290 293 292 295 295 296 296 297 298 299 298 299 303 308 315 319 321 322 319 318 317 318 317 315 318 311 312 316 318 322 319 316 313 309 305 300 298 297 295 290
289 292 289 288 285 282 283 280 284 287 287 291 293 293 293 296 296 296 298 298 300 300 303 308 311 313 315 318 317 316 316 314 305 305 306 306 308 313 313 317 315 312 310 306 301 298 297 296 293
294 291 290 287 284 278 283 283 279 285 288 289 292 292 295 297 297 296 297 299 300 300 301 303 307 308 309 314 311 313 312 304 303 302 302 301 305 308 307 309 312 312 310 307 303 300 299 297 296
290 285 277 277 276 277 282 280 283 289 291 292 292 292 295 295 296 298 298 297 298 300 300 301 302 303 305 306 307 307 306 305 304 302 302 303 302 301 305 305 308 308 308 307 304 301 299 298 296
287 285 278 272 275 277 281 279 285 291 293 293 294 292 295 295 296 297 297 297 296 298 299 300 301 301 302 304 305 306 306 305 304 303 302 302 303 304 304 303 304 305 306 306 303 301 300 298 297
287 284 288 281 273 275 280 284 289 291 292 294 293 293 293 295 296 297 297 298 297 297 298 299 300 300 301 302 304 304 305 304 304 304 303 303 301 299 297 301 301 301 302 303 302 301 299 298 297
288 290 282 281 271 270 277 279 283 288 291 293 293 293 295 295 297 297 296 296 297 297 298 299 299 300 300 301 303 304 303 303 303 303 301 300 300 298 295 295 299 300 300 300 301 299 298 297 297
286 285 286 285 281 275 273 279 287 289 293 293 293 294 294 295 295 296 296 296 296 297 297 298 299 299 300 300 301 302 302 302 302 301 301 299 297 296 294 293 293 295 296 297 299 299 297 296 296
289 288 287 281 279 281 280 283 293 294 294 295 295 296 294 295 295 295 295 295 295 296 296 297 298 298 299 300 300 300 300 300 299 299 299 297 295 292 292 289 288 289 292 293 295 293 294 294 292

GFSSGP_sfc_thetae_084.txt.gz
Theta_e
316 311 310 309 298 294 289 291 296 297 297 300 302 304 303 305 304 296 324 330 332 334 343 345 348 349 346 345 344 344 343 341 341 342 342 343 343 345 345 342 342 338 337 336 338 338 338 339 340
313 314 310 301 293 286 288 292 295 297 299 302 303 302 304 307 315 321 323 332 333 338 344 344 346 349 347 345 345 344 343 340 340 340 342 342 343 345 344 342 340 337 336 336 338 338 338 337 339
315 311 303 297 290 287 289 292 297 297 298 298 299 304 306 310 319 322 327 334 334 339 343 344 346 348 347 345 344 344 342 340 339 339 340 342 343 345 342 340 337 336 335 335 337 337 336 337 336
307 304 299 292 289 291 292 296 298 297 297 300 301 303 310 316 325 328 333 336 335 339 343 342 346 348 347 345 343 341 339 338 337 337 338 340 342 342 340 339 336 335 333 334 336 336 338 337 336
304 299 293 290 289 294 293 298 298 296 296 297 301 300 307 321 326 331 335 336 334 337 340 343 345 346 347 345 342 341 339 337 336 335 337 339 340 340 338 336 335 333 332 333 335 333 335 337 337
299 296 290 287 289 292 293 299 299 296 296 297 300 304 308 319 329 331 335 334 336 337 340 342 339 341 344 344 343 342 340 337 336 334 336 336 337 338 335 335 333 332 331 331 333 332 333 334 333
297 293 289 289 290 292 295 297 297 296 297 298 301 302 307 316 327 330 333 335 337 338 340 341 341 340 338 340 340 340 340 338 336 336 336 336 336 336 334 332 331 330 330 331 331 332 332 332 331
299 295 291 292 290 291 295 296 298 297 297 300 303 302 304 314 324 329 333 336 337 339 339 339 339 339 339 338 334 335 336 336 335 334 332 331 332 332 331 329 330 329 329 330 329 331 331 330 329
298 291 288 290 290 293 295 294 296 298 299 298 301 304 307 317 324 327 326 334 335 338 339 339 338 338 337 337 333 331 332 332 330 328 326 323 323 323 321 324 328 329 329 329 328 329 327 325 324
294 290 291 293 292 293 295 295 297 295 295 296 299 306 311 318 322 324 322 324 327 331 335 338 337 337 336 338 334 333 332 330 326 323 320 320 319 319 320 320 325 327 327 328 325 325 321 316 312
294 291 294 294 295 296 297 294 296 295 292 297 299 306 312 316 318 324 322 322 328 329 333 335 337 336 336 337 336 335 331 328 324 320 319 318 317 317 316 315 316 318 318 317 314 312 311 310 310
293 295 295 297 297 296 295 296 294 295 296 299 300 309 313 316 317 321 323 319 324 326 330 332 335 335 336 337 335 335 333 328 324 320 320 317 314 313 312 313 312 313 312 311 309 308 308 308 308
293 293 295 297 296 295 297 294 294 295 298 297 299 308 312 315 316 317 321 320 320 327 329 330 333 334 336 336 336 336 334 329 325 321 323 318 315 312 311 310 311 309 308 308 307 306 306 305 305
295 295 294 295 295 295 293 291 293 295 296 297 300 302 310 313 313 312 314 319 319 327 329 330 332 334 336 336 336 336 335 332 326 322 324 318 316 313 312 310 310 309 309 308 307 304 304 302 302
296 291 292 293 295 294 294 290 293 294 296 296 296 298 301 309 311 313 316 319 321 322 328 329 331 333 334 335 335 335 335 333 328 325 325 320 318 314 312 312 312 312 313 311 308 305 303 301 300
291 289 284 289 294 294 291 286 291 294 293 294 294 293 296 300 308 313 314 317 319 320 322 328 331 331 332 333 334 334 335 334 332 328 327 323 319 316 315 313 313 314 313 310 305 302 298 297 298
288 281 285 288 294 294 291 287 293 294 293 294 293 294 294 296 298 302 309 314 316 319 321 324 328 329 330 332 333 333 333 333 333 333 328 326 321 319 317 315 315 315 312 308 303 299 299 295 293
283 283 285 284 291 291 289 290 293 295 292 294 294 294 294 295 297 301 300 307 313 315 319 323 327 329 330 332 332 332 332 334 334 333 331 327 325 322 319 317 316 314 310 305 301 298 295 292 293
286 286 285 286 292 291 290 290 292 293 292 292 291 292 293 295 300 298 299 300 302 310 313 320 324 328 330 328 328 327 329 331 332 333 332 329 327 324 321 317 315 315 308 303 300 296 293 292 291
286 284 284 288 291 289 288 288 291 292 293 295 294 292 292 293 294 297 298 298 298 305 312 318 323 327 329 330 331 330 330 321 327 331 331 329 328 325 322 318 315 315 309 303 298 296 293 291 291
286 285 285 287 287 287 286 284 287 290 291 293 294 294 294 293 294 295 296 296 297 299 307 315 321 325 328 329 322 314 314 313 314 323 327 328 328 325 323 320 317 314 312 303 299 297 295 291 290
285 290 289 288 284 280 285 278 283 288 290 290 293 292 292 293 294 295 296 295 296 298 302 312 318 322 325 324 322 321 321 320 321 321 322 317 326 325 323 320 317 315 312 305 301 297 298 295 289
288 291 288 287 284 282 281 280 283 285 287 290 291 291 292 293 293 294 295 296 297 297 299 307 313 317 318 322 321 320 321 318 308 309 311 311 312 316 321 320 317 315 313 308 303 300 298 296 294
292 289 287 285 282 277 281 281 279 283 287 288 291 291 294 296 297 297 297 297 300 297 298 305 310 313 314 319 316 317 318 307 306 304 307 309 310 309 310 312 316 315 313 309 305 302 300 298 297
288 284 277 276 275 276 280 279 281 287 289 290 290 292 293 295 295 295 296 296 297 298 298 301 306 306 308 312 310 312 312 308 308 306 306 301 306 305 309 308 310 313 312 311 306 303 300 300 297
286 285 278 271 274 276 280 278 284 289 289 291 291 290 292 293 295 295 296 296 295 297 298 299 300 302 304 306 306 306 307 308 307 305 303 305 304 304 304 307 310 310 310 309 306 304 302 301 299
286 282 285 280 270 274 279 282 288 289 291 290 291 292 293 294 295 295 296 296 295 295 297 299 299 299 300 302 303 303 304 304 304 303 303 302 302 301 299 303 305 307 307 307 306 303 301 300 299
287 289 281 279 270 269 277 278 281 285 289 292 293 292 293 294 295 296 296 296 296 296 297 298 298 299 300 300 301 302 303 303 303 302 301 300 299 298 296 301 302 303 303 304 304 303 301 300 299
285 284 284 284 279 274 271 278 285 288 289 292 292 293 294 294 295 296 295 295 295 296 297 297 298 298 299 299 299 300 301 301 301 301 300 299 298 296 295 295 298 300 300 300 301 302 300 298 298
287 287 287 281 278 279 279 281 290 291 292 293 293 294 294 294 294 294 295 295 295 295 295 297 297 297 298 299 298 298 299 299 299 299 299 298 296 294 294 292 291 292 296 298 298 299 299 297 295

GFSSGP_sfc_thetae_087.txt.gz
Theta_e
316 310 308 307 298 292 288 290 295 296 296 299 301 300 300 303 299 293 321 330 331 333 341 344 347 347 344 344 344 344 342 341 341 344 344 346 345 344 341 339 337 336 338 339 339 338 338 338 336
313 312 307 299 291 286 287 290 295 296 300 303 304 302 304 304 316 319 322 329 332 338 342 344 345 346 344 343 344 344 342 341 341 342 342 345 345 343 340 338 336 335 337 338 337 338 338 337 336
313 307 303 295 287 286 287 291 295 296 298 297 298 305 307 308 316 320 325 331 335 339 342 344 345 347 344 344 344 343 342 340 340 342 342 344 344 342 339 337 336 335 336 337 336 337 337 336 335
306 303 298 291 288 289 290 294 296 296 296 299 300 303 308 317 321 324 331 331 336 339 342 342 346 347 345 344 342 340 339 339 339 340 341 344 343 341 338 336 334 334 336 336 336 338 337 335 335
302 298 292 289 289 291 292 296 296 295 295 296 302 300 306 319 326 329 331 333 335 337 340 342 345 345 345 344 341 340 339 337 337 339 340 342 341 339 336 335 333 333 335 334 334 337 337 336 335
297 296 289 287 288 291 294 296 296 294 294 296 302 304 310 317 326 329 332 331 336 336 339 342 338 341 343 343 342 341 340 337 337 337 339 340 340 337 335 334 332 332 334 332 334 336 335 334 332
296 292 289 289 289 290 294 297 294 295 294 297 305 301 305 314 326 330 331 332 335 337 338 339 340 339 336 339 339 339 338 337 337 338 338 338 337 335 334 333 331 331 333 332 334 333 332 332 331
298 295 289 290 290 290 294 295 296 297 297 298 305 300 302 317 327 329 331 332 333 336 337 337 337 338 338 336 333 334 335 335 335 335 333 332 332 332 331 330 331 330 332 331 332 332 331 331 329
298 291 288 290 290 292 294 294 295 296 298 300 300 304 306 320 326 327 331 333 332 335 336 337 336 336 336 335 331 330 331 331 330 329 326 324 324 323 321 325 329 330 330 331 331 330 329 326 325
295 290 291 292 291 293 295 294 296 297 295 299 300 307 311 319 324 325 326 328 329 331 334 337 337 337 335 337 331 330 330 327 324 323 322 321 320 318 319 321 326 329 328 329 329 326 321 316 311
292 291 293 292 293 295 296 293 295 294 294 296 298 303 312 316 320 324 325 326 329 331 334 335 336 336 336 336 334 333 328 324 321 320 318 318 317 317 315 317 318 318 318 316 316 312 311 310 310
291 293 294 296 296 294 294 295 292 294 296 296 300 306 312 316 321 323 323 321 325 327 332 334 335 335 336 335 335 334 331 324 320 318 317 315 314 313 312 313 313 314 312 309 308 308 308 308 308
292 291 293 296 294 293 296 292 293 294 296 296 297 308 312 318 321 324 326 322 323 326 329 331 334 334 335 334 334 335 332 327 322 318 318 316 313 312 311 311 311 311 309 308 306 306 306 306 306
294 293 292 293 293 294 292 290 291 292 293 295 297 305 309 313 316 315 315 320 319 327 328 329 331 333 334 334 333 333 333 329 324 319 319 316 314 312 310 309 310 308 308 307 305 305 304 303 304
295 289 290 291 292 292 293 288 292 292 292 293 294 296 304 309 311 313 318 321 321 323 328 328 330 332 333 333 333 334 333 330 326 321 320 317 315 312 311 310 309 311 311 309 306 305 301 302 304
290 288 284 287 292 292 290 285 290 292 292 292 292 291 294 300 308 311 313 316 319 319 324 328 331 331 332 333 333 334 334 332 329 325 321 319 316 313 313 312 312 312 312 311 306 302 301 300 300
287 281 283 288 292 292 289 286 290 292 292 293 292 292 293 294 296 302 310 312 315 319 320 325 329 329 331 332 332 332 332 332 331 327 323 322 318 314 313 313 312 312 311 308 303 300 300 298 296
282 283 284 283 289 290 288 289 292 293 291 293 292 293 293 293 295 298 301 309 313 315 319 323 327 329 330 331 330 330 332 332 332 330 326 325 322 317 315 314 313 313 311 306 302 299 294 296 294
285 284 283 285 290 289 289 288 291 293 291 292 291 292 292 293 298 297 297 298 304 310 313 318 322 326 328 328 328 329 329 330 331 331 331 326 324 321 317 316 314 314 310 306 301 296 294 290 292
286 283 282 286 289 289 287 288 290 291 292 293 293 291 291 292 293 294 295 295 296 303 311 315 319 324 327 329 330 330 330 331 332 332 331 329 326 323 320 318 315 314 310 304 300 297 293 292 293
285 284 283 285 285 285 285 284 286 289 290 291 292 293 293 292 293 293 293 294 294 295 300 311 317 321 326 329 327 315 320 318 323 328 329 329 327 325 322 320 317 314 311 305 301 299 296 292 291
283 289 287 286 284 280 283 277 283 286 288 289 291 291 290 290 292 293 294 294 294 294 296 304 313 319 324 327 325 324 325 324 325 327 328 327 327 326 324 321 318 316 313 308 303 301 298 297 291
287 290 287 285 282 281 280 279 282 284 286 289 289 290 290 290 290 292 294 295 295 295 294 300 309 316 321 325 325 325 324 325 314 313 322 322 323 325 324 322 318 316 315 310 305 302 300 299 296
291 287 285 283 280 276 280 281 279 282 285 286 289 290 293 294 294 295 295 295 297 297 296 300 307 311 315 322 322 322 321 311 309 307 315 316 317 313 316 320 319 317 315 312 306 304 301 300 300
286 284 278 275 275 276 278 278 281 286 287 287 288 290 290 292 293 293 294 295 295 297 297 299 304 307 309 313 312 314 315 310 310 308 311 310 313 307 312 311 314 316 315 314 309 304 302 301 300
285 285 278 271 272 275 280 277 283 287 289 289 288 289 292 293 294 293 294 295 294 295 297 298 300 303 306 308 308 308 309 309 309 308 307 308 312 314 316 311 312 312 313 312 309 306 304 302 301
285 282 285 279 268 273 278 281 287 287 288 291 292 293 293 293 294 295 295 295 295 295 296 297 298 298 300 303 304 305 305 306 306 304 303 303 302 302 302 303 308 310 310 309 308 306 303 302 301
286 288 281 278 270 268 276 277 280 284 289 290 291 291 292 293 294 295 294 294 294 294 295 296 297 298 298 299 300 301 302 302 303 302 301 300 299 299 298 298 299 300 305 306 306 306 304 302 302
284 283 282 282 279 273 270 277 284 286 288 290 290 291 292 293 294 294 294 294 294 295 295 296 296 297 298 298 298 298 299 300 300 300 300 299 298 297 296 297 299 301 302 303 303 304 303 300 301
285 286 285 280 277 278 278 281 288 288 291 291 291 291 292 293 293 293 293 293 293 293 294 295 296 296 297 297 298 298 298 298 298 298 298 297 297 295 295 293 294 297 299 299 300 300 300 298 297

GFSSGP_sfc_thetae_090.txt.gz
Theta_e
314 309 307 305 297 291 287 289 296 295 295 298 305 300 300 302 301 292 320 329 332 334 340 344 347 347 344 343 344 345 345 344 345 345 346 345 343 341 339 337 339 341 339 339 339 339 337 336 336
312 310 306 298 291 285 286 289 294 296 299 304 303 303 303 301 314 317 323 329 332 336 341 343 344 346 343 343 344 344 344 343 341 343 345 345 342 340 338 336 337 340 338 338 340 337 337 335 334
311 306 302 294 286 285 286 289 294 295 299 296 299 304 305 306 313 320 323 330 334 338 341 342 344 345 343 343 344 343 343 342 341 340 345 344 343 339 337 335 336 338 336 338 339 338 336 335 334
305 302 297 290 287 290 290 291 294 295 295 298 303 301 306 316 320 323 329 332 336 338 341 342 345 345 344 344 342 341 340 340 341 341 344 343 341 338 336 335 335 337 336 335 336 337 336 334 334
301 297 291 288 289 291 292 294 295 294 296 299 301 298 304 316 324 327 328 334 335 337 339 342 344 344 344 343 341 340 340 339 340 341 344 342 340 336 335 334 334 335 333 335 337 336 336 335 335
297 295 289 286 287 290 295 295 295 292 294 297 301 305 307 315 324 326 329 331 336 336 339 341 338 340 342 342 341 341 340 339 340 341 342 341 339 335 334 333 333 334 331 333 337 337 335 334 334
295 292 289 287 287 290 294 297 292 293 293 296 303 301 303 312 324 328 328 330 334 336 338 338 339 337 336 338 338 339 338 338 339 340 341 340 337 335 334 333 332 333 331 334 335 334 333 333 333
297 294 288 288 288 290 293 295 294 295 295 297 305 297 298 315 325 328 328 330 331 334 337 337 336 336 335 334 332 333 335 335 336 336 334 332 332 332 332 330 332 333 331 333 333 333 332 331 330
296 291 288 290 290 291 292 293 293 295 296 298 299 301 305 320 326 326 326 327 330 334 336 337 337 335 334 333 330 329 330 331 331 329 327 324 324 323 323 325 331 332 332 331 332 331 329 327 325
294 289 290 292 292 292 293 293 295 297 296 298 299 304 311 321 324 324 325 326 328 330 333 335 336 337 334 335 330 329 328 326 325 324 323 322 320 318 320 321 326 329 329 329 329 327 322 316 312
291 290 292 292 293 295 295 292 294 294 294 296 298 300 312 317 320 323 324 326 328 331 332 334 335 337 336 334 330 328 326 323 321 321 320 318 317 316 317 318 318 318 317 319 318 313 311 310 311
292 292 293 295 295 294 294 294 292 293 296 295 297 302 311 316 320 322 323 322 325 327 331 333 334 334 335 335 333 332 329 322 319 318 318 316 314 313 313 314 314 314 312 310 309 309 309 309 309
290 290 292 294 293 292 295 293 292 293 295 295 296 305 310 317 320 322 324 321 322 326 331 333 333 333 334 334 335 333 331 325 320 317 317 315 313 312 311 312 312 311 308 308 306 307 307 307 307
293 291 291 292 292 292 291 288 293 292 294 294 296 301 307 312 317 314 319 320 320 326 328 332 332 333 333 333 333 333 330 327 321 317 317 315 314 312 311 310 310 309 308 307 306 306 305 305 305
293 289 289 290 291 291 292 288 291 291 291 292 293 295 303 308 310 315 320 321 322 324 327 328 332 333 332 332 332 333 333 329 325 319 317 315 314 312 310 310 312 312 311 309 305 304 302 303 305
289 287 284 286 291 291 289 284 288 292 289 292 291 291 293 298 307 310 313 316 319 319 324 327 331 331 332 332 332 332 332 331 327 321 318 316 314 313 310 312 313 313 312 310 307 304 303 303 303
285 280 282 286 290 290 288 285 289 291 291 292 291 291 291 293 294 298 309 312 314 318 319 325 328 329 330 332 332 331 331 330 328 324 320 318 317 315 314 313 312 312 311 308 304 301 301 300 298
281 281 283 282 286 289 287 289 292 292 291 292 291 291 291 292 294 296 297 307 312 313 317 323 327 328 329 330 331 331 331 331 329 326 321 320 318 316 315 313 312 312 310 307 303 301 297 297 296
285 283 281 283 288 288 287 288 290 292 291 291 292 292 292 292 296 294 296 296 305 309 313 317 322 326 328 329 329 328 327 329 330 330 326 321 321 317 316 314 312 312 310 307 304 298 296 292 293
286 283 282 285 288 288 286 287 289 290 291 292 292 292 291 291 292 293 293 293 295 302 310 314 318 324 327 329 329 329 329 329 329 330 329 324 322 320 317 316 313 312 310 307 301 298 295 293 293
283 282 282 284 284 285 283 283 284 288 289 290 291 291 291 291 292 293 292 292 291 293 299 309 315 320 325 328 327 318 322 323 327 328 328 328 325 323 320 318 316 314 312 307 303 302 300 295 292
282 287 286 285 283 279 283 277 282 285 287 288 290 288 289 289 290 290 291 291 292 292 293 300 309 315 321 325 325 324 326 325 327 328 329 328 327 325 322 320 318 316 314 309 305 304 303 302 293
286 288 286 283 281 280 279 279 282 281 285 287 288 289 291 291 288 289 294 295 295 294 292 293 301 309 315 322 325 324 324 325 322 327 324 325 325 326 324 322 319 317 315 313 309 305 303 303 301
289 286 284 281 280 276 279 280 278 281 284 287 287 288 289 290 292 292 293 294 294 296 296 298 299 305 312 319 323 322 322 318 311 311 323 324 322 323 323 322 321 319 317 315 310 306 304 304 305
285 284 277 275 274 275 277 278 280 285 285 284 287 289 289 290 291 292 293 294 294 294 296 298 301 303 308 312 315 316 318 313 313 310 319 318 317 311 317 316 319 318 317 316 313 308 306 304 304
284 284 278 271 272 275 279 277 282 285 287 288 287 289 291 292 292 293 292 293 293 294 294 296 297 301 304 307 309 309 310 310 309 309 309 315 316 317 316 313 315 317 316 315 312 309 306 304 302
284 281 283 278 267 272 277 280 285 285 289 290 291 291 291 291 293 293 293 293 293 294 294 295 296 297 299 302 304 305 306 307 307 306 305 305 305 309 312 312 312 310 310 310 309 307 304 303 302
285 287 280 278 269 267 275 276 279 284 287 289 290 291 291 292 293 293 293 293 293 294 294 295 296 296 296 297 298 300 300 301 302 302 302 301 301 300 300 301 304 307 308 307 306 305 303 303 302
283 282 281 282 279 273 270 276 283 284 289 289 290 290 291 292 292 292 292 292 292 293 293 294 295 295 296 296 296 297 297 298 298 298 299 298 298 298 297 297 297 297 298 302 303 304 304 302 302
284 284 284 279 276 277 277 280 286 286 290 290 289 291 291 291 291 290 291 292 292 293 293 293 293 293 294 295 295 296 296 296 296 297 297 297 297 295 295 294 295 297 299 300 301 301 302 301 300

GFSSGP_sfc_thetae_093.txt.gz
Theta_e
317 312 311 308 301 296 292 295 300 300 301 305 311 309 309 308 306 298 326 333 335 339 345 346 347 348 346 346 347 347 348 346 347 346 345 344 341 339 339 340 342 341 338 341 337 336 336 336 336
312 312 309 302 296 290 291 295 298 301 304 306 306 307 307 305 320 320 327 332 336 341 344 346 344 346 344 344 345 345 345 346 345 346 345 343 341 338 338 339 341 339 341 339 338 337 335 335 335
311 308 306 297 290 290 291 295 299 301 304 303 305 309 309 311 320 324 328 333 337 341 345 344 343 345 344 344 344 345 344 344 345 346 345 343 339 337 337 338 340 338 339 339 337 336 335 335 335
308 305 300 296 293 294 295 296 299 300 301 302 306 305 312 320 323 327 331 333 338 342 344 342 344 345 344 344 343 343 343 344 343 345 345 342 339 336 336 338 339 338 336 337 337 335 334 335 334
303 301 294 292 293 295 295 298 299 298 300 302 304 303 311 322 327 329 331 335 338 341 343 343 343 344 345 344 342 343 343 344 344 345 344 340 337 336 335 336 337 336 337 336 336 336 335 335 334
300 298 292 290 293 294 298 299 299 299 299 302 305 307 313 322 326 328 333 335 339 340 342 343 337 340 342 342 342 342 342 342 343 344 342 339 337 335 334 335 334 332 335 339 338 337 335 334 333
299 296 292 291 291 295 298 298 297 297 298 301 307 305 310 318 327 329 332 337 339 341 341 342 342 339 335 338 338 339 340 340 341 343 342 339 336 336 334 335 335 332 334 337 336 335 335 333 334
297 295 291 291 291 294 296 298 298 299 298 304 309 301 304 318 328 329 332 335 337 339 340 341 341 340 340 339 332 333 335 336 337 337 335 331 332 332 332 330 334 332 335 335 334 334 333 332 330
300 293 290 292 292 294 295 297 297 300 300 300 305 304 309 324 328 328 328 331 333 334 336 339 339 339 338 337 332 329 330 331 331 330 327 326 331 330 328 327 332 332 333 333 333 332 330 327 326
296 292 293 295 294 294 295 296 297 298 298 299 302 307 318 325 327 325 325 326 328 330 333 336 338 337 337 335 334 334 332 332 332 331 330 329 327 327 326 325 327 329 328 331 329 327 322 320 322
295 292 294 294 295 296 296 295 297 297 296 299 300 303 317 322 324 325 326 327 327 330 332 334 335 337 336 336 334 333 331 330 329 329 328 326 323 325 326 328 328 329 322 327 325 320 319 320 320
293 294 294 297 296 296 295 296 295 296 299 299 300 305 316 320 323 324 325 327 329 329 331 333 335 335 336 336 333 332 330 328 326 326 326 323 321 322 323 324 324 324 324 322 319 318 317 318 318
293 293 294 295 295 294 296 294 294 295 298 297 299 307 315 321 323 325 327 326 329 328 330 332 334 334 335 335 334 333 331 328 326 324 324 323 320 320 321 322 322 320 319 318 316 316 316 316 317
293 292 293 294 294 294 292 291 293 294 295 295 297 301 308 317 321 320 323 324 325 329 331 333 332 334 334 334 334 334 333 331 326 323 323 322 320 319 320 319 320 319 317 316 315 315 315 315 316
293 291 291 291 293 292 293 290 292 293 293 293 294 296 301 308 315 320 324 325 325 328 331 333 332 334 333 333 333 334 333 330 327 323 322 321 320 318 318 318 318 318 315 314 313 313 312 312 313
290 288 286 289 292 292 291 286 290 293 293 293 293 294 294 297 309 315 319 323 324 325 328 331 332 332 333 333 333 333 333 331 329 325 322 320 319 318 316 317 318 317 315 313 311 308 308 306 308
286 283 284 287 291 292 290 287 291 293 293 293 293 293 293 294 296 300 312 318 321 324 326 328 331 332 332 332 332 332 332 332 331 327 323 320 319 317 315 314 315 315 313 312 307 304 306 304 305
283 282 283 282 287 289 288 289 292 293 293 293 293 294 294 294 296 298 298 307 315 319 323 327 329 332 332 332 331 331 331 331 330 327 323 321 320 318 317 315 314 314 312 310 309 306 302 303 303
286 283 282 284 289 289 288 288 291 293 292 292 293 294 294 295 298 297 298 298 303 312 317 321 326 329 330 330 329 328 327 329 329 327 325 323 321 318 316 315 313 313 311 310 307 303 303 297 297
285 283 284 286 288 288 286 288 290 291 292 294 294 293 293 293 295 295 296 296 296 303 311 316 322 326 329 330 331 331 329 329 330 330 327 324 322 320 318 316 314 313 312 309 305 303 299 299 298
283 283 283 283 285 285 283 284 285 288 289 291 291 292 292 292 293 294 294 294 295 295 300 310 316 322 327 330 330 328 328 326 328 328 328 324 324 323 318 317 315 314 313 310 307 305 304 302 295
283 287 286 285 283 280 283 278 283 286 287 289 291 289 291 292 290 291 294 297 297 296 295 300 310 317 323 328 328 327 325 325 327 328 329 328 324 324 321 320 318 315 313 313 309 307 308 307 298
285 287 286 285 282 281 281 280 283 283 286 288 290 291 290 291 292 294 295 296 298 298 297 296 300 310 317 324 327 326 325 327 328 329 328 328 326 325 323 322 320 317 317 314 311 308 305 306 305
288 285 284 282 280 277 279 280 280 282 285 285 288 289 290 292 292 293 295 296 296 298 299 302 300 302 310 318 324 324 324 324 319 321 325 326 326 325 324 323 321 320 318 316 314 311 307 306 306
285 283 278 276 275 276 278 278 281 285 286 286 288 289 292 293 293 293 294 295 295 296 297 299 303 305 309 313 318 320 322 321 319 318 322 323 321 316 321 322 321 320 319 317 315 311 308 306 306
284 284 278 271 272 275 279 277 282 285 287 288 288 291 292 293 293 293 294 294 295 295 296 297 298 300 306 310 313 316 317 317 316 315 318 322 321 320 320 317 317 319 319 318 315 312 309 307 306
285 281 284 277 267 273 277 280 286 286 289 289 290 292 292 293 293 293 293 293 294 295 295 296 297 298 298 302 306 308 310 311 312 311 311 312 313 313 314 314 313 313 313 313 314 312 308 307 306
285 287 281 278 270 268 275 277 280 283 288 289 289 291 291 292 293 292 292 293 293 293 294 296 297 297 297 298 299 300 301 303 305 306 307 306 306 306 306 308 309 310 309 309 309 308 306 305 304
283 283 282 282 279 273 270 276 282 284 288 289 290 291 291 291 291 291 292 293 293 293 293 294 294 294 295 296 297 298 298 299 300 301 301 302 302 302 301 302 302 303 304 306 306 306 304 303 303
284 284 284 279 276 277 277 279 287 286 290 290 291 291 290 290 291 292 292 292 292 291 292 292 292 292 292 294 295 296 296 296 297 297 298 298 299 299 299 298 298 299 300 301 303 303 303 303 302

GFSSGP_sfc_thetae_096.txt.gz
Theta_e
323 320 323 321 307 306 300 302 309 309 311 314 319 315 311 313 308 306 332 336 339 340 343 346 347 348 346 346 347 348 348 348 347 346 343 340 339 340 339 341 341 341 338 338 337 337 337 339 338
318 317 322 315 304 297 298 305 306 310 310 315 313 312 310 309 323 327 330 336 341 343 345 344 345 347 345 345 347 348 348 348 346 345 344 340 338 339 339 339 343 341 339 339 337 337 336 335 336
316 315 314 309 304 298 298 304 309 307 311 311 310 314 313 313 325 329 334 337 341 343 343 344 344 346 344 344 346 346 346 347 346 345 342 339 338 339 339 339 342 340 338 337 335 335 336 334 335
317 316 311 303 300 300 301 305 308 309 307 308 312 309 318 325 328 332 336 337 341 342 345 343 345 345 343 344 344 344 345 346 346 345 341 339 337 337 339 338 339 338 338 336 335 336 335 334 334
316 312 304 301 300 301 302 306 310 308 307 308 311 307 314 327 332 334 335 336 338 342 345 343 343 344 345 343 342 343 344 344 345 345 341 338 336 336 338 336 337 337 337 336 336 335 335 334 334
309 311 300 299 299 301 304 307 308 307 307 308 309 310 316 330 331 334 335 336 340 343 344 342 337 340 342 343 343 343 344 344 345 344 341 338 335 335 336 334 334 337 337 337 337 335 333 335 334
307 305 301 300 299 301 303 307 307 306 306 307 313 308 316 326 332 335 335 337 340 343 343 343 342 339 336 338 339 340 341 343 344 343 341 338 337 336 336 336 334 335 338 337 334 333 333 332 334
309 307 299 300 298 298 304 305 306 306 305 309 315 305 308 325 333 335 336 336 339 342 342 342 342 340 340 340 332 334 336 338 339 338 334 332 333 332 332 332 333 334 336 335 335 334 333 332 331
306 303 299 298 299 301 304 304 304 306 306 308 313 310 316 331 333 333 333 334 337 338 340 342 342 341 340 339 334 330 331 332 332 331 327 328 333 331 330 329 331 335 335 334 333 332 330 328 328
306 302 302 304 304 303 303 305 305 305 305 305 308 312 323 331 332 329 329 330 332 333 335 338 340 341 340 337 338 337 336 336 336 337 336 335 332 331 328 327 327 328 329 332 330 327 324 326 329
302 301 302 302 302 303 303 302 305 305 303 307 307 310 322 329 330 328 329 330 331 334 335 336 338 340 340 338 338 337 335 335 336 336 335 334 331 330 329 331 330 329 324 328 328 325 327 326 327
299 300 301 301 302 302 302 303 302 305 305 306 309 312 323 327 328 328 328 329 331 333 334 335 337 337 338 339 338 338 335 334 333 334 334 331 328 328 328 328 329 329 328 327 326 325 325 324 324
300 300 300 301 300 301 301 301 302 303 307 305 305 311 319 324 327 330 330 331 332 331 332 334 336 336 337 337 338 338 336 333 333 332 332 330 327 327 327 327 327 327 328 326 324 324 323 324 324
300 300 300 300 300 300 299 299 300 303 303 303 303 307 313 321 326 329 330 331 332 333 332 334 335 336 336 336 337 336 338 336 333 332 331 330 327 326 326 326 325 325 325 324 323 323 322 323 324
299 297 298 298 299 299 300 298 297 303 300 301 302 305 308 315 324 327 330 331 333 335 336 334 334 335 335 335 336 336 336 336 335 332 331 329 328 325 325 325 324 324 323 323 322 322 321 321 322
297 298 293 295 298 298 298 296 299 299 300 301 303 304 304 307 314 324 328 331 333 334 335 337 336 334 334 335 336 336 336 335 335 335 332 329 328 326 323 323 323 323 322 321 320 319 317 318 316
294 291 292 292 297 297 296 296 297 300 300 301 302 302 302 304 305 310 322 329 331 333 334 335 337 336 334 335 335 335 335 335 334 334 334 331 328 326 321 320 320 320 319 317 316 314 313 311 311
291 289 290 292 294 296 295 295 299 300 299 301 303 304 304 304 306 308 308 317 325 330 333 334 336 337 335 334 334 334 333 334 335 332 331 333 329 326 323 322 320 318 316 314 312 312 313 314 312
294 292 290 291 294 295 295 295 298 301 300 301 303 304 305 305 308 307 307 308 310 320 326 330 333 335 335 330 330 330 329 331 332 332 329 328 330 328 325 324 322 320 316 315 315 311 307 306 310
293 291 290 292 294 294 294 294 298 299 300 302 303 303 304 305 305 305 305 306 306 308 314 321 328 332 335 332 331 331 331 331 333 332 330 328 328 329 326 323 318 316 315 317 313 308 305 306 305
291 291 289 290 291 292 292 293 295 297 296 298 299 300 300 300 301 302 303 303 304 305 307 312 318 325 331 334 334 331 332 331 330 329 328 327 327 328 327 324 320 316 317 313 315 312 311 306 306
289 293 292 290 290 287 291 287 293 296 296 297 298 298 300 300 300 298 302 306 307 307 305 304 311 318 324 331 332 329 327 326 328 330 331 329 328 326 325 323 321 319 315 315 316 312 310 309 302
290 292 292 291 290 290 289 288 292 291 293 295 297 298 299 299 300 301 302 302 305 307 307 305 304 311 318 325 329 330 329 329 330 331 329 330 327 328 325 323 321 322 317 318 316 313 311 309 309
292 292 291 290 290 284 289 288 290 291 293 295 296 297 300 300 301 301 302 303 304 307 309 312 305 305 313 320 325 327 326 326 327 328 330 331 329 326 326 324 324 323 321 318 316 314 311 310 309
292 291 284 283 283 282 284 285 290 293 293 295 295 296 300 301 301 302 303 303 303 304 306 307 312 313 311 314 320 323 325 326 325 325 328 328 327 324 325 325 324 323 321 320 318 315 312 309 309
290 290 286 280 279 283 283 283 290 293 294 294 295 298 300 301 301 301 301 302 302 303 305 306 307 310 316 318 317 320 322 322 323 324 325 327 328 327 325 324 324 323 321 321 318 316 312 310 308
289 287 290 282 276 283 286 288 292 293 293 294 297 298 299 299 299 299 300 300 301 302 303 304 305 305 307 312 316 314 314 315 316 316 316 317 317 314 315 316 316 316 316 315 316 315 312 311 309
291 292 286 286 280 280 282 283 287 290 294 295 296 297 297 297 297 298 299 299 300 301 302 302 303 303 304 306 306 307 307 309 310 312 313 314 315 315 315 316 315 313 313 313 312 312 311 309 308
287 287 287 289 286 283 280 285 292 292 294 296 296 296 297 297 298 298 298 298 298 299 299 299 300 300 301 303 304 304 304 304 305 306 306 306 307 308 308 309 310 310 310 311 310 310 309 306 307
289 290 290 285 281 283 282 285 292 291 296 298 296 296 296 298 298 297 297 297 297 296 296 296 296 296 297 299 299 299 299 300 301 301 302 303 303 304 304 304 305 306 306 307 307 306 307 306 304

GFSSGP_sfc_thetae_102.txt.gz
Theta_e
327 320 318 317 304 302 298 300 306 307 306 310 313 309 308 314 312 309 332 333 334 340 343 344 347 349 348 350 349 348 347 345 342 341 342 341 341 339 341 340 341 339 339 339 340 338 339 338 339
316 318 316 312 299 294 294 303 303 307 310 312 309 307 308 312 324 326 327 332 334 338 339 342 345 347 347 348 349 347 347 346 342 341 341 339 341 340 341 339 338 339 338 337 338 337 337 337 338
318 316 310 305 300 295 295 302 305 309 312 310 306 309 310 314 325 327 332 331 336 336 339 342 344 346 346 347 348 347 347 346 342 340 341 341 339 341 341 342 339 338 338 336 337 337 336 336 338
314 312 310 300 297 299 300 302 307 307 307 310 307 307 316 324 326 331 333 334 336 339 341 342 345 346 346 347 347 348 347 346 342 339 340 340 338 338 341 341 339 337 336 336 335 335 334 335 337
312 310 301 299 299 299 300 307 307 306 306 307 305 304 313 325 331 332 332 335 335 339 340 341 343 344 345 345 346 347 347 346 343 339 339 340 338 338 340 340 338 336 335 334 334 333 333 337 336
305 307 298 296 298 300 300 305 306 305 304 305 301 307 315 327 328 329 332 334 335 337 337 339 337 340 342 343 344 345 346 345 343 340 338 338 338 338 337 339 338 336 336 335 333 333 334 335 334
304 303 298 298 299 298 301 305 303 302 302 303 304 303 316 322 329 330 330 333 335 338 336 337 338 337 336 339 340 342 344 342 341 340 339 338 338 338 336 337 340 337 336 333 332 334 334 333 332
305 303 299 299 299 298 303 304 304 302 302 307 310 302 309 321 329 330 329 331 334 336 335 334 335 336 336 335 333 336 339 339 338 336 333 331 332 332 331 330 335 338 335 334 333 334 333 332 330
309 299 296 299 300 299 304 301 303 303 303 303 307 309 319 327 329 327 326 329 333 334 335 335 334 333 334 334 330 331 333 333 331 330 328 326 327 328 326 327 331 335 336 335 333 332 331 329 327
301 298 300 304 303 301 303 302 302 298 300 301 305 313 325 326 326 324 324 326 329 331 334 336 335 333 333 334 331 333 334 334 333 331 327 329 326 325 326 323 326 330 331 332 331 328 329 326 322
301 299 303 302 303 304 303 301 303 299 298 301 304 312 321 323 324 324 324 326 327 331 332 335 335 335 335 332 331 331 330 331 331 331 330 327 325 323 324 322 321 320 321 323 324 321 321 321 320
297 301 301 304 303 303 302 303 299 300 298 304 306 315 320 320 321 322 324 325 327 330 332 333 334 335 334 334 331 332 330 330 330 330 330 326 323 321 322 322 322 321 320 321 321 320 318 318 319
299 299 301 302 301 300 304 301 298 299 302 304 307 314 317 319 320 321 323 326 327 329 331 333 335 334 335 334 333 334 332 330 330 329 329 327 323 321 322 322 322 321 321 320 318 317 317 317 318
301 300 299 300 301 300 300 297 297 300 302 302 305 306 312 316 318 320 320 322 325 329 330 333 333 335 335 335 334 333 332 332 329 329 328 327 324 322 321 321 321 320 320 319 318 316 316 316 318
300 296 296 297 298 298 298 295 296 298 302 301 301 301 305 311 316 317 320 321 323 327 330 331 332 334 333 334 334 334 333 332 331 329 329 327 325 322 321 320 320 319 320 318 317 316 316 316 317
296 295 291 296 297 297 297 291 299 300 298 298 298 298 301 304 310 315 320 322 323 325 326 330 332 332 333 334 334 334 334 333 332 331 330 327 326 323 321 320 319 320 318 317 316 315 313 313 314
293 287 290 292 297 296 295 291 295 298 296 295 296 298 299 301 304 309 317 321 323 325 326 329 331 331 333 334 334 334 334 333 333 332 331 330 327 325 321 319 319 320 317 315 315 314 313 311 311
287 287 291 289 293 294 292 292 295 296 296 295 296 296 296 298 301 305 311 318 321 323 326 329 333 331 332 333 333 333 332 333 333 332 331 331 329 326 322 320 318 317 315 313 313 312 313 311 311
291 290 289 291 294 293 292 292 294 297 296 296 296 297 298 298 301 302 305 308 314 320 323 325 329 332 332 329 330 330 329 331 331 332 331 330 330 329 324 321 318 317 315 313 311 309 308 308 310
290 290 289 290 294 292 290 291 294 296 295 296 297 297 298 299 300 303 302 301 305 309 317 322 324 328 332 331 331 330 330 330 331 332 331 331 330 329 327 323 320 317 315 314 312 308 308 309 308
289 289 288 289 291 291 286 287 290 294 296 297 298 296 296 296 298 300 300 301 301 301 302 308 316 322 327 331 330 329 329 329 328 329 330 330 329 329 328 326 324 322 318 316 314 312 309 306 307
287 292 291 291 287 282 287 279 287 291 292 294 295 295 293 295 299 297 297 299 302 304 304 304 303 306 313 325 328 327 326 325 327 328 330 329 329 328 328 327 325 323 318 315 315 314 312 310 307
290 292 291 290 286 285 284 282 285 290 289 292 294 295 297 297 298 299 300 303 304 305 305 304 302 302 304 313 323 326 325 325 325 327 327 328 327 327 326 326 325 322 320 317 315 313 312 311 311
293 291 291 288 286 278 283 283 282 287 290 291 293 296 297 296 297 299 301 303 303 304 306 308 301 301 303 309 314 321 323 322 320 321 324 325 325 325 325 325 324 323 321 318 316 315 314 313 312
291 287 279 278 277 277 283 282 285 289 290 293 292 296 297 298 298 299 299 300 301 302 303 306 310 306 305 308 312 315 318 319 322 321 320 321 323 322 323 323 322 322 321 320 319 318 316 315 312
288 287 281 274 276 278 281 279 285 290 292 293 294 297 298 298 298 298 299 299 300 301 302 304 306 310 311 311 311 313 314 315 317 318 318 319 319 320 319 321 321 321 321 321 319 318 316 314 312
287 284 288 281 275 278 280 284 289 290 290 291 292 296 296 296 297 297 298 298 298 298 300 301 302 303 307 313 312 310 311 312 312 315 315 314 314 312 313 314 315 315 315 315 315 314 313 312 311
289 290 282 282 271 271 278 280 282 287 289 290 292 295 295 295 296 296 296 297 297 298 298 299 300 300 301 302 302 302 304 305 306 305 303 304 305 305 304 304 305 306 309 309 310 309 309 309 309
286 285 286 286 284 277 275 279 285 289 291 290 292 295 294 295 295 295 296 296 296 296 295 295 296 297 297 297 298 297 298 298 298 298 298 298 299 300 300 300 301 301 302 302 302 303 304 304 305
288 287 287 281 279 280 281 281 291 290 293 294 295 295 296 296 296 295 295 295 294 294 294 293 294 294 295 296 295 295 295 294 294 294 294 294 295 296 296 296 296 296 297 297 297 297 297 299 299

GFSSGP_sfc_thetae_105.txt.gz
Theta_e
321 311 310 309 298 295 292 296 302 302 303 305 308 308 312 314 312 306 331 333 336 342 344 345 348 350 350 349 349 348 346 342 342 342 341 340 342 340 339 339 338 338 340 339 340 340 340 340 342
313 314 309 303 294 289 290 297 300 304 306 308 308 307 309 311 322 324 324 338 341 340 341 343 345 348 349 349 348 347 346 342 342 341 340 341 342 340 338 338 340 338 338 338 339 339 340 341 341
315 313 303 299 293 290 290 296 302 306 308 305 303 309 310 316 323 325 329 337 337 337 341 342 344 347 349 349 347 347 346 343 342 342 340 341 342 340 339 340 339 336 337 338 337 338 338 338 340
308 307 302 295 292 295 295 300 305 304 306 306 306 306 313 322 325 327 331 334 335 337 340 342 345 347 348 348 347 347 345 343 342 341 339 340 340 341 341 339 337 336 336 336 335 335 336 339 340
305 302 295 293 293 294 297 304 305 302 303 302 303 305 312 324 329 329 332 336 336 337 339 341 343 345 346 347 347 346 345 343 342 341 339 338 338 340 340 338 336 335 334 334 334 334 335 337 336
300 301 293 290 293 294 298 303 304 301 301 302 307 310 312 325 327 327 331 336 337 336 338 339 336 339 342 344 345 345 345 343 340 340 339 337 338 339 339 337 336 336 334 333 333 334 334 334 334
298 297 292 292 293 294 298 303 302 299 301 300 303 307 314 321 326 328 330 335 335 336 336 336 337 335 335 338 339 342 343 341 340 339 340 338 338 337 337 339 338 336 333 332 332 334 333 333 332
300 299 294 292 293 294 300 301 302 299 300 304 306 305 309 319 326 327 329 333 333 333 335 334 334 335 334 334 333 336 337 338 337 335 333 331 332 331 331 330 337 336 333 333 334 333 332 331 330
305 295 293 293 295 295 299 299 301 301 302 303 307 308 316 325 326 324 324 330 331 331 332 332 333 333 333 333 330 331 332 332 331 329 327 325 326 325 326 327 333 336 336 333 333 332 331 329 327
298 294 295 299 298 297 299 301 301 298 299 301 308 320 324 325 323 321 323 326 329 328 330 332 331 331 332 334 331 332 332 329 328 327 325 325 325 324 324 322 326 330 330 332 331 330 328 324 319
298 296 299 298 300 302 300 298 301 297 294 301 306 317 321 321 321 320 321 324 328 329 330 331 331 331 330 330 329 330 330 330 328 326 325 325 322 322 321 319 319 320 320 322 323 321 320 320 319
295 300 298 301 301 300 300 301 297 298 298 302 310 320 319 320 321 321 321 323 326 328 330 331 333 333 331 329 329 329 329 328 328 327 327 322 320 320 320 319 319 318 318 318 318 317 318 316 317
296 298 298 299 300 300 302 299 299 298 299 303 311 319 318 320 320 321 323 324 326 328 329 330 331 332 332 330 329 329 327 328 328 327 327 324 320 318 320 319 319 318 317 318 317 316 316 315 316
299 298 298 298 298 299 299 296 298 298 300 303 313 314 316 318 318 317 320 322 326 330 329 330 331 332 332 333 331 332 331 329 327 327 326 325 322 319 319 319 319 318 318 318 317 315 314 314 316
299 294 295 296 298 296 297 294 295 298 299 300 303 306 312 315 317 317 318 321 325 330 331 330 330 331 333 333 332 332 331 331 328 326 327 325 323 320 319 318 318 318 318 317 315 314 314 314 315
294 292 289 294 296 296 296 290 297 297 298 297 297 297 301 307 313 315 318 319 321 327 330 331 332 331 330 333 332 332 332 331 331 330 327 326 324 321 319 318 318 318 317 316 314 313 312 312 312
289 284 286 290 295 294 292 289 293 295 296 295 294 295 296 299 303 309 316 318 319 324 327 330 331 329 330 333 333 333 333 332 332 331 330 328 325 323 319 318 318 317 315 314 313 312 311 310 309
283 284 287 286 291 292 290 290 293 294 294 294 294 294 294 298 300 305 310 317 320 321 324 328 330 329 329 332 333 333 332 332 333 331 330 330 328 325 320 318 317 316 314 312 311 311 310 310 309
289 288 287 288 292 291 290 290 293 294 292 292 293 294 295 296 299 301 306 313 317 319 322 327 328 328 328 328 330 330 329 330 331 332 330 330 329 327 323 319 317 316 314 312 310 309 308 307 306
289 286 286 288 291 290 288 289 292 293 293 294 294 294 295 295 297 299 300 303 310 315 318 322 329 329 329 329 329 327 330 330 331 332 331 330 329 328 326 323 319 317 315 312 311 308 307 307 309
288 286 285 287 289 289 285 284 287 293 294 294 295 295 295 295 297 297 298 298 299 300 301 308 319 328 330 330 328 327 329 328 328 328 329 330 330 329 328 325 323 320 317 315 315 312 310 309 306
286 291 290 288 284 280 283 277 283 287 290 292 293 293 294 295 295 295 297 299 300 301 302 301 302 303 314 328 328 327 326 325 327 328 329 329 329 329 328 327 324 323 320 317 315 313 312 310 308
288 291 290 288 286 283 282 279 282 286 287 290 291 292 294 294 296 297 299 302 302 303 304 303 301 300 301 310 325 325 325 326 326 327 326 327 327 327 326 326 325 323 322 318 315 313 312 311 312
292 289 289 286 284 277 280 280 280 285 287 288 290 293 294 294 296 297 299 301 301 302 303 304 299 299 301 306 316 322 321 323 322 322 324 324 324 324 324 324 324 323 321 319 317 316 314 313 312
290 285 279 277 276 276 279 279 283 287 288 291 292 293 293 294 295 296 297 298 299 300 302 307 307 303 305 309 312 314 316 322 322 320 321 322 322 321 322 321 321 321 320 319 317 316 315 314 313
286 285 278 272 274 276 279 278 285 289 289 292 294 294 294 295 296 296 297 297 298 299 300 303 306 306 307 308 309 310 311 312 316 317 317 316 316 317 317 317 319 319 318 318 318 317 315 315 312
286 283 287 280 272 275 278 282 288 289 288 291 293 294 293 294 295 295 296 296 296 296 298 299 300 301 304 306 304 304 307 308 307 308 309 308 307 307 308 309 310 312 312 312 311 311 310 310 310
288 289 282 281 270 269 276 278 281 285 287 289 292 292 293 294 294 295 295 295 295 295 296 297 297 297 298 299 299 299 299 300 300 301 300 300 301 301 300 300 300 301 301 301 302 302 302 302 303
285 284 284 285 280 274 273 278 284 287 289 289 290 293 293 293 293 293 294 294 294 293 293 293 294 295 295 295 295 295 294 294 295 294 294 295 295 295 295 296 296 296 296 296 296 296 296 296 298
287 286 286 282 279 280 280 279 289 288 290 290 291 294 293 294 293 293 293 292 292 291 291 292 292 293 292 292 292 292 292 292 291 291 291 292 292 292 292 292 292 292 293 293 293 292 292 292 292